[[{"header":{"parameterUnit":"m.s-1","parameterCategory":1,"la1":30.6,"la2":28.766,"lo1":-90.7593,"lo2":-88.6598,"dy":0.0162,"dx":0.0183,"nx":116,"ny":114,"refTime":"2023-11-07T06:00:00:Z","depth":0,"parameterNumber":2,"parameterNumberName":"U-component_of_WINDS"},"data":[0.0,0.0,0.0,0.0,0.0,0.0,0.0,0.0,0.0,0.0,0.0,0.0,0.0,0.0,0.0,0.0,0.0,0.0,0.0,0.0,0.0,0.0,0.0,0.0,0.0,0.0,0.0,0.0,0.0,0.0,0.0,0.0,0.0,0.0,0.0,0.0,0.0,0.0,0.0,0.0,0.0,0.0,0.0,0.0,0.0,0.0,0.0,0.0,0.0,0.0,0.0,0.0,0.0,0.0,0.0,0.0,0.0,0.0,0.0,0.0,0.0,0.0,0.0,0.0,0.0,0.0,0.0,0.0,0.0,0.0,0.0,0.0,0.0,0.0,0.0,0.0,0.0,0.0,0.0,0.0,0.0,0.0,0.0,0.0,0.0,0.0,0.0,0.0,0.0,0.0,0.0,0.0,0.0,0.0,0.0,0.0,0.0,0.0,0.0,0.0,0.0,0.0,0.0,0.0,0.0,0.0,0.0,0.0,0.0,0.0,0.0,0.0,0.0,0.0,0.0,0.0,0.0,0.0,0.0,0.0,0.0,0.0,0.0,0.0,0.0,0.0,0.0,0.0,0.0,0.0,0.0,0.0,0.0,0.0,0.0,0.0,0.0,0.0,0.0,0.0,0.0,0.0,0.0,0.0,0.0,0.0,0.0,0.0,0.0,0.0,0.0,0.0,0.0,0.0,0.0,0.0,0.0,0.0,0.0,0.0,0.0,0.0,0.0,0.0,0.0,0.0,0.0,0.0,0.0,0.0,0.0,0.0,0.0,0.0,0.0,0.0,0.0,0.0,0.0,0.0,0.0,0.0,0.0,0.0,0.0,0.0,0.0,0.0,0.0,0.0,0.0,0.0,0.0,0.0,0.0,0.0,0.0,0.0,0.0,0.0,0.0,0.0,0.0,0.0,0.0,0.0,0.0,0.0,0.0,0.0,0.0,0.0,0.0,0.0,0.0,0.0,0.0,0.0,0.0,0.0,0.0,0.0,0.0,0.0,0.0,0.0,0.0,0.0,0.0,0.0,0.0,0.0,0.0,0.0,0.0,0.0,0.0,0.0,0.0,0.0,0.0,0.0,0.0,0.0,0.0,0.0,0.0,0.0,0.0,0.0,0.0,0.0,0.0,0.0,0.0,0.0,0.0,0.0,0.0,0.0,0.0,0.0,0.0,0.0,0.0,0.0,0.0,0.0,0.0,0.0,0.0,0.0,0.0,0.0,0.0,0.0,0.0,0.0,0.0,0.0,0.0,0.0,0.0,0.0,0.0,0.0,0.0,0.0,0.0,0.0,0.0,0.0,0.0,0.0,0.0,0.0,0.0,0.0,0.0,0.0,0.0,0.0,0.0,0.0,0.0,0.0,0.0,0.0,0.0,0.0,0.0,0.0,0.0,0.0,0.0,0.0,0.0,0.0,0.0,0.0,0.0,0.0,0.0,0.0,0.0,0.0,0.0,0.0,0.0,0.0,0.0,0.0,0.0,0.0,0.0,0.0,0.0,0.0,0.0,0.0,0.0,0.0,0.0,0.0,0.0,0.0,0.0,0.0,0.0,0.0,0.0,0.0,0.0,0.0,0.0,0.0,0.0,0.0,0.0,0.0,0.0,0.0,0.0,0.0,0.0,0.0,0.0,0.0,0.0,0.0,0.0,0.0,0.0,0.0,0.0,0.0,0.0,0.0,0.0,0.0,0.0,0.0,0.0,0.0,0.0,0.0,0.0,0.0,0.0,0.0,0.0,0.0,0.0,0.0,0.0,0.0,0.0,0.0,0.0,0.0,0.0,0.0,0.0,0.0,0.0,0.0,0.0,0.0,0.0,0.0,0.0,0.0,0.0,0.0,0.0,0.0,0.0,0.0,0.0,0.0,0.0,0.0,0.0,0.0,0.0,0.0,0.0,0.0,0.0,0.0,0.0,0.0,0.0,0.0,0.0,0.0,0.0,0.0,0.0,0.0,0.0,0.0,0.0,0.0,0.0,0.0,0.0,0.0,0.0,0.0,0.0,0.0,0.0,0.0,0.0,0.0,0.0,0.0,0.0,0.0,0.0,0.0,0.0,0.0,0.0,0.0,0.0,0.0,0.0,0.0,0.0,0.0,0.0,0.0,0.0,0.0,0.0,0.0,0.0,0.0,0.0,0.0,0.0,0.0,0.0,0.0,0.0,0.0,0.0,0.0,0.0,0.0,0.0,0.0,0.0,0.0,0.0,0.0,0.0,0.0,0.0,0.0,0.0,0.0,0.0,0.0,0.0,0.0,0.0,0.0,0.0,0.0,0.0,0.0,0.0,0.0,0.0,0.0,0.0,0.0,0.0,0.0,0.0,0.0,0.0,0.0,0.0,0.0,0.0,0.0,0.0,0.0,0.0,0.0,0.0,0.0,0.0,0.0,0.0,0.0,0.0,0.0,0.0,0.0,0.0,0.0,0.0,0.0,0.0,0.0,0.0,0.0,0.0,0.0,0.0,0.0,0.0,0.0,0.0,0.0,0.0,0.0,0.0,0.0,0.0,0.0,0.0,0.0,0.0,0.0,0.0,0.0,0.0,0.0,0.0,0.0,0.0,0.0,0.0,0.0,0.0,0.0,0.0,0.0,0.0,0.0,0.0,0.0,0.0,0.0,0.0,0.0,0.0,0.0,0.0,0.0,0.0,0.0,0.0,0.0,0.0,0.0,0.0,0.0,0.0,0.0,0.0,0.0,0.0,0.0,0.0,0.0,0.0,0.0,0.0,0.0,0.0,0.0,0.0,0.0,0.0,0.0,0.0,0.0,0.0,0.0,0.0,0.0,0.0,0.0,0.0,0.0,0.0,0.0,0.0,0.0,0.0,0.0,0.0,0.0,0.0,0.0,0.0,0.0,0.0,0.0,0.0,0.0,0.0,0.0,0.0,0.0,0.0,0.0,0.0,0.0,0.0,0.0,0.0,0.0,0.0,0.0,0.0,0.0,0.0,0.0,0.0,0.0,0.0,0.0,0.0,0.0,0.0,0.0,0.0,0.0,0.0,0.0,0.0,0.0,0.0,0.0,0.0,0.0,0.0,0.0,0.0,0.0,0.0,0.0,0.0,0.0,0.0,0.0,0.0,0.0,0.0,0.0,0.0,0.0,0.0,0.0,0.0,0.0,0.0,0.0,0.0,0.0,0.0,0.0,0.0,0.0,0.0,0.0,0.0,0.0,0.0,0.0,0.0,0.0,0.0,0.0,0.0,0.0,0.0,0.0,0.0,0.0,0.0,0.0,0.0,0.0,0.0,0.0,0.0,0.0,0.0,0.0,0.0,0.0,0.0,0.0,0.0,0.0,0.0,0.0,0.0,0.0,0.0,0.0,0.0,0.0,0.0,0.0,0.0,0.0,0.0,0.0,0.0,0.0,0.0,0.0,0.0,0.0,0.0,0.0,0.0,0.0,0.0,0.0,0.0,0.0,0.0,0.0,0.0,0.0,0.0,0.0,0.0,0.0,0.0,0.0,0.0,0.0,0.0,0.0,0.0,0.0,0.0,0.0,0.0,0.0,0.0,0.0,0.0,0.0,0.0,0.0,0.0,0.0,0.0,0.0,0.0,0.0,0.0,0.0,0.0,0.0,0.0,0.0,0.0,0.0,0.0,0.0,0.0,0.0,0.0,0.0,0.0,0.0,0.0,0.0,0.0,0.0,0.0,0.0,0.0,0.0,0.0,0.0,0.0,0.0,0.0,0.0,0.0,0.0,0.0,0.0,0.0,0.0,0.0,0.0,0.0,0.0,0.0,0.0,0.0,0.0,0.0,0.0,0.0,0.0,0.0,0.0,0.0,0.0,0.0,0.0,0.0,0.0,0.0,0.0,0.0,0.0,0.0,0.0,0.0,0.0,0.0,0.0,0.0,0.0,0.0,0.0,0.0,0.0,0.0,0.0,0.0,0.0,0.0,0.0,0.0,0.0,0.0,0.0,0.0,0.0,0.0,0.0,0.0,0.0,0.0,0.0,0.0,0.0,0.0,0.0,0.0,0.0,0.0,0.0,0.0,0.0,0.0,0.0,0.0,0.0,0.0,0.0,0.0,0.0,0.0,0.0,0.0,0.0,0.0,0.0,0.0,0.0,0.0,0.0,0.0,0.0,0.0,0.0,0.0,0.0,0.0,0.0,0.0,0.0,0.0,0.0,0.0,0.0,0.0,0.0,0.0,0.0,0.0,0.0,0.0,0.0,0.0,0.0,0.0,0.0,0.0,0.0,0.0,0.0,0.0,0.0,0.0,0.0,0.0,0.0,0.0,0.0,0.0,0.0,0.0,0.0,0.0,0.0,0.0,0.0,0.0,0.0,0.0,0.0,0.0,0.0,0.0,0.0,0.0,0.0,0.0,0.0,0.0,0.0,0.0,0.0,0.0,0.0,0.0,0.0,0.0,0.0,0.0,0.0,0.0,0.0,0.0,0.0,0.0,0.0,0.0,0.0,0.0,0.0,0.0,0.0,0.0,0.0,0.0,0.0,0.0,0.0,0.0,0.0,0.0,0.0,0.0,0.0,0.0,0.0,0.0,0.0,0.0,0.0,0.0,0.0,0.0,0.0,0.0,0.0,0.0,0.0,0.0,0.0,0.0,0.0,0.0,0.0,0.0,0.0,0.0,0.0,0.0,0.0,0.0,0.0,0.0,0.0,0.0,0.0,0.0,0.0,0.0,0.0,0.0,0.0,0.0,0.0,0.0,0.0,0.0,0.0,0.0,0.0,0.0,0.0,0.0,0.0,0.0,0.0,0.0,0.0,0.0,0.0,0.0,0.0,0.0,0.0,0.0,0.0,0.0,0.0,0.0,0.0,0.0,0.0,0.0,0.0,0.0,0.0,0.0,0.0,0.0,0.0,0.0,0.0,0.0,0.0,0.0,0.0,0.0,0.0,0.0,0.0,0.0,0.0,0.0,0.0,0.0,0.0,0.0,0.0,0.0,0.0,0.0,0.0,0.0,0.0,0.0,0.0,0.0,0.0,0.0,0.0,0.0,0.0,0.0,0.0,0.0,0.0,0.0,0.0,0.0,0.0,0.0,0.0,0.0,0.0,0.0,0.0,0.0,0.0,0.0,0.0,0.0,0.0,0.0,0.0,0.0,0.0,0.0,0.0,0.0,0.0,0.0,0.0,0.0,0.0,0.0,0.0,0.0,0.0,0.0,0.0,0.0,0.0,0.0,0.0,0.0,0.0,0.0,0.0,0.0,0.0,0.0,0.0,0.0,0.0,0.0,0.0,0.0,0.0,0.0,0.0,0.0,0.0,0.0,0.0,0.0,0.0,0.0,0.0,0.0,0.0,0.0,0.0,0.0,0.0,0.0,0.0,0.0,0.0,0.0,0.0,0.0,0.0,0.0,0.0,0.0,0.0,0.0,0.0,0.0,0.0,0.0,0.0,0.0,0.0,0.0,0.0,0.0,0.0,0.0,0.0,0.0,0.0,0.0,0.0,0.0,0.0,0.0,0.0,0.0,0.0,0.0,0.0,0.0,0.0,0.0,0.0,0.0,0.0,0.0,0.0,0.0,0.0,0.0,0.0,0.0,0.0,0.0,0.0,0.0,0.0,0.0,0.0,0.0,0.0,0.0,0.0,0.0,0.0,0.0,0.0,0.0,0.0,0.0,0.0,0.0,0.0,0.0,0.0,0.0,0.0,0.0,0.0,0.0,0.0,0.0,0.0,0.0,0.0,0.0,0.0,0.0,0.0,0.0,0.0,0.0,0.0,0.0,0.0,0.0,0.0,0.0,0.0,0.0,0.0,0.0,0.0,0.0,0.0,0.0,0.0,0.0,0.0,0.0,0.0,0.0,0.0,0.0,0.0,0.0,0.0,0.0,0.0,0.0,0.0,0.0,0.0,0.0,0.0,0.0,0.0,0.0,0.0,0.0,0.0,0.0,0.0,0.0,0.0,0.0,0.0,0.0,0.0,0.0,0.0,0.0,0.0,0.0,0.0,0.0,0.0,0.0,0.0,0.0,0.0,0.0,0.0,0.0,0.0,0.0,0.0,0.0,0.0,0.0,0.0,0.0,0.0,0.0,0.0,0.0,0.0,0.0,0.0,0.0,0.0,0.0,0.0,0.0,0.0,0.0,0.0,0.0,0.0,0.0,0.0,0.0,0.0,0.0,0.0,3.6406,0.0,0.0,0.0,0.0,0.0,0.0,0.0,0.0,0.0,0.0,0.0,0.0,0.0,0.0,0.0,0.0,0.0,0.0,0.0,0.0,0.0,0.0,0.0,0.0,0.0,0.0,0.0,0.0,0.0,0.0,0.0,0.0,0.0,0.0,0.0,0.0,0.0,0.0,0.0,3.5792,3.5878,3.6268,3.681,3.6243,3.4788,0.0,0.0,0.0,0.0,0.0,0.0,0.0,0.0,0.0,0.0,0.0,0.0,0.0,0.0,0.0,0.0,0.0,0.0,0.0,0.0,0.0,0.0,0.0,0.0,0.0,0.0,0.0,0.0,0.0,0.0,0.0,0.0,0.0,0.0,0.0,0.0,0.0,0.0,0.0,0.0,0.0,0.0,0.0,0.0,0.0,0.0,0.0,0.0,0.0,0.0,0.0,0.0,0.0,0.0,0.0,0.0,0.0,0.0,0.0,0.0,0.0,0.0,0.0,0.0,0.0,0.0,0.0,0.0,0.0,0.0,0.0,3.6576,0.0,0.0,0.0,0.0,0.0,0.0,0.0,0.0,0.0,0.0,0.0,0.0,0.0,0.0,0.0,0.0,0.0,0.0,0.0,0.0,0.0,0.0,0.0,0.0,0.0,0.0,0.0,0.0,0.0,0.0,0.0,0.0,0.0,0.0,0.0,0.0,0.0,3.6315,3.6483,3.6847,3.7341,3.8445,3.7483,3.485,3.4955,0.0,0.0,0.0,0.0,0.0,0.0,0.0,0.0,0.0,0.0,0.0,0.0,0.0,0.0,0.0,0.0,0.0,0.0,0.0,0.0,0.0,0.0,0.0,0.0,0.0,0.0,0.0,0.0,0.0,0.0,0.0,0.0,0.0,0.0,0.0,0.0,0.0,0.0,0.0,0.0,0.0,0.0,0.0,0.0,0.0,0.0,0.0,0.0,0.0,0.0,0.0,0.0,0.0,0.0,0.0,0.0,0.0,0.0,0.0,0.0,0.0,0.0,0.0,0.0,3.7049,3.7031,3.6936,3.6882,3.6911,3.7585,3.7649,3.7259,0.0,0.0,0.0,0.0,0.0,0.0,0.0,0.0,0.0,0.0,0.0,0.0,0.0,0.0,0.0,0.0,0.0,0.0,0.0,0.0,0.0,0.0,0.0,3.4899,3.4899,3.4899,0.0,0.0,0.0,0.0,0.0,0.0,0.0,0.0,3.5651,3.5988,3.7146,3.7794,3.786,3.7389,3.7566,3.7413,3.7032,3.7599,3.7211,3.6104,0.0,0.0,0.0,0.0,0.0,0.0,0.0,0.0,0.0,0.0,0.0,0.0,0.0,0.0,0.0,0.0,0.0,0.0,0.0,0.0,0.0,0.0,0.0,0.0,0.0,0.0,0.0,0.0,0.0,0.0,0.0,0.0,0.0,0.0,0.0,0.0,0.0,0.0,0.0,0.0,0.0,3.6129,3.676,0.0,0.0,0.0,0.0,0.0,0.0,0.0,0.0,0.0,0.0,0.0,0.0,0.0,0.0,3.74,3.7415,3.7605,3.803,3.803,3.803,3.7997,3.8011,3.7993,3.7993,3.8099,0.0,3.7302,3.7233,0.0,0.0,0.0,0.0,0.0,0.0,0.0,0.0,0.0,0.0,0.0,0.0,0.0,0.0,0.0,0.0,0.0,0.0,0.0,0.0,0.0,0.0,3.4954,3.4954,3.5036,0.0,0.0,0.0,0.0,0.0,0.0,3.6554,3.6222,3.6394,3.695,3.7911,3.8238,3.8433,3.8524,3.8524,3.8524,3.8542,3.8825,3.8235,3.7,3.7,0.0,0.0,0.0,0.0,0.0,0.0,0.0,0.0,0.0,0.0,0.0,0.0,0.0,0.0,0.0,0.0,0.0,0.0,0.0,0.0,0.0,0.0,0.0,0.0,0.0,0.0,0.0,0.0,0.0,0.0,0.0,0.0,0.0,0.0,0.0,0.0,0.0,0.0,0.0,3.6821,3.7325,3.7868,3.7775,3.7708,0.0,0.0,0.0,0.0,0.0,0.0,0.0,0.0,0.0,3.7758,3.77,3.7916,3.8441,3.8475,3.8724,3.9276,3.9276,3.9276,3.9276,3.9276,3.9276,3.9276,3.9276,3.9117,3.8826,3.8101,3.781,3.7781,0.0,0.0,0.0,0.0,0.0,3.6925,0.0,0.0,0.0,0.0,0.0,0.0,0.0,0.0,0.0,0.0,0.0,0.0,3.493,3.501,3.5048,3.5048,3.5151,3.5397,3.5837,0.0,0.0,0.0,0.0,3.7126,3.6349,3.7031,3.7731,3.8409,3.8556,3.8916,3.9406,3.9406,3.9406,3.9406,3.9406,3.8748,3.7659,3.7659,3.73,3.6733,0.0,0.0,0.0,0.0,0.0,0.0,0.0,0.0,0.0,0.0,0.0,0.0,0.0,0.0,0.0,0.0,0.0,0.0,0.0,0.0,0.0,0.0,0.0,0.0,0.0,0.0,0.0,0.0,0.0,0.0,0.0,0.0,0.0,0.0,0.0,0.0,0.0,3.7709,3.8129,3.858,3.8369,3.8269,0.0,0.0,0.0,0.0,0.0,0.0,3.8219,3.8575,3.88,3.8904,3.8904,3.9076,3.9421,3.9421,3.9654,4.0104,4.0263,4.035,4.0365,4.0525,4.0612,4.0612,4.0612,4.051,4.0263,3.9146,3.8681,3.8681,3.8681,3.8681,3.8681,3.8681,3.8405,3.8086,0.0,0.0,0.0,0.0,0.0,0.0,0.0,0.0,0.0,0.0,0.0,3.4988,3.4988,3.5113,3.5182,3.5182,3.52,3.5201,3.523,3.6451,3.689,3.6309,3.7548,3.7672,3.6415,3.7054,3.7723,3.8409,3.905,3.9376,3.9406,3.9406,3.9406,3.9406,3.9406,3.902,3.8365,3.8365,3.7958,3.7298,3.6731,0.0,0.0,0.0,0.0,0.0,0.0,0.0,0.0,0.0,0.0,0.0,0.0,0.0,0.0,0.0,0.0,0.0,0.0,0.0,0.0,0.0,0.0,0.0,0.0,0.0,0.0,0.0,0.0,0.0,0.0,0.0,0.0,0.0,0.0,0.0,0.0,0.0,0.0,3.8186,3.8393,0.0,0.0,0.0,0.0,3.8697,3.8723,3.8925,3.9387,3.9427,3.9624,4.0007,4.0022,4.0036,4.0046,4.0046,4.006,4.0104,4.0742,4.1047,4.1062,4.17,4.199,4.199,4.199,4.1628,4.1004,4.0292,4.0002,4.0002,4.0002,4.0002,4.0002,4.0002,3.9987,3.9958,0.0,0.0,0.0,0.0,0.0,0.0,0.0,0.0,0.0,3.4851,3.4658,3.462,3.4959,3.5156,3.5444,3.5865,3.5998,3.6584,3.7831,3.7542,3.7429,3.77,3.7301,3.7064,3.7038,3.7689,3.8377,3.9032,3.9272,3.9406,3.9406,3.9406,3.9406,3.9406,3.9406,3.9272,3.9032,3.9032,3.8661,3.8018,3.7808,3.7242,0.0,0.0,0.0,0.0,0.0,0.0,0.0,0.0,0.0,0.0,0.0,0.0,0.0,0.0,0.0,0.0,0.0,0.0,0.0,0.0,0.0,0.0,0.0,0.0,0.0,0.0,0.0,0.0,0.0,0.0,0.0,0.0,0.0,0.0,0.0,0.0,0.0,3.8375,3.846,0.0,0.0,3.9031,3.9262,3.9262,3.9496,3.9717,3.9872,3.9887,4.0139,4.0728,4.0742,4.1134,4.1961,4.1961,4.2179,4.26,4.2847,4.2963,4.2963,4.321,4.3311,4.3311,4.3311,4.3181,4.2948,4.2702,4.1613,4.0104,4.0104,4.0104,4.0104,4.0104,3.9718,3.9203,0.0,0.0,0.0,0.0,0.0,0.0,0.0,0.0,0.0,3.4622,3.4404,3.4448,3.5044,3.5254,3.5645,3.6306,3.6668,3.7286,3.8351,3.8013,3.7701,3.7499,3.6813,3.6947,3.8048,3.8289,3.8736,3.9406,3.9406,3.9406,3.9406,3.9406,3.9406,3.9406,3.9406,3.9406,3.9406,3.9406,3.9137,3.8721,3.8482,3.7749,3.6776,0.0,0.0,0.0,0.0,0.0,0.0,0.0,0.0,0.0,0.0,0.0,0.0,0.0,0.0,0.0,0.0,0.0,0.0,0.0,0.0,0.0,0.0,0.0,0.0,0.0,0.0,0.0,0.0,0.0,0.0,0.0,0.0,0.0,0.0,0.0,3.846,3.8404,3.8608,3.8796,3.8931,3.9403,3.9692,3.9692,4.0153,4.0539,4.0757,4.096,4.1381,4.2049,4.2078,4.2469,4.3326,4.355,4.387,4.432,4.4734,4.4951,4.4951,4.5169,4.5271,4.5271,4.4885,4.4598,4.4411,4.4411,4.3127,4.1135,4.0941,4.0875,4.0834,4.0488,3.9985,3.944,0.0,0.0,0.0,0.0,0.0,0.0,0.0,0.0,0.0,3.4209,3.4285,3.4571,3.5262,3.5452,3.5805,3.6499,3.7154,3.7267,3.664,3.7778,3.7592,3.5629,3.6194,3.7443,3.933,3.8741,3.8751,3.9406,3.9406,3.9406,3.9406,3.9406,3.9406,3.9406,3.9406,3.9406,3.9406,3.9406,3.9406,3.9346,3.8691,3.8033,3.7375,0.0,0.0,0.0,0.0,0.0,0.0,0.0,0.0,0.0,0.0,0.0,0.0,0.0,0.0,0.0,0.0,0.0,0.0,0.0,0.0,0.0,0.0,0.0,0.0,0.0,0.0,0.0,0.0,0.0,0.0,0.0,0.0,0.0,3.8202,3.8381,3.8452,3.825,3.8826,3.9233,3.9262,3.9813,4.0162,4.0191,4.08,4.1468,4.2121,4.2716,4.3355,4.4044,4.4066,4.4095,4.411,4.4712,4.5003,4.5017,4.6235,4.683,4.6859,4.7491,4.7782,4.7673,4.6626,4.5767,4.519,4.52,4.4438,4.3184,4.264,4.2419,4.227,4.1269,4.0889,4.0852,0.0,0.0,0.0,0.0,0.0,0.0,0.0,0.0,3.4349,3.4867,3.4647,3.4851,3.5905,3.6131,3.6664,3.7778,3.8043,3.8293,3.8588,3.804,3.7254,3.6271,3.7302,3.8137,3.8659,3.8959,3.9212,3.9406,3.9406,3.9406,3.9406,3.9406,3.9406,3.9406,3.9406,3.9406,3.9406,3.9406,3.9406,3.9391,3.9197,3.8721,3.8125,0.0,0.0,0.0,0.0,0.0,0.0,0.0,0.0,0.0,0.0,0.0,0.0,0.0,0.0,0.0,0.0,0.0,0.0,0.0,0.0,0.0,0.0,0.0,0.0,0.0,0.0,0.0,0.0,0.0,0.0,0.0,0.0,3.8202,3.8202,3.8661,3.8985,3.8928,3.9465,4.0046,4.0525,4.1163,4.1729,4.2165,4.2818,4.3282,4.3456,4.4059,4.4676,4.5366,4.5808,4.6272,4.676,4.6919,4.7007,4.7021,4.7346,4.7521,4.7521,4.7718,4.7338,4.6602,4.711,4.63,4.4674,4.5511,4.5157,4.3993,4.3375,4.282,4.227,4.1269,4.0442,3.972,0.0,0.0,0.0,0.0,0.0,0.0,0.0,3.4433,3.4403,3.4855,3.4683,3.4981,3.6261,3.6699,3.732,3.8312,3.8674,3.878,3.8577,3.759,3.7105,3.7287,3.802,3.8527,3.8811,3.9197,3.9406,3.9406,3.9406,3.9406,3.9406,3.9406,3.9406,3.9406,3.9406,3.9406,3.9406,3.9406,3.9406,3.9406,3.9406,3.9005,3.8409,3.8409,3.7973,3.7387,3.7387,3.7387,3.7387,3.7387,0.0,0.0,0.0,0.0,0.0,0.0,0.0,0.0,0.0,0.0,0.0,0.0,0.0,0.0,0.0,0.0,0.0,0.0,0.0,0.0,0.0,0.0,0.0,0.0,3.8623,3.871,3.8957,3.9117,3.9291,3.9552,4.0379,4.1091,4.1482,4.2353,4.3036,4.3384,4.4255,4.4814,4.4814,4.5642,4.6295,4.6687,4.7042,4.7404,4.7805,4.8043,4.7946,4.7501,4.7759,4.7631,4.7162,4.7162,4.6802,0.0,4.6403,4.5749,4.4568,4.5251,4.4974,0.0,0.0,0.0,0.0,0.0,4.0684,4.0107,0.0,0.0,0.0,0.0,0.0,0.0,0.0,3.4401,3.4469,3.4596,3.4607,3.5118,3.6458,3.7136,3.7769,3.8447,3.9043,3.8819,3.749,3.6971,3.7227,3.8365,3.8467,3.8796,3.9391,3.9406,3.9406,3.9406,3.9406,3.9406,3.9406,3.9406,3.9406,3.9406,3.9406,3.9406,3.9406,3.9406,3.9406,3.9406,3.9406,3.9032,3.8497,3.8497,3.8138,3.7612,3.7594,3.7612,3.7612,3.7577,0.0,0.0,0.0,0.0,0.0,0.0,0.0,0.0,0.0,0.0,0.0,0.0,0.0,0.0,0.0,0.0,0.0,0.0,0.0,0.0,0.0,0.0,0.0,0.0,3.9262,3.9538,4.0234,3.9857,3.9726,4.0263,4.1497,4.2339,4.2411,4.35,4.424,4.4313,4.5416,4.6075,4.5925,0.0,0.0,0.0,0.0,4.7758,4.7639,4.8163,4.7936,4.7007,4.7553,4.728,4.6307,4.6307,4.6228,4.6071,4.5248,4.4724,4.452,4.4656,4.4261,4.3554,4.3088,4.2827,4.2592,4.1638,4.1315,0.0,0.0,0.0,0.0,0.0,0.0,0.0,0.0,3.5124,3.5141,3.5285,3.531,3.5805,3.708,3.7332,3.7901,3.9098,3.8848,3.8269,3.7451,3.7793,3.814,3.8395,3.8931,3.9272,3.9406,3.9406,3.9406,3.9406,3.9406,3.9406,3.9406,3.9406,3.9406,3.9406,3.9406,3.9406,3.9406,3.9406,3.9406,3.9406,3.9406,3.9316,3.9212,3.9212,3.9122,3.8985,3.8826,3.8877,3.8949,3.8646,3.8807,3.9089,3.8769,0.0,0.0,0.0,0.0,0.0,0.0,0.0,0.0,0.0,0.0,0.0,0.0,0.0,0.0,0.0,0.0,0.0,0.0,0.0,0.0,3.9175,3.961,4.0336,4.1541,4.1613,4.1584,4.17,4.2847,4.3819,4.432,4.5053,4.5721,4.6221,4.6983,4.7025,4.6114,4.7635,0.0,4.591,4.7214,4.753,4.66,4.6698,4.665,4.6456,0.0,0.0,4.6307,4.6307,4.5833,4.5034,4.5714,4.498,4.3406,4.4302,4.4074,4.3112,4.2967,4.2368,4.1597,4.1395,4.1315,4.1315,0.0,0.0,0.0,0.0,0.0,0.0,0.0,3.541,3.542,3.5492,3.5504,3.5874,3.685,3.725,3.7705,3.8338,3.809,3.7764,3.7417,3.8018,3.8542,3.8901,3.9212,3.9406,3.9406,3.9406,3.9406,3.9406,3.9406,3.9406,3.9406,3.9406,3.9406,3.9406,3.9406,3.9406,3.9406,3.9406,3.9406,3.9406,3.9406,3.9406,3.9406,3.9406,3.9406,3.9388,3.9283,3.9301,3.9355,3.9159,3.9104,3.9068,3.887,3.8797,3.8756,0.0,0.0,0.0,0.0,0.0,0.0,0.0,0.0,0.0,0.0,0.0,0.0,0.0,0.0,3.8696,0.0,0.0,3.9871,4.0539,4.0902,4.1555,4.2861,4.3297,4.3384,4.3079,4.4168,4.5053,4.538,4.628,4.6969,4.7288,4.7898,4.7765,4.6655,4.7705,4.7583,4.5911,4.6703,4.6893,4.6307,4.6307,4.6018,4.5502,4.5502,4.5208,4.4657,4.4657,4.4371,4.3878,4.4426,4.4029,4.303,4.3615,4.3504,4.3007,4.2949,4.2624,4.2158,4.2158,4.2158,4.2158,0.0,0.0,0.0,0.0,0.0,0.0,0.0,0.0,0.0,3.5521,3.5603,3.589,3.645,3.6977,3.7274,3.7231,3.7464,3.7539,3.7402,3.8153,3.8841,3.9376,3.9406,3.9406,3.9406,3.9406,3.9406,3.9406,3.9406,3.9406,3.9406,3.9406,3.9406,3.9406,3.9406,3.9406,3.9406,3.9406,3.9406,3.9406,3.9406,3.9388,3.9337,3.9337,3.9337,3.9337,3.9301,3.9283,3.9265,3.9192,3.9013,3.8797,3.8708,3.8594,3.846,3.8258,3.8296,0.0,0.0,0.0,0.0,0.0,0.0,0.0,0.0,0.0,3.8391,3.8391,3.8913,3.9378,3.9378,3.9987,4.0844,4.1918,4.231,4.2861,4.4008,4.4712,4.4951,4.4589,4.5445,4.6127,4.6266,4.7288,4.7885,4.7696,4.8225,4.7997,4.6687,4.7286,4.7048,4.5701,4.586,4.5886,4.5648,4.5648,4.5235,4.4357,4.4357,4.3878,4.3002,4.3002,4.3002,4.3002,4.3002,4.3002,4.3002,4.3002,4.3002,4.3002,4.3002,4.3002,4.3002,4.3002,4.3002,4.3002,0.0,0.0,0.0,0.0,0.0,0.0,0.0,0.0,0.0,3.5569,3.5973,3.6344,3.65,3.656,3.6607,3.6598,3.7646,3.8033,3.7449,3.8584,3.9316,3.9406,3.9406,3.9406,3.9406,3.9406,3.9406,3.9406,3.9406,3.9406,3.9406,3.9406,3.9406,3.9406,3.9406,3.9406,3.9406,3.9406,3.9406,3.9406,3.9406,3.9283,3.9123,3.9123,3.9123,3.9104,3.8925,3.887,3.8815,3.8464,3.8538,3.8727,3.8389,3.8371,3.846,3.8258,0.0,3.8221,3.8202,3.8202,3.8202,3.8202,3.8202,3.8202,0.0,0.0,3.9088,3.9088,3.9567,4.0002,4.0002,4.1033,4.1918,4.2078,4.305,4.4008,4.469,4.538,4.5953,4.6424,4.6612,4.6917,4.7529,4.8203,4.8211,4.7257,4.7736,4.7157,4.5076,4.5938,4.5515,4.3421,4.4357,4.4384,4.3366,4.3366,4.3323,4.3197,4.3197,4.3113,4.3002,4.3002,4.3002,4.3002,4.3002,4.3002,4.3002,4.3002,4.3002,4.3002,4.3002,4.3002,4.3002,4.3002,4.3002,4.3002,0.0,0.0,0.0,0.0,0.0,0.0,0.0,0.0,0.0,0.0,3.5717,3.5887,3.5911,3.5908,3.5908,3.5908,3.709,3.7704,3.7419,3.8658,3.9406,3.9406,3.9406,3.9406,3.9406,3.9406,3.9406,3.9406,3.9406,3.9406,3.9406,3.9406,3.9406,3.9406,3.9406,3.9406,3.9406,3.9406,3.9406,3.9388,3.9265,3.9177,3.9086,3.8962,3.8852,3.8756,3.8797,3.88,0.0,3.8612,3.8575,3.8608,3.8441,3.8348,3.8296,3.8221,3.8202,0.0,3.8202,3.8202,3.8202,0.0,3.8492,3.8783,3.8783,3.9276,3.9726,3.9726,4.0234,4.08,4.1192,4.2005,4.2861,0.0,4.4189,4.4864,4.588,4.6258,4.6564,4.6928,4.6956,4.7094,4.7374,4.7934,4.7842,4.6714,4.6871,4.6347,4.4778,4.5114,4.4643,4.3058,4.3449,4.3489,4.3002,4.3002,4.3002,4.3002,4.3002,4.3002,4.3002,4.3002,4.3002,4.3002,4.3002,4.3002,4.3002,4.3002,4.3002,4.3002,4.3002,4.3002,4.3002,4.3002,4.3002,4.3002,0.0,0.0,0.0,0.0,0.0,0.0,0.0,0.0,0.0,0.0,0.0,0.0,0.0,3.5504,3.5504,3.5504,3.6655,3.7387,3.7387,3.8658,3.9406,3.9406,3.9406,3.9406,3.9406,3.9406,3.9406,3.9406,3.9406,3.9406,3.9406,3.9406,3.9406,3.9406,3.9406,3.9406,3.9406,3.9406,3.9355,3.9301,3.9159,3.9031,3.8922,3.8778,3.8594,3.8441,3.8649,3.8686,3.8634,3.8634,3.8538,3.8422,3.8422,3.8315,3.8202,3.8202,3.8202,3.8159,3.7999,3.8217,0.0,3.8478,3.8971,3.945,3.945,3.9929,4.0379,4.0379,4.1033,4.1758,4.2252,4.2992,4.3841,4.4756,4.5184,4.5623,4.6264,4.6672,4.6823,4.6634,4.6785,4.677,4.6452,4.7107,4.7074,4.5939,4.586,4.5369,4.4275,4.4221,4.385,4.3042,4.3002,4.3002,4.3002,4.3002,4.3002,4.3002,4.3002,4.309,4.324,4.3363,4.3426,4.3426,4.3426,4.3426,4.3426,4.3426,4.3426,4.3413,4.3291,4.3212,4.3215,4.3065,4.3002,4.3002,0.0,0.0,0.0,0.0,0.0,0.0,0.0,0.0,0.0,0.0,0.0,0.0,0.0,3.5504,3.5504,3.5504,3.6655,3.7387,3.7387,3.8658,3.9406,3.9406,3.9406,3.9406,3.9406,3.9406,3.9406,3.9406,3.9406,3.9406,3.9406,3.9406,3.9406,3.9406,3.9406,3.9406,3.9406,3.9406,3.9283,3.9104,3.9104,3.8867,3.8516,3.8497,3.8371,3.824,3.8441,3.8371,3.8221,3.8221,3.8221,3.8202,3.8202,3.8202,0.0,3.8202,3.8202,3.8072,3.7491,0.0,3.9175,3.9175,3.9625,4.0075,4.0075,4.0583,4.1062,4.1062,4.2063,4.2955,4.2963,4.4001,4.4857,4.4901,4.5953,4.6397,4.5387,4.6293,4.6679,4.5566,4.5979,4.5912,0.0,4.5728,4.5926,4.4832,4.4751,4.4248,4.3113,4.3058,4.303,4.3002,4.3002,4.3002,4.3002,4.3002,4.3002,4.3002,4.3002,4.3263,4.379,4.4301,4.4539,4.4539,4.4539,4.4539,4.4539,4.4539,4.4539,4.4489,4.3978,4.3777,4.3714,4.3203,4.3002,4.3002,0.0,0.0,0.0,0.0,0.0,0.0,0.0,0.0,0.0,0.0,0.0,0.0,0.0,0.0,0.0,0.0,3.6655,3.7387,3.7387,3.8658,3.9406,3.9406,3.9406,3.9406,3.9406,3.9406,3.9406,3.9406,3.9406,3.9406,3.9406,3.9406,3.9406,3.9406,3.9406,3.9319,3.9195,3.9195,3.9086,3.8889,3.8756,3.8627,3.8478,3.8348,3.8258,3.8202,0.0,3.8258,3.8202,3.8202,3.8202,3.8202,3.8202,3.8202,3.8289,3.8739,3.826,3.7839,3.887,0.0,3.9305,3.9697,4.0278,4.0757,4.0757,4.1279,4.1874,4.2266,4.2687,4.3274,4.4095,4.4625,4.5169,4.6003,4.6525,4.6704,4.65,4.6817,4.6558,4.5116,4.5103,0.0,0.0,0.0,0.0,4.367,4.356,4.3406,4.303,4.3002,4.3002,4.3002,4.3002,4.3002,4.3002,4.3338,4.3526,4.3526,4.389,4.4166,4.4355,4.4514,4.4589,4.4589,4.4589,4.4589,4.4589,4.4589,4.4589,4.4577,4.4389,4.4313,4.4301,4.4141,4.4066,4.3966,0.0,0.0,0.0,0.0,0.0,0.0,0.0,0.0,0.0,0.0,0.0,0.0,0.0,0.0,0.0,0.0,0.0,3.7509,3.7749,3.8778,3.9406,3.9406,3.9406,3.9406,3.9406,3.9406,3.9406,3.9406,3.9406,3.9406,3.9406,3.9319,3.9283,3.9283,3.9228,3.9104,3.898,3.898,3.887,3.8686,3.8553,3.846,3.8385,3.824,3.8202,0.0,3.8202,3.8202,3.8202,3.8202,3.8202,3.8202,3.8202,3.8202,3.8246,3.8463,3.826,3.8202,3.916,3.9654,3.9973,4.0365,4.096,4.1453,4.1453,4.1961,4.2469,4.2629,4.3195,4.387,4.448,4.4959,4.559,4.6627,4.7004,4.6989,4.6542,4.6675,4.6145,4.4318,4.4097,4.3795,0.0,0.0,0.0,4.3058,4.3002,4.3002,4.3002,4.3002,4.3002,4.3002,4.3002,4.3102,4.3291,4.3627,4.3903,4.4104,4.4669,4.4932,4.4945,4.5104,4.5192,4.5192,4.5192,4.5192,4.5192,4.5192,4.5192,4.5179,4.5008,4.4932,4.4907,4.4677,4.4589,4.4489,0.0,0.0,0.0,0.0,0.0,0.0,0.0,0.0,0.0,0.0,0.0,0.0,0.0,0.0,0.0,0.0,0.0,0.0,3.8365,3.9035,3.9406,3.9406,3.9406,3.9406,3.9406,3.9406,3.9406,3.9406,3.9406,3.9406,3.9406,3.9177,3.9104,3.9086,3.8889,3.8782,3.8782,3.8782,3.8668,3.8478,3.8478,3.8366,3.8202,3.8202,3.8202,3.8202,3.8202,3.8202,3.8202,3.8202,3.8202,3.8202,3.8202,3.8188,3.8072,3.7593,3.826,3.9044,3.8536,3.9712,4.1105,4.1134,4.1628,4.2107,4.2136,4.2557,4.2818,4.2339,4.3652,4.4712,0.0,0.0,4.603,4.6674,4.7259,4.7099,4.5576,4.5876,4.5422,0.0,0.0,0.0,0.0,0.0,0.0,4.3002,0.0,4.3002,4.3002,4.3002,4.3002,4.3002,4.3027,4.3303,4.379,4.3865,4.4166,4.469,4.5271,4.5535,4.5547,4.6075,4.6313,4.6313,4.6313,4.6313,4.6313,4.6313,4.6313,4.6263,4.5736,4.5535,4.546,4.489,4.4677,4.4677,0.0,0.0,0.0,0.0,0.0,0.0,0.0,0.0,0.0,0.0,0.0,0.0,0.0,0.0,0.0,0.0,0.0,0.0,3.8365,3.9035,3.9406,3.9406,3.9406,3.9406,3.9406,3.9406,3.9406,3.9406,3.9406,3.9406,3.9406,3.9177,3.9104,3.9086,3.8889,3.8723,3.859,3.859,3.8464,3.8277,3.8277,3.824,3.8202,3.8202,3.8202,3.8202,3.8202,3.8202,3.8202,3.8202,3.8202,3.8202,3.8202,3.7897,3.7781,3.903,3.8942,3.8841,4.0612,4.1091,4.1221,4.1715,4.1976,4.2208,4.2658,4.2528,4.2673,4.3942,4.4218,4.4458,0.0,0.0,0.0,4.6119,4.5773,0.0,4.4944,4.4995,0.0,4.3169,0.0,4.3002,4.3002,4.3002,0.0,0.0,4.3002,4.3002,4.3002,4.3002,4.3002,4.3002,4.3404,4.3664,4.3802,4.4631,4.5334,4.5886,4.6024,4.61,4.61,4.625,4.6313,4.6313,4.6313,4.6313,4.6313,4.6313,4.6313,4.6301,4.615,4.61,4.6087,4.5937,4.5886,4.5886,0.0,0.0,0.0,0.0,0.0,0.0,0.0,0.0,0.0,0.0,0.0,0.0,0.0,0.0,0.0,0.0,0.0,0.0,0.0,3.9182,3.9406,3.9406,3.9406,3.9406,3.9406,3.9406,3.9406,3.9406,3.9301,3.9265,3.9265,3.8977,3.883,3.883,3.8631,3.8482,3.8366,3.8366,3.8296,0.0,0.0,3.8202,3.8202,3.8202,3.8202,3.8202,3.8202,3.8202,3.8202,3.8202,0.0,3.8202,3.8202,3.8173,3.8347,3.9392,0.0,3.9784,4.1265,4.1599,4.1628,4.2005,4.2295,4.2513,4.2586,4.2774,4.3065,4.3558,4.4073,0.0,4.4966,0.0,0.0,0.0,0.0,0.0,4.4701,4.471,4.4288,0.0,4.3002,0.0,4.3002,4.3002,4.3002,0.0,4.3002,4.3002,4.3002,4.3212,4.3338,4.3338,4.3878,4.4279,4.4531,4.5409,4.5999,4.6313,4.6313,4.6313,4.6313,4.6313,4.6313,4.6313,0.0,4.6313,4.6313,4.6313,4.6313,4.6313,4.6313,4.6313,4.6313,4.6313,4.6313,4.6313,0.0,0.0,0.0,0.0,0.0,0.0,0.0,0.0,0.0,0.0,0.0,0.0,0.0,0.0,0.0,0.0,0.0,0.0,0.0,0.0,3.9406,3.9406,3.9406,3.9406,3.9406,3.9406,3.9406,3.9406,3.9228,3.9123,3.9086,3.8719,3.8516,3.8478,3.8277,3.8202,3.8202,3.8202,3.8202,3.8202,3.8202,3.8202,3.8202,0.0,0.0,3.8202,3.8202,3.8202,3.8202,3.8202,3.8202,3.8202,3.8202,3.8667,3.9218,3.9305,4.0162,4.112,4.1207,4.1657,4.2092,4.2092,4.2542,4.2861,4.2339,4.3065,4.3573,4.2557,0.0,4.4654,4.4197,4.4205,4.4635,4.5685,0.0,4.4402,4.4459,4.4466,4.4097,4.3113,4.3002,4.3002,4.3002,4.3002,4.3039,4.3115,4.3115,4.3115,4.3115,4.3614,4.394,4.4016,4.4493,4.5008,4.5598,4.6075,4.6313,4.6313,4.6313,4.6313,4.6313,4.6313,4.6313,4.6313,0.0,0.0,4.6313,4.6313,4.6313,4.6313,4.6313,4.6313,4.6313,4.6313,4.6313,4.6313,0.0,0.0,0.0,0.0,0.0,0.0,0.0,0.0,0.0,0.0,0.0,0.0,0.0,0.0,0.0,0.0,0.0,0.0,0.0,0.0,0.0,3.9406,3.9406,3.9406,3.9406,3.9406,3.9406,3.9406,3.9355,3.9265,3.9086,3.887,3.8649,3.8478,3.8277,3.8202,3.8202,3.8202,3.8202,3.8202,3.8202,3.8202,3.8202,3.8202,0.0,0.0,3.8202,3.8202,3.8202,3.8202,3.8202,3.8202,3.8202,3.8667,3.9305,3.9799,4.0481,4.1221,4.1773,4.2005,4.2092,4.2092,4.2542,4.2963,4.2861,4.3007,0.0,0.0,4.3921,4.4269,4.4661,4.4513,4.4399,4.4641,4.3834,4.3218,4.3297,4.3295,4.3212,0.0,0.0,0.0,0.0,0.0,0.0,0.0,0.0,4.3664,4.3664,4.4179,4.4706,4.5183,4.5296,4.561,4.6163,4.6263,4.6313,4.6313,4.6313,4.6313,4.6313,4.6313,4.6313,4.6313,0.0,0.0,4.6313,4.6313,4.6313,4.6313,4.6313,4.6313,4.6313,4.6313,4.6313,4.6313,0.0,0.0,0.0,0.0,0.0,0.0,0.0,0.0,0.0,0.0,3.8592,3.8807,0.0,0.0,0.0,0.0,0.0,0.0,0.0,0.0,0.0,0.0,0.0,0.0,3.9406,3.9406,3.9406,3.9406,0.0,3.905,3.8943,3.8616,3.8445,3.8348,3.824,3.8202,3.8202,3.8202,3.8202,3.8202,3.8202,3.8202,0.0,0.0,0.0,0.0,0.0,3.8202,3.8202,3.8202,3.8202,3.8202,3.8202,3.8884,3.9654,3.9639,4.0583,4.1613,4.1584,4.1831,4.2092,4.2092,4.2542,4.2919,4.26,0.0,0.0,0.0,4.3253,4.366,4.4298,4.3655,0.0,4.388,4.2917,4.2185,4.2544,4.2826,0.0,4.3002,0.0,0.0,0.0,0.0,0.0,0.0,0.0,4.4543,4.4242,4.4769,4.5334,4.5899,4.5912,4.6037,4.6313,4.6313,4.6313,4.6313,4.6313,4.6313,4.6313,4.6313,4.6313,4.6313,4.6313,0.0,4.6313,4.6313,4.6313,4.6313,4.6313,4.6313,4.6313,4.6313,4.6313,4.6313,0.0,0.0,0.0,0.0,0.0,0.0,0.0,3.9614,3.915,3.8377,3.954,3.983,3.8247,3.8392,0.0,0.0,0.0,0.0,0.0,0.0,0.0,0.0,0.0,0.0,0.0,0.0,0.0,3.9406,3.905,0.0,0.0,0.0,0.0,0.0,3.8202,3.8202,3.8202,3.8202,3.8202,0.0,0.0,3.8202,0.0,0.0,0.0,0.0,0.0,3.8202,3.8202,3.8202,3.8202,3.8202,3.8202,3.8986,3.9842,3.9494,4.0583,4.1802,4.1424,4.17,4.2092,4.2092,4.2542,4.2832,4.2237,4.2557,0.0,4.2223,4.2571,4.3117,4.3589,4.2842,4.2382,0.0,4.2359,4.176,4.2152,4.2663,4.3002,0.0,4.3002,0.0,0.0,0.0,0.0,0.0,0.0,0.0,4.4978,4.5422,4.5861,4.6301,4.6313,4.6313,4.6313,4.6313,4.6313,4.6313,4.6313,4.6313,4.6313,4.6313,4.6313,4.6313,4.6313,0.0,0.0,4.6313,4.6313,4.6313,4.6313,4.6313,4.6313,4.6313,4.612,4.5866,0.0,0.0,0.0,0.0,0.0,0.0,0.0,4.0275,3.9887,4.0993,4.075,4.0423,4.024,3.967,0.0,0.0,0.0,0.0,0.0,0.0,0.0,0.0,0.0,0.0,0.0,0.0,0.0,3.9406,3.9177,0.0,0.0,0.0,0.0,0.0,0.0,3.8202,3.8202,3.8202,0.0,0.0,0.0,0.0,0.0,0.0,0.0,0.0,0.0,3.8202,3.8202,3.8202,0.0,3.8202,3.8202,3.8696,3.9378,3.9871,0.0,0.0,4.186,4.2049,4.2092,4.2092,4.2542,4.2832,4.2237,0.0,4.2818,4.2223,4.2571,4.2911,4.2596,4.2932,0.0,0.0,0.0,4.2614,4.2261,4.2663,4.3002,4.3002,0.0,0.0,0.0,0.0,0.0,0.0,0.0,0.0,4.6163,4.62,4.6263,4.6313,4.6313,4.6313,4.6313,4.6313,4.6313,4.6313,4.6313,4.6313,4.6313,4.6313,4.6313,4.6313,0.0,0.0,0.0,4.6313,4.6313,4.6313,4.6313,4.6313,4.6313,4.6313,4.5537,4.4466,0.0,0.0,0.0,0.0,0.0,0.0,0.0,4.1049,4.0763,4.0877,4.1025,4.0788,3.9932,3.9589,3.9406,0.0,0.0,0.0,0.0,0.0,0.0,0.0,0.0,0.0,0.0,0.0,0.0,3.9406,3.9086,0.0,0.0,0.0,0.0,0.0,0.0,3.8202,3.8202,3.8202,0.0,0.0,0.0,0.0,0.0,0.0,0.0,0.0,0.0,0.0,3.8202,3.8202,3.8202,0.0,3.8202,3.8376,3.8652,0.0,3.9973,4.1062,4.0931,4.1482,4.2092,4.2092,4.2542,4.2832,4.2237,0.0,4.2818,4.2223,4.182,4.1724,4.2289,4.164,4.1127,4.1514,4.1763,4.1874,4.1685,4.2421,4.3002,4.3002,4.3002,0.0,0.0,0.0,0.0,0.0,0.0,0.0,4.6313,4.6313,4.6313,4.6313,4.6313,4.6313,4.6313,4.6313,4.6313,4.6313,4.6313,4.6313,4.6313,4.6313,4.6313,4.6313,0.0,0.0,0.0,4.6313,4.6313,4.6223,4.5403,4.5086,4.4994,4.4127,4.3482,4.3032,0.0,0.0,0.0,0.0,0.0,0.0,4.1819,4.164,4.141,4.1144,4.1176,4.0822,3.9826,3.9535,3.9406,3.9406,0.0,0.0,0.0,0.0,0.0,0.0,0.0,0.0,0.0,0.0,0.0,3.9406,3.9068,3.887,0.0,0.0,3.8258,3.8202,0.0,0.0,0.0,0.0,0.0,0.0,0.0,0.0,0.0,0.0,0.0,0.0,0.0,0.0,0.0,0.0,0.0,3.797,3.8144,3.8086,3.8014,3.8391,3.9465,4.0525,4.0423,4.1091,4.1784,4.1673,4.2195,4.2537,0.0,0.0,4.26,4.2179,4.1296,4.0875,4.1786,4.0555,3.9691,4.06,4.1061,4.1315,4.1315,4.2283,4.3002,0.0,0.0,0.0,0.0,0.0,0.0,0.0,0.0,0.0,0.0,4.6313,4.6313,4.6313,4.6313,4.6313,4.6313,4.6313,4.6313,4.6313,4.6313,4.6313,4.6313,4.6313,4.6313,4.6313,0.0,0.0,0.0,4.5866,4.5702,4.5568,4.422,4.3669,4.3544,4.256,4.1959,4.1608,0.0,0.0,0.0,0.0,0.0,0.0,0.0,4.1965,4.1754,4.2475,4.1376,4.0495,4.0495,3.9826,3.9406,3.9406,0.0,0.0,0.0,0.0,0.0,0.0,0.0,0.0,0.0,0.0,0.0,3.9406,3.9195,3.8998,3.8797,3.859,3.8385,3.8202,0.0,0.0,0.0,0.0,0.0,0.0,0.0,0.0,0.0,0.0,0.0,0.0,0.0,0.0,0.0,0.0,0.0,0.0,0.0,3.7796,3.7564,3.8826,3.9204,3.9494,4.0742,4.1091,4.1033,4.0696,4.1374,4.185,4.0831,4.1395,4.2107,4.2092,4.1296,4.0665,4.089,4.0089,3.9461,3.9676,4.0626,4.1315,4.1315,4.2283,4.3002,0.0,0.0,0.0,0.0,0.0,0.0,0.0,0.0,0.0,0.0,4.6313,4.6313,4.6313,4.6313,4.6313,4.6313,4.6313,4.6313,4.6313,4.6313,4.6313,4.6313,4.6313,4.6313,0.0,0.0,0.0,0.0,4.4859,4.4312,4.4189,4.2781,4.2201,4.2213,4.2213,4.1364,4.0235,0.0,0.0,0.0,0.0,0.0,0.0,0.0,4.1965,4.1575,4.1819,4.1058,4.032,3.9791,3.9535,3.9406,3.9406,0.0,0.0,0.0,0.0,0.0,0.0,0.0,0.0,0.0,0.0,0.0,0.0,0.0,3.887,3.8782,3.8445,3.8258,3.8202,3.8202,0.0,0.0,0.0,0.0,0.0,0.0,0.0,0.0,0.0,0.0,0.0,0.0,0.0,0.0,0.0,0.0,0.0,0.0,0.0,0.0,3.8275,3.8841,3.9378,4.0191,4.0742,4.1189,4.1537,4.2159,4.2523,4.1782,4.2195,4.2403,4.1304,4.0303,3.9697,3.9863,3.9099,3.8726,3.956,4.06,4.1315,0.0,0.0,0.0,4.3002,0.0,0.0,0.0,0.0,0.0,0.0,0.0,0.0,0.0,4.6313,4.6313,4.6313,4.6313,4.6313,4.6313,4.6313,4.6313,4.6313,4.6313,4.6313,4.6313,4.6313,0.0,0.0,0.0,0.0,0.0,4.4859,4.4312,4.4065,4.1747,4.0828,4.0732,3.979,3.9199,3.8814,0.0,0.0,0.0,0.0,0.0,0.0,0.0,4.1965,4.1509,4.1509,4.0668,3.9915,3.9445,3.9406,3.9406,3.9406,0.0,0.0,0.0,0.0,0.0,0.0,0.0,0.0,0.0,0.0,0.0,0.0,0.0,0.0,0.0,0.0,3.8258,3.8202,3.8202,0.0,0.0,0.0,0.0,0.0,0.0,0.0,3.8202,0.0,0.0,0.0,0.0,0.0,0.0,0.0,0.0,0.0,0.0,0.0,0.0,0.0,3.8318,3.9015,3.9871,4.0394,4.085,4.1403,4.2088,0.0,4.1248,4.1857,4.2177,4.0416,3.9615,3.9249,3.9378,3.8627,3.8379,3.9509,4.06,0.0,0.0,0.0,0.0,4.3002,0.0,0.0,0.0,0.0,0.0,0.0,0.0,0.0,0.0,0.0,4.6313,4.6313,4.6313,4.6313,4.6313,4.6313,4.6313,4.6313,4.6313,4.6313,4.6313,4.6313,0.0,0.0,0.0,0.0,0.0,4.3525,4.2761,4.254,4.03,3.9451,3.9353,3.8503,3.8181,3.8181,0.0,0.0,0.0,0.0,0.0,0.0,0.0,0.0,0.0,0.0,4.027,3.9406,3.9406,3.9406,3.9406,0.0,0.0,0.0,0.0,0.0,0.0,0.0,0.0,0.0,0.0,0.0,0.0,3.9104,3.8889,3.8686,3.8497,0.0,0.0,3.8202,3.8202,0.0,0.0,0.0,0.0,0.0,0.0,0.0,0.0,0.0,0.0,0.0,0.0,0.0,0.0,0.0,0.0,0.0,0.0,0.0,0.0,0.0,0.0,0.0,0.0,4.006,4.018,4.0548,4.1373,4.1627,3.9818,4.0809,0.0,3.9607,3.9237,3.928,3.9296,3.8603,3.8417,3.9521,4.06,0.0,0.0,4.2283,0.0,0.0,0.0,0.0,0.0,0.0,0.0,0.0,0.0,0.0,0.0,0.0,4.6313,4.6313,4.6313,4.6313,4.6313,4.6313,4.6313,4.6313,4.6313,4.6313,4.6313,4.6313,0.0,0.0,0.0,0.0,0.0,4.1343,4.0203,4.0073,3.8725,3.8181,3.8181,3.8181,3.8181,3.8181,0.0,0.0,0.0,0.0,0.0,0.0,0.0,0.0,0.0,0.0,0.0,3.9406,3.9406,3.9406,0.0,0.0,0.0,0.0,0.0,0.0,0.0,0.0,0.0,0.0,0.0,0.0,0.0,3.9104,3.8738,3.8553,3.8497,3.8348,0.0,0.0,0.0,0.0,0.0,0.0,0.0,0.0,0.0,0.0,0.0,0.0,0.0,0.0,3.8202,3.8202,0.0,0.0,0.0,0.0,0.0,0.0,0.0,0.0,3.7738,3.8376,3.9189,0.0,4.0253,4.0827,4.1557,4.1989,0.0,4.1773,4.1549,3.9607,3.9518,3.9513,3.8499,3.8528,3.8919,3.9584,0.0,0.0,4.1315,0.0,0.0,0.0,0.0,0.0,0.0,0.0,0.0,0.0,0.0,0.0,0.0,0.0,4.6313,4.6313,4.6313,4.6313,4.6313,4.6313,4.6313,4.6313,4.6313,4.6313,4.6313,4.6313,0.0,0.0,0.0,0.0,4.4096,4.1343,4.0203,4.0073,3.8725,3.8181,3.8181,3.8181,3.8181,3.8181,0.0,0.0,0.0,0.0,0.0,0.0,0.0,0.0,0.0,0.0,0.0,0.0,0.0,0.0,0.0,0.0,0.0,0.0,0.0,0.0,0.0,0.0,0.0,0.0,0.0,0.0,0.0,0.0,0.0,3.8497,0.0,0.0,0.0,0.0,0.0,0.0,0.0,0.0,0.0,0.0,3.8202,0.0,0.0,0.0,0.0,0.0,3.8202,3.8202,0.0,3.7883,3.7128,3.633,0.0,0.0,0.0,0.0,3.7491,3.8275,3.8638,3.9407,4.0249,4.0931,4.1599,4.187,4.0958,4.1107,4.0752,3.8405,3.8687,3.9073,3.8159,3.8479,3.9158,0.0,4.0763,0.0,0.0,0.0,0.0,0.0,0.0,0.0,0.0,0.0,0.0,0.0,0.0,0.0,0.0,4.6313,4.6313,4.6313,4.6313,4.6313,4.6313,4.6313,4.6313,4.6313,4.6313,4.6313,4.6313,4.6313,0.0,0.0,0.0,0.0,4.2256,4.0138,3.9287,3.9221,3.847,3.8181,3.8181,3.8181,3.8181,3.8181,0.0,0.0,0.0,0.0,0.0,0.0,0.0,0.0,0.0,0.0,0.0,0.0,0.0,0.0,0.0,0.0,0.0,0.0,0.0,0.0,0.0,0.0,0.0,0.0,3.9406,3.9195,0.0,0.0,0.0,0.0,0.0,0.0,3.8202,0.0,0.0,0.0,0.0,0.0,0.0,0.0,3.8202,0.0,0.0,0.0,0.0,0.0,0.0,0.0,0.0,3.7506,3.6849,3.6199,3.5595,0.0,0.0,0.0,0.0,0.0,3.8202,3.9035,4.0061,4.076,4.1526,4.1627,3.9826,4.0029,3.9847,3.7278,3.7801,3.8592,3.82,3.8705,0.0,0.0,0.0,0.0,0.0,0.0,0.0,0.0,0.0,0.0,0.0,0.0,0.0,0.0,0.0,0.0,0.0,4.6313,0.0,4.6313,4.6313,4.6313,4.6313,4.6313,4.6313,4.6313,4.6313,4.6313,4.6271,4.609,4.5373,0.0,0.0,0.0,4.0105,3.8758,3.8181,3.8181,3.8181,3.8181,3.8181,3.8181,3.8181,3.8181,0.0,0.0,0.0,0.0,0.0,0.0,0.0,0.0,0.0,0.0,0.0,0.0,0.0,0.0,0.0,0.0,0.0,0.0,0.0,0.0,0.0,0.0,0.0,3.9406,3.9406,3.9195,3.9017,3.8852,3.8612,0.0,3.824,3.8202,3.8202,3.8202,0.0,0.0,0.0,0.0,0.0,0.0,0.0,0.0,0.0,0.0,0.0,0.0,0.0,0.0,0.0,3.7506,3.6849,3.6199,3.5595,0.0,0.0,0.0,0.0,0.0,3.8202,3.856,3.913,4.0041,4.1178,4.1793,4.066,4.0504,4.016,3.8585,3.8806,3.9162,3.8818,3.9572,4.0325,0.0,0.0,0.0,0.0,0.0,0.0,0.0,0.0,0.0,0.0,0.0,0.0,0.0,0.0,0.0,0.0,0.0,4.6313,4.6313,4.6313,4.6313,4.6313,4.6313,4.6313,4.6313,4.6313,4.6313,4.6253,4.5117,4.4497,0.0,0.0,4.0387,4.0105,3.8758,3.8181,3.8181,3.8181,3.8181,3.8181,3.8181,3.8181,3.8114,0.0,0.0,0.0,0.0,0.0,0.0,0.0,0.0,0.0,0.0,0.0,0.0,0.0,0.0,0.0,0.0,0.0,0.0,0.0,0.0,0.0,0.0,3.9301,3.9247,3.9247,3.9141,3.905,3.8962,3.876,3.8612,3.8519,3.8296,3.8202,3.8202,0.0,0.0,0.0,0.0,0.0,0.0,0.0,0.0,0.0,0.0,0.0,0.0,0.0,0.0,0.0,0.0,3.6544,3.6141,3.5154,0.0,0.0,0.0,0.0,0.0,3.8202,3.8808,3.9424,3.9364,3.9948,4.0287,3.9299,3.932,3.9201,3.8078,3.8523,0.0,0.0,0.0,4.0714,4.1331,0.0,0.0,0.0,0.0,0.0,0.0,0.0,0.0,0.0,0.0,0.0,0.0,0.0,0.0,0.0,0.0,4.6313,0.0,4.6313,4.6313,4.6313,4.6313,4.6313,4.6313,4.6313,4.5926,4.5208,4.4571,4.3494,4.2002,0.0,3.979,3.9067,3.8437,3.8181,3.8181,3.8181,3.8181,3.8181,3.8181,3.8048,3.7793,0.0,0.0,0.0,0.0,0.0,0.0,0.0,0.0,0.0,0.0,0.0,0.0,0.0,0.0,0.0,0.0,0.0,0.0,0.0,0.0,3.9406,3.9406,3.9247,3.9159,3.9159,3.9123,3.9104,3.9104,3.8907,3.8745,3.8653,3.8352,3.8202,3.8202,0.0,0.0,0.0,0.0,0.0,0.0,0.0,0.0,0.0,0.0,0.0,0.0,0.0,0.0,0.0,0.0,0.0,0.0,0.0,0.0,0.0,3.6504,3.7331,3.8231,3.8391,3.9093,3.9628,3.9082,3.9218,3.9259,0.0,0.0,0.0,0.0,0.0,0.0,0.0,4.0438,0.0,0.0,0.0,0.0,0.0,0.0,0.0,0.0,0.0,0.0,0.0,0.0,0.0,0.0,0.0,0.0,0.0,0.0,4.6313,4.6313,4.6313,4.6313,4.6313,4.6313,4.6313,4.6313,4.6313,4.5762,4.4737,4.4084,4.2667,4.0635,4.0008,3.9166,3.8181,3.8181,3.8181,3.8181,3.8181,3.8181,3.8191,3.8081,3.7803,3.7415,0.0,0.0,0.0,0.0,0.0,0.0,0.0,0.0,0.0,0.0,0.0,0.0,0.0,0.0,0.0,0.0,0.0,0.0,0.0,0.0,3.9406,3.9406,3.9388,3.9388,3.9388,3.9195,3.9104,3.9104,3.8907,3.8598,3.824,3.8221,3.8202,3.8202,0.0,0.0,0.0,0.0,0.0,0.0,0.0,0.0,0.0,0.0,0.0,0.0,0.0,0.0,0.0,0.0,0.0,0.0,0.0,0.0,3.6431,3.7056,3.7694,3.8333,3.8957,3.8959,3.8924,3.9487,4.0062,4.016,3.8833,3.8561,0.0,3.8754,0.0,0.0,0.0,4.1343,4.2261,0.0,0.0,0.0,0.0,0.0,0.0,0.0,0.0,0.0,0.0,0.0,0.0,0.0,0.0,0.0,0.0,0.0,0.0,4.6313,4.6313,4.6313,4.6313,4.6313,4.6313,4.6313,4.6313,4.6253,4.609,4.3513,4.2244,4.1927,3.9408,3.8281,3.8181,3.8181,3.8181,3.8181,3.8181,3.8181,3.8148,3.7793,3.7425,3.7079,0.0,0.0,0.0,0.0,0.0,0.0,0.0,0.0,0.0,0.0,0.0,0.0,0.0,0.0,0.0,0.0,0.0,0.0,0.0,0.0,3.9406,3.9406,3.9283,3.921,3.921,3.9017,3.8907,3.8907,3.8837,3.8708,3.8575,3.846,0.0,0.0,0.0,0.0,0.0,0.0,0.0,0.0,0.0,0.0,0.0,0.0,0.0,0.0,0.0,0.0,0.0,0.0,3.616,3.5694,3.5465,3.581,3.6428,3.7114,3.7738,3.8347,3.903,3.8962,3.8856,3.9522,3.9522,3.9209,0.0,3.84,3.8343,3.8806,3.9446,0.0,0.0,0.0,0.0,0.0,0.0,0.0,0.0,0.0,0.0,0.0,0.0,0.0,0.0,0.0,0.0,0.0,0.0,0.0,0.0,0.0,0.0,4.6313,4.6313,4.6313,4.6313,4.6313,4.6313,4.6313,4.6313,4.5866,4.4994,4.3064,4.1736,4.0861,3.9001,3.8181,3.8181,3.8181,3.8181,3.8181,3.8181,3.8048,3.7803,3.7659,3.7247,3.6698,0.0,0.0,0.0,0.0,0.0,0.0,0.0,0.0,0.0,0.0,0.0,0.0,0.0,0.0,0.0,0.0,0.0,0.0,0.0,3.9406,3.9406,3.9406,3.9265,3.9177,3.9177,3.8998,3.8889,3.8889,3.8819,3.88,3.8782,3.8519,0.0,0.0,0.0,0.0,0.0,0.0,0.0,3.8422,3.8538,3.8427,0.0,0.0,0.0,0.0,0.0,0.0,0.0,0.0,3.6018,3.5436,3.5607,3.5967,3.6475,3.7346,3.7822,3.8217,3.8863,3.8811,3.872,3.938,3.906,3.864,3.8809,3.8548,3.8442,3.9044,4.0011,0.0,0.0,0.0,0.0,0.0,0.0,0.0,0.0,0.0,0.0,0.0,0.0,0.0,0.0,0.0,0.0,0.0,0.0,0.0,0.0,0.0,0.0,0.0,4.6313,4.6313,4.6313,4.6313,4.6313,4.6271,4.5866,4.519,4.4251,4.2844,4.146,4.0138,3.8781,3.8181,3.8181,3.8181,3.8181,3.8181,3.8181,3.7937,3.7582,3.7482,3.7035,3.6485,0.0,0.0,0.0,0.0,0.0,0.0,0.0,0.0,0.0,0.0,0.0,0.0,0.0,0.0,0.0,0.0,0.0,0.0,0.0,3.9406,3.9406,3.9406,3.9406,3.9406,3.9388,3.9195,3.9104,3.9104,3.8907,3.88,3.8782,3.8408,0.0,0.0,0.0,0.0,0.0,0.0,3.8575,3.824,3.8634,3.856,0.0,0.0,0.0,0.0,0.0,0.0,0.0,0.0,3.5897,3.5508,3.6112,3.6301,3.6562,3.7839,3.802,3.7952,3.8547,3.8524,3.8442,3.9061,3.8916,0.0,3.9279,3.9123,3.9057,3.9584,4.0549,4.149,4.2085,0.0,0.0,0.0,0.0,0.0,0.0,0.0,0.0,0.0,0.0,0.0,0.0,0.0,0.0,0.0,0.0,0.0,0.0,0.0,0.0,0.0,4.6313,4.6313,4.6313,4.6313,4.6271,4.6271,4.4921,4.4312,4.4251,4.2844,4.146,4.0138,3.8781,3.8181,3.8181,3.8181,3.8181,3.8181,3.8181,3.7937,3.7549,3.7213,3.6833,3.6451,0.0,0.0,0.0,0.0,0.0,0.0,0.0,0.0,0.0,0.0,0.0,0.0,0.0,0.0,0.0,0.0,0.0,0.0,0.0,3.9879,3.995,3.9409,3.9265,3.9123,3.898,3.8925,3.8962,3.9104,3.8907,3.887,3.8998,3.8889,0.0,3.8497,0.0,0.0,3.8616,3.8745,3.8815,3.8815,3.8815,3.8727,3.8616,0.0,0.0,0.0,0.0,0.0,0.0,0.0,0.0,0.0,3.6112,3.6635,3.7172,3.797,3.8476,3.8931,3.9521,3.9005,3.8725,4.0401,0.0,0.0,0.0,3.9455,0.0,0.0,4.1141,4.1997,4.2187,0.0,0.0,0.0,0.0,0.0,0.0,0.0,0.0,0.0,0.0,0.0,0.0,0.0,0.0,0.0,0.0,0.0,0.0,0.0,0.0,0.0,4.6313,4.6313,4.6313,4.6313,4.5823,4.489,4.4479,4.4312,4.422,4.1875,4.0581,4.0138,3.8781,3.8181,3.8181,3.8181,3.8181,3.8181,3.8181,3.7803,3.7247,3.7146,3.6718,3.6142,0.0,0.0,0.0,0.0,0.0,0.0,0.0,0.0,0.0,0.0,4.1965,0.0,0.0,0.0,0.0,0.0,0.0,0.0,0.0,0.0,3.9862,3.9409,3.9283,3.9159,3.905,3.8889,3.8943,3.9228,3.9017,3.9017,3.9228,0.0,3.8889,3.8738,0.0,3.887,0.0,3.8962,3.9017,3.898,3.9017,3.8943,3.88,0.0,0.0,0.0,0.0,0.0,0.0,0.0,0.0,0.0,3.6112,3.6765,3.7403,3.7897,3.822,3.849,3.8719,3.8185,3.7911,3.9409,3.8899,3.8415,4.003,0.0,0.0,0.0,0.0,4.2275,0.0,0.0,0.0,0.0,0.0,0.0,0.0,0.0,0.0,0.0,0.0,0.0,0.0,0.0,0.0,0.0,0.0,0.0,0.0,0.0,0.0,0.0,4.5861,4.5987,4.5987,4.5663,4.5086,4.4281,4.3201,4.2667,4.2603,4.0968,3.9921,3.9353,3.857,3.8181,3.8181,3.8181,3.8181,3.8181,3.8004,3.7592,3.7079,3.69,3.6515,3.5982,0.0,0.0,0.0,0.0,0.0,0.0,0.0,0.0,0.0,0.0,4.2045,4.1624,0.0,0.0,0.0,0.0,0.0,0.0,0.0,0.0,3.9463,3.9388,3.9355,3.9337,3.9355,3.8998,3.8998,3.9406,3.9177,3.9177,0.0,0.0,3.8943,3.9104,0.0,3.9017,3.8852,3.9247,3.9177,3.8889,3.9228,3.9159,3.887,3.9013,0.0,0.0,0.0,0.0,0.0,0.0,0.0,0.0,3.6199,3.6852,3.7455,3.7811,3.7703,3.7364,3.7127,3.6795,3.6674,3.7243,3.7787,0.0,4.0135,4.0537,4.07,4.1202,0.0,0.0,0.0,0.0,0.0,0.0,0.0,0.0,0.0,0.0,0.0,0.0,0.0,0.0,0.0,0.0,0.0,0.0,0.0,0.0,0.0,0.0,0.0,0.0,4.5133,4.5375,4.5295,4.4573,4.411,0.0,4.1407,4.0138,4.0018,4.0018,3.9353,3.8181,3.8181,3.8181,3.8181,3.8181,3.8181,3.8148,3.776,3.7381,3.7045,3.6654,3.6302,3.5982,0.0,0.0,0.0,0.0,0.0,0.0,0.0,0.0,0.0,0.0,0.0,0.0,0.0,0.0,0.0,0.0,0.0,0.0,0.0,0.0,3.9935,3.9195,3.8998,3.8998,3.9159,3.8925,3.8998,3.9406,3.905,3.905,0.0,0.0,0.0,3.9104,0.0,3.9228,3.905,3.9301,3.9337,3.9265,3.9177,3.921,3.9228,3.8793,3.849,0.0,0.0,0.0,0.0,0.0,0.0,0.0,3.6881,3.752,3.8121,3.8727,3.8655,3.8512,3.8948,3.8314,3.7733,3.8694,3.9115,3.9534,4.0311,4.0826,4.1177,4.129,4.212,0.0,0.0,0.0,0.0,0.0,0.0,0.0,0.0,0.0,0.0,0.0,0.0,0.0,0.0,0.0,0.0,0.0,0.0,0.0,0.0,0.0,0.0,4.4577,4.4715,4.4496,4.3844,4.368,4.2751,0.0,4.0484,3.967,3.8626,3.8626,3.847,3.8181,3.8181,3.8181,3.8181,3.8181,3.8181,3.8148,3.776,3.7381,3.7045,3.6654,3.6302,3.5982,0.0,0.0,0.0,0.0,0.0,0.0,0.0,0.0,0.0,0.0,0.0,0.0,0.0,0.0,0.0,0.0,0.0,0.0,0.0,0.0,0.0,3.9123,3.8998,3.8943,3.8962,3.8943,3.905,3.9265,3.905,0.0,0.0,0.0,0.0,3.9247,0.0,3.9337,3.9247,3.9355,3.9406,3.9388,3.9283,3.9301,3.9325,3.8618,3.8139,3.7665,3.6508,0.0,0.0,0.0,0.0,0.0,0.0,0.0,3.8296,3.8814,3.8841,3.8712,3.8757,3.8496,3.8325,3.8998,3.9436,3.991,4.07,4.1102,4.1453,4.2007,0.0,0.0,0.0,0.0,0.0,0.0,0.0,0.0,0.0,0.0,0.0,0.0,0.0,0.0,0.0,0.0,0.0,0.0,0.0,0.0,0.0,4.3413,4.3539,4.3827,4.4091,4.3734,4.2682,4.2308,4.1363,3.9853,3.9195,3.8658,3.8181,3.8181,3.8181,3.8181,3.8181,3.8181,3.8181,3.8181,3.8181,3.8148,3.7592,3.7247,3.7045,3.6471,3.6142,3.5982,0.0,0.0,0.0,0.0,0.0,0.0,0.0,0.0,0.0,0.0,0.0,0.0,0.0,0.0,0.0,0.0,0.0,0.0,0.0,0.0,0.0,0.0,3.9086,3.8998,3.8907,3.8998,3.9086,3.9141,0.0,0.0,0.0,0.0,0.0,3.9406,0.0,3.9406,3.9406,3.9406,3.9406,3.9406,3.9406,3.9313,3.9113,3.8436,0.0,3.7048,3.6296,3.5901,3.5777,3.5877,0.0,0.0,0.0,0.0,3.8442,3.8836,3.8792,3.8532,3.8149,3.8269,3.8553,3.883,3.9308,3.9986,4.1064,4.1315,4.1616,4.2788,0.0,0.0,0.0,0.0,0.0,0.0,0.0,0.0,0.0,0.0,0.0,0.0,0.0,0.0,0.0,0.0,0.0,0.0,0.0,0.0,4.3002,4.3002,4.3002,4.3002,4.3215,4.2749,4.1559,4.0667,3.9848,3.9011,3.7979,3.7736,3.8181,3.8181,3.8181,3.8181,3.8181,3.8181,3.8181,3.8114,3.8114,3.8004,3.728,3.7011,3.691,3.6253,3.5982,3.5982,0.0,0.0,0.0,0.0,0.0,0.0,0.0,0.0,0.0,0.0,4.3598,0.0,0.0,0.0,0.0,0.0,0.0,0.0,4.1129,0.0,0.0,3.9373,3.9017,3.898,3.9301,3.8998,3.8998,3.9355,0.0,0.0,0.0,0.0,0.0,3.9406,0.0,0.0,3.9406,3.9406,3.9406,3.9406,3.9406,3.8976,3.8347,0.0,0.0,0.0,0.0,3.65,3.6535,3.6943,3.7175,0.0,0.0,0.0,3.9184,3.9748,3.9163,3.845,3.8888,3.8543,3.8213,3.8756,3.9308,3.9986,0.0,0.0,4.1616,0.0,0.0,0.0,0.0,0.0,0.0,0.0,0.0,0.0,0.0,0.0,0.0,0.0,0.0,0.0,0.0,0.0,0.0,0.0,0.0,0.0,4.3002,4.3002,4.3002,4.3002,4.1997,4.1036,4.0184,3.8972,3.7943,3.7144,3.7399,3.7736,3.8181,3.8181,3.8181,3.8181,3.8181,3.8181,3.8181,3.7827,3.7693,3.7626,3.6856,3.6586,3.6519,3.6142,3.5982,3.5982,0.0,0.0,0.0,0.0,0.0,0.0,0.0,0.0,0.0,0.0,0.0,4.3598,0.0,0.0,0.0,4.2601,4.1917,4.146,4.1362,4.0255,3.9651,3.9844,3.9289,3.8998,3.9068,3.9104,3.9159,0.0,0.0,0.0,0.0,3.9406,3.9406,0.0,0.0,0.0,0.0,3.9406,3.9406,3.9361,3.8898,3.8531,0.0,0.0,0.0,0.0,0.0,0.0,0.0,3.7255,3.7535,3.7926,3.8565,0.0,0.0,0.0,3.9901,3.9133,3.9259,3.8663,3.8216,3.9107,3.9547,3.9986,4.1064,4.1315,4.1616,4.2788,0.0,0.0,0.0,0.0,0.0,0.0,0.0,0.0,0.0,0.0,0.0,0.0,0.0,0.0,0.0,0.0,0.0,0.0,0.0,4.3002,4.3002,4.3002,4.3002,4.3002,4.1769,4.0602,3.9531,3.822,3.7211,3.6432,3.7146,3.7601,3.7808,3.8067,3.8181,3.8181,3.8181,3.8181,3.8181,3.776,3.7582,3.7515,3.6789,3.6519,3.6451,3.6108,3.5982,3.5982,0.0,0.0,0.0,0.0,0.0,0.0,0.0,0.0,0.0,0.0,0.0,0.0,0.0,0.0,0.0,0.0,4.1917,4.1542,4.1656,4.043,3.9831,4.0143,3.9484,3.905,3.8943,3.9195,3.9283,0.0,0.0,0.0,3.9406,3.9406,3.9406,0.0,3.9406,3.9406,0.0,0.0,0.0,0.0,0.0,0.0,0.0,0.0,0.0,0.0,0.0,0.0,0.0,0.0,0.0,0.0,0.0,3.9421,0.0,0.0,0.0,3.9188,3.9087,3.8529,3.8278,3.9421,3.9697,3.9986,4.1064,0.0,4.1616,0.0,0.0,0.0,0.0,0.0,0.0,0.0,0.0,0.0,0.0,0.0,0.0,0.0,0.0,0.0,0.0,0.0,0.0,0.0,0.0,4.3002,4.3002,4.3002,4.2862,4.2541,4.1272,4.0007,3.8744,3.7459,3.6573,3.6121,3.6815,3.7208,3.7332,3.7798,3.8005,3.8015,3.814,3.8181,3.8148,3.7659,3.7482,3.7381,3.6664,3.636,3.6326,3.6084,3.5982,3.5982,0.0,0.0,0.0,0.0,0.0,0.0,0.0,0.0,0.0,0.0,0.0,0.0,0.0,4.238,4.1836,4.2538,4.1917,4.1656,4.2045,4.1623,4.0973,4.0049,3.9445,0.0,3.9355,3.9195,0.0,0.0,0.0,0.0,3.9406,3.9406,3.9406,3.9406,3.9406,3.9406,3.9406,0.0,0.0,0.0,0.0,0.0,0.0,0.0,0.0,0.0,0.0,0.0,0.0,0.0,0.0,0.0,0.0,0.0,0.0,0.0,0.0,0.0,3.8055,3.8027,3.8278,3.9421,3.9697,3.9986,4.1064,0.0,0.0,0.0,0.0,0.0,0.0,0.0,0.0,0.0,0.0,0.0,0.0,0.0,0.0,0.0,0.0,0.0,0.0,0.0,0.0,0.0,0.0,4.3002,4.3002,4.3002,4.2444,4.1243,3.9949,3.8684,3.7418,3.6125,3.5707,3.6111,3.6163,3.6411,3.6856,3.7322,3.7529,3.756,3.7995,3.8181,3.8148,3.7425,3.7146,3.7045,3.6321,3.6016,3.6016,3.6016,3.5982,3.5982,0.0,0.0,0.0,0.0,0.0,0.0,0.0,0.0,0.0,0.0,0.0,0.0,0.0,4.2772,4.2317,4.2585,4.1525,4.1109,4.1672,4.0737,4.0198,4.0318,3.9663,3.9319,3.9406,3.9319,0.0,0.0,0.0,3.9406,3.9406,3.9406,3.9406,3.9406,3.9406,3.9152,3.8751,3.8751,0.0,0.0,0.0,0.0,0.0,0.0,0.0,0.0,0.0,0.0,0.0,0.0,0.0,0.0,0.0,0.0,0.0,0.0,0.0,3.7826,3.797,3.8002,3.8278,3.9421,3.9697,3.9885,4.0612,4.1051,4.1528,0.0,0.0,0.0,0.0,0.0,0.0,0.0,0.0,0.0,0.0,0.0,0.0,0.0,0.0,0.0,0.0,0.0,0.0,0.0,0.0,0.0,4.3002,4.3002,4.2416,4.1129,3.9861,3.8209,3.6094,3.5623,3.5469,3.5645,3.5966,3.6204,3.638,3.6846,3.7053,3.7084,3.7539,3.7912,3.8148,3.7391,3.7112,3.7021,3.6287,3.5982,3.5982,3.5982,3.5982,3.5982,0.0,0.0,0.0,0.0,0.0,0.0,0.0,0.0,0.0,0.0,0.0,0.0,0.0,0.0,4.19,4.19,4.1259,4.0991,4.131,4.0357,3.9948,4.0318,3.9717,3.9406,3.9406,0.0,0.0,0.0,0.0,0.0,0.0,3.9406,3.9272,3.9047,3.9047,3.8826,0.0,0.0,0.0,3.74,0.0,0.0,3.6946,0.0,0.0,0.0,0.0,0.0,0.0,0.0,0.0,0.0,0.0,0.0,0.0,0.0,0.0,0.0,3.7669,3.7864,3.8228,3.9182,3.9585,3.9835,4.0361,4.0913,4.1465,0.0,0.0,0.0,0.0,0.0,0.0,0.0,0.0,0.0,0.0,0.0,0.0,0.0,0.0,0.0,0.0,0.0,0.0,0.0,0.0,0.0,4.3002,4.2597,4.1586,3.9879,3.8595,3.7108,3.5418,3.5387,3.5387,3.5397,3.5707,3.5883,3.5862,3.6359,3.6577,3.6566,3.6934,3.7431,3.7931,3.733,3.7112,3.7021,3.6287,3.5982,3.5982,3.5982,3.5982,3.5982,0.0,0.0,0.0,0.0,0.0,0.0,0.0,0.0,0.0,0.0,0.0,0.0,0.0,0.0,0.0,4.0495,4.1092,4.1294,4.0974,4.065,4.0318,4.0011,3.9604,3.9406,3.9406,0.0,0.0,0.0,0.0,0.0,0.0,0.0,3.9017,3.8409,3.838,3.8362,3.8362,0.0,3.7988,3.743,0.0,3.7529,3.7013,0.0,0.0,0.0,3.8517,3.8668,0.0,0.0,0.0,0.0,0.0,0.0,0.0,0.0,0.0,0.0,0.0,0.0,0.0,3.8756,3.9308,3.9835,4.0375,4.0888,4.144,0.0,0.0,0.0,0.0,0.0,0.0,0.0,0.0,0.0,0.0,0.0,0.0,0.0,0.0,0.0,0.0,0.0,0.0,0.0,0.0,4.2946,4.2946,4.1712,3.9849,3.7388,3.6063,3.5387,3.5387,3.5387,3.5387,3.5387,3.5387,3.5387,3.5407,3.5852,3.6059,3.6058,3.6193,3.6708,3.7422,3.7178,3.7069,3.7011,3.6287,3.5982,3.5982,3.5982,3.5982,3.5982,0.0,0.0,0.0,0.0,0.0,0.0,0.0,0.0,0.0,0.0,0.0,0.0,0.0,0.0,0.0,4.0495,4.0181,3.995,3.9844,3.977,3.9646,3.9568,3.946,3.9406,3.9406,0.0,0.0,0.0,0.0,0.0,0.0,0.0,0.0,0.0,3.7883,3.7689,3.7689,3.7689,0.0,0.0,3.823,3.8028,0.0,0.0,0.0,0.0,0.0,3.7798,0.0,0.0,3.7791,3.7832,0.0,0.0,0.0,0.0,0.0,0.0,3.706,0.0,0.0,0.0,0.0,0.0,3.9885,4.035,4.0876,0.0,0.0,0.0,0.0,0.0,0.0,0.0,0.0,0.0,0.0,0.0,0.0,0.0,0.0,0.0,0.0,0.0,0.0,0.0,4.215,4.1627,4.1627,3.9545,3.8037,3.7328,3.6063,3.5387,3.5387,3.5387,3.5387,3.5387,3.5387,3.5387,3.5397,3.5272,3.523,3.523,3.5363,3.5541,3.5777,3.6119,3.6409,3.663,3.6176,3.5982,3.5982,3.5982,3.5982,3.5845,0.0,0.0,0.0,0.0,0.0,0.0,0.0,0.0,0.0,0.0,0.0,0.0,0.0,0.0,0.0,4.0038,3.9646,3.9406,3.9406,3.9406,3.9406,3.9406,3.9406,3.9406,0.0,0.0,0.0,0.0,0.0,0.0,0.0,0.0,0.0,0.0,0.0,0.0,0.0,0.0,0.0,0.0,3.8867,0.0,0.0,3.9134,3.8863,0.0,0.0,0.0,3.8671,3.8083,3.7882,0.0,0.0,0.0,0.0,0.0,0.0,0.0,0.0,0.0,0.0,0.0,0.0,0.0,3.9697,4.0124,4.0587,0.0,0.0,0.0,0.0,0.0,0.0,0.0,0.0,0.0,0.0,0.0,0.0,0.0,0.0,0.0,0.0,0.0,0.0,4.3002,4.1826,4.0656,3.9557,3.8108,3.7067,3.6501,3.5798,3.5387,3.5387,3.5387,3.5387,3.5387,3.5387,3.5387,3.5397,3.5046,3.4891,3.487,3.4705,3.4694,3.4914,3.5066,3.5564,3.6218,3.5887,3.5869,3.5982,3.5982,3.5597,3.4962,0.0,0.0,0.0,0.0,0.0,0.0,0.0,0.0,0.0,0.0,0.0,0.0,0.0,0.0,0.0,0.0,3.9406,3.9406,3.9406,3.9406,0.0,0.0,0.0,0.0,0.0,0.0,0.0,0.0,0.0,0.0,0.0,0.0,0.0,0.0,0.0,0.0,0.0,0.0,0.0,3.9546,3.9639,3.9578,0.0,0.0,3.979,0.0,3.9173,3.9241,3.9121,3.8285,3.8002,0.0,0.0,0.0,0.0,0.0,3.6593,0.0,0.0,0.0,0.0,0.0,0.0,0.0,3.9697,4.0074,4.0411,4.0501,4.0876,0.0,0.0,0.0,0.0,0.0,0.0,0.0,0.0,0.0,0.0,0.0,0.0,0.0,4.3002,4.3002,4.2946,4.2806,4.1472,3.9616,3.7207,3.7097,3.6572,3.5448,3.5387,3.5387,3.5387,3.5387,3.5387,3.5387,3.5356,3.5325,3.5325,3.4953,3.4797,3.4766,3.411,3.4086,3.4443,3.4155,3.4697,3.5749,3.5495,3.5625,3.5923,3.5792,3.4937,3.3736,0.0,0.0,0.0,0.0,0.0,0.0,0.0,0.0,0.0,0.0,0.0,0.0,0.0,0.0,0.0,0.0,0.0,3.9406,3.9406,0.0,0.0,0.0,0.0,0.0,0.0,0.0,0.0,0.0,0.0,0.0,0.0,0.0,0.0,0.0,0.0,0.0,0.0,0.0,0.0,4.0381,4.0658,0.0,4.0076,3.9753,3.9036,3.8225,3.8258,3.8285,3.8261,0.0,3.8002,3.7965,0.0,0.0,0.0,0.0,0.0,0.0,0.0,0.0,0.0,0.0,0.0,0.0,3.9697,3.9772,3.9986,4.0399,4.0575,0.0,0.0,0.0,0.0,0.0,0.0,0.0,0.0,0.0,0.0,0.0,0.0,0.0,4.3002,4.3002,4.2557,4.1541,3.934,3.7369,3.5859,3.5777,3.5654,3.5418,3.5387,3.5387,3.5387,3.5387,3.5387,3.5387,3.5139,3.5015,3.4984,3.436,3.411,3.4079,3.367,3.3562,3.364,3.3545,3.4085,3.4962,3.5277,3.5449,3.5422,3.4564,3.4057,3.3449,0.0,0.0,0.0,0.0,0.0,0.0,0.0,0.0,0.0,0.0,0.0,0.0,0.0,0.0,0.0,0.0,0.0,0.0,0.0,0.0,0.0,0.0,0.0,0.0,0.0,0.0,0.0,0.0,0.0,0.0,0.0,0.0,0.0,0.0,0.0,0.0,0.0,0.0,4.1831,4.221,4.1199,0.0,3.9625,3.9801,3.9269,3.8467,3.8755,3.8856,3.8806,3.853,3.8617,0.0,0.0,3.8203,3.8379,0.0,3.8002,3.8002,0.0,0.0,0.0,3.8894,0.0,0.0,0.0,3.9697,3.9772,4.0049,4.0111,4.0187,0.0,0.0,0.0,0.0,0.0,0.0,0.0,0.0,0.0,0.0,0.0,0.0,4.3002,4.3002,4.2206,4.0309,3.8969,3.7399,3.551,3.5387,3.5387,3.5387,3.5387,3.5387,3.5387,3.5387,3.5387,3.5387,3.5046,3.4891,3.4891,3.4204,3.389,3.389,3.3544,3.3386,3.3386,3.3386,3.365,3.4111,3.456,3.456,3.4195,3.3634,3.2645,3.1288,3.9406,0.0,0.0,0.0,0.0,0.0,0.0,0.0,0.0,0.0,0.0,0.0,0.0,0.0,0.0,0.0,0.0,0.0,0.0,0.0,0.0,0.0,0.0,3.9169,0.0,0.0,0.0,0.0,0.0,0.0,0.0,0.0,0.0,0.0,0.0,0.0,0.0,0.0,0.0,4.332,0.0,4.0417,3.9971,4.0331,3.9985,3.9373,3.9611,3.9697,3.9647,3.9321,0.0,3.9685,3.8781,3.8818,0.0,0.0,0.0,0.0,0.0,0.0,0.0,0.0,0.0,3.9697,0.0,0.0,0.0,3.9697,3.9697,0.0,0.0,0.0,0.0,0.0,0.0,0.0,0.0,0.0,0.0,0.0,0.0,0.0,0.0,4.2715,4.1684,3.9363,3.898,3.7831,3.551,3.5387,3.5387,3.5387,3.5387,3.5387,3.5387,3.5387,3.5356,3.5294,3.4953,3.4766,3.4704,3.4079,3.3796,3.3796,3.3513,3.3386,3.3386,3.3386,3.3386,3.3467,3.3938,3.359,3.2878,3.2727,3.1166,2.9083,3.9406,3.9406,0.0,0.0,0.0,0.0,0.0,0.0,0.0,0.0,0.0,0.0,0.0,0.0,0.0,0.0,0.0,0.0,3.887,0.0,0.0,0.0,0.0,0.0,3.8207,0.0,0.0,0.0,0.0,0.0,0.0,0.0,0.0,0.0,4.0824,0.0,0.0,0.0,4.1685,0.0,4.1628,4.2465,0.0,4.1765,4.1028,4.0816,4.0006,3.9697,3.976,0.0,4.0375,4.04,0.0,4.0248,0.0,0.0,0.0,0.0,0.0,0.0,0.0,0.0,3.9647,0.0,0.0,0.0,3.9697,3.9697,0.0,0.0,0.0,0.0,0.0,0.0,0.0,0.0,0.0,0.0,0.0,0.0,0.0,0.0,0.0,4.1698,4.0743,3.9304,3.8138,3.6896,3.5479,3.5387,3.5387,3.5387,3.5387,3.5387,3.5387,3.5387,3.5263,3.4953,3.461,3.4298,3.4016,3.3639,3.3459,3.3449,3.3418,3.3386,3.3386,3.3386,3.3386,3.3467,3.3938,3.327,3.2052,3.1397,3.0178,2.8696,3.9406,3.9406,0.0,0.0,0.0,0.0,0.0,0.0,0.0,0.0,0.0,0.0,0.0,0.0,0.0,0.0,0.0,3.9913,0.0,0.0,0.0,0.0,0.0,0.0,0.0,0.0,0.0,0.0,4.0077,0.0,0.0,0.0,0.0,0.0,4.1277,0.0,4.1609,0.0,0.0,0.0,0.0,0.0,0.0,4.1332,4.0517,4.0772,4.0683,4.0625,4.065,0.0,4.0964,0.0,0.0,0.0,0.0,0.0,0.0,0.0,0.0,0.0,0.0,0.0,0.0,0.0,0.0,0.0,3.9697,0.0,0.0,0.0,0.0,0.0,0.0,0.0,3.9584,0.0,0.0,0.0,0.0,0.0,0.0,0.0,0.0,0.0,0.0,0.0,3.7843,3.7083,3.5157,3.5283,3.5387,3.5387,3.5387,3.5304,3.5108,3.5108,3.4953,3.461,3.4267,3.4047,3.389,3.3544,3.3386,3.3386,3.3386,3.2924,3.2174,3.2174,3.1685,3.0996,3.12,3.1008,3.053,2.9402,2.8341,2.7392,3.9406,0.0,0.0,0.0,0.0,0.0,0.0,0.0,0.0,0.0,0.0,0.0,4.0733,4.0619,0.0,0.0,0.0,4.0529,0.0,0.0,4.0471,0.0,0.0,0.0,0.0,0.0,0.0,0.0,0.0,0.0,0.0,0.0,0.0,0.0,0.0,4.1035,4.0768,0.0,0.0,4.2168,4.3261,4.3578,4.3193,4.1298,4.0649,4.0775,4.1177,4.1315,4.134,4.149,4.1541,0.0,4.1541,0.0,0.0,0.0,0.0,0.0,4.0149,0.0,0.0,0.0,0.0,0.0,0.0,0.0,0.0,0.0,0.0,0.0,0.0,0.0,0.0,0.0,0.0,0.0,0.0,0.0,0.0,0.0,0.0,0.0,0.0,0.0,0.0,3.7112,3.7437,3.689,3.4896,3.5066,3.5293,3.5387,3.5387,3.5232,3.4891,3.4891,3.4704,3.4267,3.4016,3.3859,3.3765,3.3513,3.3386,3.3386,3.3386,3.2597,3.1313,3.1313,3.0475,2.9158,2.8789,2.8759,2.8877,2.7942,2.702,2.6252,3.9406,3.9406,0.0,0.0,0.0,0.0,0.0,0.0,0.0,0.0,0.0,0.0,0.0,0.0,0.0,0.0,0.0,4.0123,4.0123,0.0,4.0123,0.0,0.0,0.0,0.0,0.0,0.0,0.0,0.0,0.0,0.0,0.0,0.0,0.0,0.0,4.1262,4.2265,4.1443,4.1124,4.1294,4.1923,4.1866,4.1493,0.0,4.2158,4.129,4.1275,0.0,0.0,4.1972,4.2187,0.0,0.0,0.0,0.0,0.0,0.0,0.0,0.0,0.0,0.0,0.0,0.0,0.0,0.0,0.0,3.9697,0.0,0.0,0.0,0.0,0.0,0.0,0.0,0.0,0.0,0.0,0.0,0.0,0.0,0.0,0.0,0.0,0.0,0.0,3.7752,3.6673,3.5711,3.4856,3.4796,3.5003,3.5376,3.5387,3.5232,3.4891,3.4891,3.4579,3.3922,3.3922,3.3733,3.3418,3.3386,3.3386,3.3386,3.3386,3.2597,3.1313,3.1313,3.0475,2.9051,2.7709,2.7186,2.7208,2.7516,2.6721,2.5573,0.0,0.0,0.0,0.0,0.0,0.0,0.0,4.036,0.0,0.0,0.0,0.0,0.0,0.0,4.2343,0.0,0.0,4.2673,4.2673,4.2673,0.0,0.0,0.0,4.2511,0.0,0.0,0.0,0.0,0.0,0.0,4.2514,4.2433,0.0,0.0,0.0,4.1266,0.0,0.0,0.0,0.0,0.0,4.2069,4.1379,0.0,0.0,4.1946,4.2296,4.2421,0.0,4.2663,4.2725,4.2725,4.2725,4.2474,4.2175,4.1959,4.1618,0.0,0.0,0.0,4.1039,4.1039,0.0,0.0,0.0,0.0,0.0,0.0,0.0,0.0,0.0,0.0,0.0,0.0,0.0,0.0,0.0,0.0,0.0,0.0,0.0,0.0,0.0,0.0,0.0,3.6116,3.5619,3.5099,3.4369,3.462,3.4871,3.5067,3.5077,3.4797,3.4235,3.4235,3.4016,3.3576,3.3576,3.3513,3.3386,3.3386,3.3386,3.3386,3.3386,3.2078,2.99,2.99,2.8559,2.6435,2.5973,2.5779,2.5786,2.5907,2.5754,2.5544,4.1133,0.0,0.0,0.0,0.0,0.0,0.0,0.0,0.0,0.0,4.1773,0.0,4.2843,0.0,4.3579,0.0,4.4065,4.3993,4.3993,4.3993,0.0,4.3993,4.3993,0.0,0.0,0.0,0.0,0.0,0.0,4.2304,4.2304,4.2304,4.2304,0.0,0.0,4.1427,4.0953,0.0,4.1415,0.0,0.0,4.1992,0.0,0.0,4.2213,4.2288,0.0,4.3002,4.3002,4.3002,4.3002,4.3002,4.3002,4.2763,4.2474,4.2474,4.2195,4.1892,4.1892,4.1781,0.0,0.0,4.1189,0.0,4.0788,0.0,0.0,0.0,0.0,0.0,0.0,0.0,0.0,0.0,0.0,0.0,0.0,3.7425,0.0,0.0,0.0,0.0,0.0,0.0,3.641,3.4997,3.4485,3.4201,0.0,0.0,3.4543,3.4901,3.4766,3.4454,3.3922,3.389,3.3733,3.3386,3.3386,3.3386,3.3386,3.3386,3.3386,3.3386,3.3386,3.179,2.9182,2.9182,2.7585,2.5093,2.5093,2.5093,2.5093,2.5093,2.5217,2.541,0.0,0.0,0.0,0.0,4.113,0.0,0.0,0.0,4.1774,0.0,4.2708,4.3338,4.3382,4.3788,4.4073,4.4081,4.4081,0.0,4.4081,4.4081,0.0,0.0,4.4081,4.4066,4.4059,0.0,0.0,0.0,0.0,0.0,4.2092,4.2092,4.2107,0.0,4.2136,0.0,4.098,4.1477,4.1261,4.0587,4.1164,4.1718,4.2213,4.2238,0.0,4.2288,4.2813,4.3002,4.3002,4.3002,4.3002,4.3002,4.3002,4.3002,4.3002,4.3002,4.3002,4.3002,4.3002,4.2625,4.225,4.225,0.0,0.0,0.0,0.0,4.1164,0.0,0.0,0.0,0.0,0.0,0.0,0.0,0.0,0.0,0.0,0.0,0.0,0.0,0.0,0.0,0.0,3.6075,3.5136,3.4515,3.3378,3.311,0.0,0.0,3.3983,3.4829,3.4538,3.4204,3.389,3.389,3.3733,3.3386,3.3386,3.3386,3.3386,3.3386,3.3386,3.3386,3.3386,3.179,2.9182,2.9182,2.7585,2.5093,2.5093,2.5093,2.5093,2.5093,2.5093,2.5137,4.2322,4.2102,4.195,0.0,4.156,4.1523,0.0,0.0,0.0,0.0,4.3728,4.3993,4.4443,4.4603,4.4864,4.538,4.5424,0.0,0.0,0.0,0.0,4.5424,4.5424,4.5191,4.4683,4.4073,0.0,4.2992,0.0,0.0,4.2092,4.2092,4.2339,4.276,0.0,0.0,4.1582,4.1721,4.1521,4.1189,4.217,4.2424,0.0,0.0,4.2537,4.2288,4.2813,4.3002,4.3002,4.3002,4.3002,4.3002,4.3002,4.3002,4.3002,4.3002,4.3002,4.3002,4.3002,4.2901,4.2788,4.2788,4.2374,4.1972,0.0,0.0,0.0,0.0,0.0,0.0,0.0,0.0,0.0,0.0,0.0,0.0,0.0,0.0,0.0,0.0,0.0,0.0,0.0,3.5853,3.5015,3.406,3.3187,3.2946,0.0,0.0,0.0,3.4074,3.4034,3.3859,3.3544,3.3544,3.3481,3.3386,3.3386,3.3386,3.3386,3.3386,3.3386,3.3386,3.3386,3.179,2.9182,2.9182,2.7585,2.5093,2.5093,2.5093,2.5093,2.5093,2.5093,2.51,4.2622,0.0,0.0,4.2526,0.0,0.0,4.2808,0.0,0.0,4.4457,4.472,0.0,4.5663,4.5982,4.6324,4.6702,4.6731,0.0,0.0,0.0,0.0,4.6731,4.6731,4.6206,4.5087,4.4457,0.0,4.3183,0.0,0.0,4.2919,4.2919,4.3108,4.3449,0.0,4.2834,4.1792,4.1637,4.1479,4.139,4.2298,0.0,0.0,4.2524,4.26,4.2587,4.2889,4.3002,4.3002,4.3002,4.3002,4.3002,4.3002,4.3002,4.3002,4.3002,4.3002,4.3002,4.3002,4.3002,4.3002,4.3002,4.2776,4.2549,4.2549,4.2298,4.1995,0.0,0.0,0.0,0.0,0.0,0.0,0.0,0.0,0.0,0.0,0.0,0.0,0.0,0.0,0.0,0.0,3.4783,3.4161,3.3084,3.2825,0.0,0.0,0.0,0.0,3.3575,3.3494,3.3332,3.3144,3.3299,3.3386,3.3386,3.3386,3.3386,3.3386,3.3386,3.3386,3.3355,3.2765,3.1235,2.9149,2.8534,2.702,2.5093,2.5093,2.5093,2.5093,2.5093,2.5093,2.5093,0.0,0.0,0.0,0.0,0.0,0.0,0.0,4.3863,0.0,4.5053,0.0,4.6345,4.6873,4.7448,4.7805,4.7805,0.0,4.7805,4.7805,4.765,4.7579,4.7579,4.7423,4.6676,4.5202,4.4535,0.0,0.0,0.0,0.0,4.3993,4.3993,4.4037,4.411,0.0,0.0,0.0,4.1452,4.1352,4.1465,4.2072,4.2286,4.2286,4.2286,4.2587,4.3002,4.3002,4.3002,4.3002,4.3002,4.3002,4.3002,4.3002,4.3002,4.3002,4.3002,4.3002,4.3002,4.3002,4.3002,4.3002,4.3002,4.3002,4.3002,4.3002,4.3002,4.2864,4.2386,4.2263,0.0,0.0,0.0,0.0,0.0,0.0,0.0,0.0,0.0,0.0,0.0,0.0,0.0,0.0,0.0,3.3023,3.2006,3.2357,0.0,0.0,0.0,0.0,3.312,3.292,0.0,3.2793,0.0,3.3386,3.3386,3.3386,3.3386,3.3386,3.3386,3.3292,3.306,3.1845,3.041,2.883,2.761,2.6301,2.5093,2.5093,2.5093,2.5093,2.5093,2.5093,2.5093,0.0,0.0,0.0,0.0,0.0,4.4945,4.5337,4.5496,4.5779,4.638,4.7042,0.0,4.7608,4.7733,4.7805,4.7805,4.7805,0.0,0.0,0.0,0.0,4.6395,4.5502,4.4866,4.4557,4.3947,4.3784,0.0,0.0,0.0,0.0,0.0,4.4255,4.4712,0.0,0.0,4.1999,4.1494,0.0,4.2085,4.2637,4.2864,4.2864,4.2864,4.2926,4.3002,4.3002,4.3002,4.3002,4.3002,4.3002,4.3002,4.3002,4.3002,4.3002,4.3002,4.3002,4.3002,4.3002,4.3002,4.3002,4.3002,4.3002,4.3002,4.3002,4.3002,4.2977,4.2876,4.2499,4.1984,4.129,0.0,0.0,0.0,0.0,0.0,0.0,0.0,0.0,0.0,0.0,0.0,0.0,0.0,0.0,0.0,0.0,0.0,0.0,0.0,0.0,0.0,3.2605,0.0,0.0,0.0,3.3386,3.3386,3.3386,3.3386,3.3386,3.3386,3.2765,3.1643,3.141,2.985,2.7444,2.7211,2.6301,2.5093,2.5093,2.5093,2.5093,2.5093,2.5093,2.5093,0.0,0.0,0.0,0.0,0.0,0.0,0.0,4.694,0.0,4.7744,4.8063,4.8391,4.8749,4.8793,4.8562,4.7952,4.8427,4.8268,4.7097,4.7073,4.6834,4.6229,4.5683,0.0,4.4106,4.3788,4.3735,4.3894,0.0,0.0,0.0,0.0,0.0,4.3784,0.0,4.2495,0.0,0.0,0.0,4.2263,4.2776,4.3002,4.3002,4.3002,4.3002,4.3002,4.3002,4.3002,4.3002,4.3002,4.3002,4.3002,4.3002,4.3002,4.3002,4.3002,4.3002,4.3002,4.3002,4.3002,4.3002,4.3002,4.3002,4.3002,4.3002,4.3002,4.3002,4.3002,4.2788,4.2361,4.1465,4.0224,0.0,0.0,0.0,0.0,0.0,0.0,0.0,0.0,0.0,0.0,0.0,0.0,0.0,0.0,0.0,0.0,0.0,0.0,0.0,0.0,0.0,0.0,0.0,0.0,0.0,3.3096,3.3289,3.3029,3.2301,3.2301,3.1547,3.0183,2.9435,2.8353,2.7053,2.6334,2.5678,2.5093,2.5093,2.5093,2.5093,2.5093,2.5093,2.5093,0.0,4.5068,0.0,0.0,4.6119,0.0,4.6659,4.782,4.8701,4.8701,4.8817,4.9117,4.9635,4.9693,4.9237,4.8097,4.8827,4.8474,4.6424,4.6919,4.6893,4.5992,4.5728,4.4983,4.3669,4.363,4.3625,0.0,0.0,0.0,0.0,0.0,0.0,0.0,0.0,0.0,0.0,0.0,4.2275,4.2399,4.2826,4.3002,4.3002,4.3002,4.3002,4.3002,4.3002,4.3002,4.3002,4.3002,4.3002,4.3002,4.3002,4.3002,4.3002,4.3002,4.3002,4.3002,4.3002,4.3002,4.3002,4.3002,4.3002,4.3002,4.3002,4.3002,4.3002,4.3002,4.2914,4.2479,4.1303,4.0218,0.0,0.0,0.0,0.0,0.0,0.0,0.0,0.0,0.0,0.0,0.0,0.0,0.0,0.0,0.0,0.0,0.0,0.0,0.0,0.0,0.0,3.2101,3.2198,0.0,3.3164,0.0,3.2937,3.2365,3.1281,3.0992,3.0086,2.869,2.7576,2.6953,2.6594,2.5551,2.5093,2.5093,2.5093,2.5093,2.5093,2.5093,2.5093,2.5093,0.0,0.0,0.0,0.0,0.0,0.0,0.0,4.7611,4.8701,4.8701,4.9233,4.9635,4.9693,4.9693,4.9237,4.8097,4.8097,4.7627,4.6372,4.5489,4.4966,4.4859,4.385,4.3242,4.3093,4.3081,4.3274,0.0,0.0,0.0,0.0,0.0,0.0,0.0,0.0,0.0,0.0,4.219,4.2474,4.2926,4.2977,4.3002,4.3002,4.3002,4.3002,4.3002,4.3002,4.3002,4.3002,4.3002,4.3002,4.3002,4.3002,4.3002,4.3002,4.3002,4.3002,4.3002,4.3002,4.3002,4.3002,4.3002,4.3002,4.3002,4.3002,4.3002,4.3002,4.3002,4.2612,4.188,4.0635,3.9561,3.8797,0.0,0.0,0.0,0.0,0.0,0.0,0.0,0.0,0.0,0.0,0.0,0.0,0.0,0.0,0.0,0.0,0.0,0.0,3.1562,0.0,3.1768,3.2198,3.2627,0.0,3.3338,3.2081,3.141,3.1249,2.9989,2.8625,2.7278,2.7145,2.6393,2.5288,2.5153,2.5093,2.5093,2.5093,2.5093,2.5093,2.5093,2.5093,2.5093,0.0,0.0,0.0,0.0,0.0,0.0,0.0,4.761,4.8031,4.7351,4.8093,4.8664,4.8664,4.8058,4.7215,4.611,4.6608,4.6228,4.4453,4.4561,4.4384,4.3725,4.324,4.3002,4.3002,4.3002,4.3237,0.0,0.0,0.0,0.0,0.0,0.0,0.0,0.0,4.2366,4.2238,4.2537,4.2801,4.3002,4.3002,4.3002,4.3002,4.3002,4.3002,4.3002,4.3002,4.3002,4.3002,4.3002,4.3002,4.3002,4.3002,4.3002,4.3002,4.3002,4.3002,4.3002,4.3002,4.3002,4.3002,4.3002,4.3002,4.3002,4.3002,4.3002,4.3002,4.3002,4.2214,4.1297,4.0451,3.9358,3.8106,0.0,0.0,0.0,0.0,0.0,0.0,0.0,0.0,0.0,0.0,0.0,0.0,0.0,0.0,0.0,0.0,0.0,0.0,3.1925,0.0,3.214,3.257,3.2715,3.2881,3.3016,3.186,3.0863,2.9989,2.8592,2.7186,2.5906,2.5906,2.5618,2.5093,2.5093,2.5093,2.5093,2.5093,2.5093,2.5093,2.5093,2.5093,2.5093,4.817,0.0,4.6653,0.0,4.7035,4.6481,4.6153,4.6906,4.71,4.5965,4.653,4.7165,4.7473,4.6776,4.586,4.4778,4.5395,4.5021,4.3113,4.3753,4.3823,4.303,4.3002,0.0,4.3002,4.3002,4.3161,4.3477,4.3336,0.0,0.0,0.0,0.0,0.0,4.2185,4.2451,4.2449,4.2838,4.3002,4.3002,4.3002,4.3002,4.3002,4.3002,4.3002,4.3002,4.3002,4.3002,4.3002,4.3002,4.3002,4.3002,4.3002,4.3002,4.3002,4.3002,4.3002,4.3002,4.3002,4.3002,4.3002,4.3002,4.3002,4.3002,4.3002,4.3002,4.3002,4.3002,4.198,4.0865,4.0123,3.8833,3.7345,3.5772,0.0,0.0,0.0,0.0,0.0,0.0,0.0,3.0865,3.0998,0.0,0.0,0.0,0.0,0.0,0.0,0.0,0.0,0.0,0.0,0.0,0.0,3.2607,3.2539,3.2366,3.1217,2.9956,2.8534,2.7153,2.6007,2.5093,2.5093,2.5093,2.5093,2.5093,2.5093,2.5093,2.5093,2.5093,2.5093,2.5093,2.5093,2.5093,4.9353,4.8274,4.7094,4.7094,4.6165,4.5039,4.39,4.5208,4.5952,4.4859,4.4737,4.5141,4.6202,4.6307,4.586,4.4778,4.471,4.4221,4.3085,4.3002,4.3002,0.0,0.0,4.3002,4.3002,4.3002,4.3002,4.3017,0.0,0.0,4.22,0.0,4.22,4.2225,4.275,4.3002,4.3002,4.3002,4.3002,4.3002,4.3002,4.3002,4.3002,4.3002,4.3002,4.3002,4.3002,4.3002,4.3002,4.3002,4.3002,4.3002,4.3002,4.3002,4.3002,4.3002,4.3002,4.3002,4.3002,4.3002,4.3002,4.3002,4.3002,4.3002,4.3002,4.3002,4.3002,4.3002,4.198,4.0714,3.9451,3.7776,3.658,3.6491,0.0,0.0,0.0,0.0,0.0,0.0,3.1594,3.1323,3.1919,0.0,0.0,0.0,0.0,0.0,0.0,0.0,0.0,3.1514,3.1123,0.0,3.2198,3.2208,3.192,3.1304,2.9891,2.8493,2.7086,2.5745,2.5127,2.5093,2.5093,2.5093,2.5093,2.5093,2.5093,2.5093,2.5093,2.5093,2.5093,2.5093,2.5093,2.5093,4.7193,4.6354,4.5696,4.6425,4.5644,4.4797,4.4435,4.4848,4.4805,4.3698,4.3532,4.367,4.4002,4.4057,4.3892,0.0,4.3532,4.3379,0.0,4.3002,4.3002,4.3002,4.3002,4.3002,4.3002,4.3002,4.3002,4.3002,0.0,0.0,0.0,4.275,4.275,4.275,4.2926,4.3002,4.3002,4.3002,4.3002,4.3002,4.3002,4.3002,4.3002,4.3002,4.3002,4.3002,4.3002,4.3002,4.3002,4.3002,4.3002,4.3002,4.3002,4.3002,4.3002,4.3002,4.3002,4.3002,4.3002,4.3002,4.3002,4.3002,4.3002,4.3002,4.3002,4.3002,4.2737,4.1883,4.0685,3.9422,3.8138,3.6747,3.5707,3.5402,0.0,0.0,0.0,0.0,0.0,0.0,0.0,3.1565,0.0,3.2117,0.0,0.0,0.0,0.0,0.0,0.0,0.0,0.0,3.2256,0.0,3.3018,3.2744,3.2644,3.2702,3.129,2.9394,2.7045,2.5712,2.5093,2.5093,2.5093,2.5093,2.5093,2.5093,2.5093,2.5093,2.5093,2.5093,2.5093,2.5093,2.5093,2.5093,4.6161,4.5449,4.4913,4.5582,4.4805,4.407,4.407,4.407,4.3808,4.3085,4.3002,4.3002,4.3002,4.3002,0.0,4.3002,4.3002,4.3002,4.3002,4.3002,4.3002,4.3002,4.3002,4.3002,4.3002,0.0,0.0,4.3002,4.3002,4.3002,4.3002,4.3002,4.3002,4.3002,4.3002,4.3002,4.3002,4.3002,4.3002,4.3027,4.3228,4.3288,4.3313,4.3514,4.3589,4.3589,4.3589,4.3589,4.3589,4.3589,4.3463,4.3288,4.3288,4.3165,4.3002,4.3002,4.3002,4.3002,4.3002,4.3002,4.3002,4.3002,4.3002,4.3002,4.3002,4.2625,4.2065,4.1272,3.9715,3.8227,3.7448,3.6247,3.5335,3.5055,0.0,3.45,0.0,0.0,0.0,0.0,0.0,0.0,0.0,3.2637,0.0,0.0,0.0,0.0,0.0,0.0,0.0,3.2579,3.2559,0.0,3.3184,3.293,3.2457,3.179,2.9882,2.8056,2.6334,2.5483,2.5093,2.5093,2.5093,2.5093,2.5093,2.5093,2.5093,2.5093,2.5093,2.5093,2.5093,2.5093,2.5093,2.5093,4.586,4.5275,0.0,0.0,4.3698,0.0,4.3002,4.3039,4.3065,4.3065,4.3102,4.3115,4.3115,4.3115,4.3115,4.3115,0.0,0.0,0.0,4.3002,4.3002,4.3002,4.3002,4.3002,4.3002,4.3002,4.3002,4.3002,4.3002,4.3002,4.3002,4.3002,4.3002,4.3002,4.3002,4.3027,4.3065,4.3065,4.309,4.3165,4.3652,4.3865,4.3915,4.4401,4.4589,4.4589,4.4589,4.4589,4.4589,4.4589,4.4251,4.3853,4.3815,4.3451,4.3052,4.3014,4.3002,4.3002,4.3002,4.3002,4.3002,4.3002,4.3002,4.3002,4.3002,4.2008,4.1071,4.0985,3.9028,3.7267,3.7188,3.6217,3.5387,3.5387,3.479,3.433,3.4299,0.0,0.0,0.0,0.0,0.0,0.0,3.3028,3.2832,0.0,0.0,0.0,0.0,0.0,3.2286,3.2286,3.2286,3.2472,3.2832,3.2842,3.168,2.9313,2.6568,2.5255,2.5255,2.5153,2.5093,2.5093,2.5093,2.5093,2.5093,2.5093,2.5093,2.5093,2.5093,2.5093,2.5093,2.5093,2.5093,2.5093,0.0,0.0,4.3406,4.3406,4.3197,4.3002,4.3002,4.3366,4.3601,4.3601,4.3978,4.42,4.42,4.42,4.42,4.42,4.3463,4.3002,4.3002,4.3002,4.3002,4.3002,4.3002,4.3002,4.3002,4.3002,4.3002,4.3002,4.3002,4.3002,4.3002,4.3002,4.3002,4.3002,4.3002,4.324,4.3601,4.3601,4.3853,4.4242,4.4351,4.4401,4.4414,4.4539,4.4589,4.4589,4.4589,4.4589,4.4589,4.4589,4.4502,4.4355,4.3928,4.3714,4.3526,4.3127,4.3002,4.3002,4.3002,4.3002,4.3002,4.3002,4.3002,4.3002,4.3002,4.2008,4.0829,3.9832,3.8406,3.7006,3.6043,3.5592,3.5387,3.5387,3.5057,3.4646,3.434,3.3627,0.0,0.0,3.2893,3.2843,3.3326,3.3303,3.3144,0.0,0.0,0.0,0.0,3.2832,3.3125,3.3125,3.3125,3.3174,3.3271,3.3271,3.2438,3.0766,2.8007,2.6669,2.6594,2.5584,2.5093,2.5093,2.5093,2.5093,2.5093,2.5093,2.5093,2.5093,2.5093,2.5093,2.5093,2.5093,2.5093,2.5093,4.3002,4.3002,4.309,4.3313,4.3363,4.3438,4.3689,4.3978,4.4179,4.4179,4.4401,4.4589,4.4589,4.4589,4.4589,4.4589,4.4079,4.3727,4.3727,4.3727,4.3727,4.3727,4.3727,4.3614,4.3363,4.3363,4.3266,4.3002,4.3002,4.3002,4.3014,4.3266,4.3363,4.3363,4.3614,4.3903,4.4179,4.4179,4.4326,4.4614,4.4907,4.502,4.5045,4.5267,4.5397,4.5397,4.5397,4.5397,4.5397,4.5397,4.5192,4.492,4.4355,4.4003,4.3689,4.3165,4.3002,4.3002,4.3002,4.3002,4.2862,4.2275,4.2121,4.198,4.1386,4.0297,3.9175,3.8465,3.7309,3.6217,3.5541,3.5387,3.5356,3.5201,3.4748,3.4267,3.3901,3.3411,0.0,3.3071,3.3052,3.3174,3.3367,3.3386,3.333,3.3096,0.0,0.0,3.2754,3.2998,3.3135,3.3135,3.3289,3.3386,3.3386,3.2119,3.1106,3.0313,2.7551,2.6208,2.6167,2.5416,2.5093,2.5093,2.5093,2.5093,2.5093,2.5093,2.5093,2.5093,2.5093,2.5093,2.5093,2.5093,2.5093,2.5093,4.3115,4.3127,4.3303,4.3827,4.3928,4.4079,4.4527,4.4677,4.4727,4.4727,4.4803,4.4853,4.4853,4.4853,4.4853,4.4853,4.4853,4.4778,4.4602,4.4589,4.4589,4.4589,4.4589,4.4405,4.3928,4.3928,4.3689,4.3253,4.3253,4.3253,4.3266,4.3702,4.3928,4.3953,4.4389,4.464,4.4727,4.4727,4.4778,4.489,4.5409,4.561,4.566,4.6137,4.6313,4.6313,4.6313,4.6313,4.6313,4.6313,4.5999,4.551,4.4932,4.4367,4.3786,4.3053,4.2772,4.2709,4.2709,4.2557,4.2206,4.1329,4.0957,4.0541,3.9463,3.8197,3.7298,3.7298,3.6278,3.5387,3.5387,3.5356,3.5242,3.4923,3.4226,3.3636,3.3311,0.0,3.2793,3.2793,3.3164,3.3386,3.3386,3.3386,3.3386,3.3386,3.3086,3.3018,0.0,3.3047,3.2861,3.2793,3.3203,3.3292,3.3092,3.029,2.8887,2.8863,2.6308,2.5093,2.5093,2.5093,2.5093,2.5093,2.5093,2.5093,2.5093,2.5093,2.5093,2.5093,2.5093,2.5093,2.5093,2.5093,2.5093,2.5093,4.3576,4.3677,4.3853,4.4376,4.4464,4.4489,4.4577,4.5033,4.5347,4.5347,4.5761,4.605,4.605,4.605,4.605,4.605,4.605,4.5618,4.4652,4.4589,4.4589,4.4589,4.4589,4.4552,4.4476,4.4464,4.4455,4.4338,4.4338,4.4338,4.4338,4.4426,4.4464,4.4476,4.4552,4.4895,4.5347,4.5347,4.5623,4.602,4.615,4.6188,4.6188,4.6276,4.6313,4.6313,4.6313,4.6313,4.6313,4.6313,4.625,4.6087,4.5535,4.4957,4.4149,4.2542,4.175,4.1386,4.1386,4.0599,4.0007,4.0887,4.028,3.9451,3.9257,3.8197,3.7298,3.7298,3.6278,3.5387,3.5387,3.517,3.4954,3.4829,3.4003,3.3312,3.3135,0.0,3.2793,3.2793,3.3164,3.3386,3.3386,3.3386,3.3386,3.3386,3.3328,3.3203,3.291,3.3164,3.3164,3.2803,3.3203,3.2829,3.1643,2.8846,2.7444,2.7411,2.5846,2.5093,2.5093,2.5093,2.5093,2.5093,2.5093,2.5093,2.5093,2.5093,2.5093,2.5093,2.5093,2.5093,2.5093,2.5093,2.5093,2.5093,4.4192,4.4242,4.4418,4.4982,4.5083,4.5183,4.5455,4.5761,4.5937,4.5937,4.615,4.6313,4.6313,4.6313,4.6313,4.6313,4.6313,4.6087,4.5543,4.5505,4.5505,4.5505,4.5505,4.5397,4.5095,4.4782,4.4589,4.4589,4.4589,4.4589,4.4602,4.4945,4.5083,4.5095,4.5397,4.5686,4.5937,4.5937,4.6075,4.6313,4.6313,4.6313,4.6313,4.6313,4.6313,4.6313,4.6313,4.6313,4.6313,4.6313,4.5823,4.5122,4.4552,4.3498,4.2287,4.114,4.0476,4.0065,4.0065,3.9656,3.9187,3.9087,3.8614,3.7999,3.7319,3.6694,3.6267,3.6267,3.5808,3.5325,3.517,3.5015,3.4686,3.4095,3.3595,0.0,0.0,3.2704,3.2793,3.2793,3.3164,3.3386,3.3386,3.3386,3.3386,3.3386,3.3386,3.3308,3.3144,3.3289,3.3299,3.3135,3.2565,3.1973,3.1313,2.8518,2.712,2.7086,2.5745,2.5093,2.5093,2.5093,2.5093,2.5093,2.5093,2.5093,2.5093,2.5093,2.5093,2.5093,2.5093,2.5093,2.5093,2.5093,2.5093,2.5093,4.4765,4.4819,4.4995,4.5585,4.5686,4.5824,4.625,4.6313,4.6313,4.6313,4.6313,4.6313,4.6313,4.6313,4.6313,4.6313,4.6313,4.6313,4.6313,4.6313,4.6313,4.6313,4.6313,4.6112,4.5686,4.5246,4.4991,4.4991,4.4991,4.4991,4.5003,4.5472,4.5686,4.5698,4.6125,4.6313,4.6313,4.6313,4.6313,4.6313,4.6313,4.6313,4.6313,4.6313,4.6313,4.6253,4.5956,4.5835,4.5793,4.5446,4.4663,4.3733,4.3279,4.2014,4.0567,3.9837,3.9021,3.8387,3.8684,3.8536,3.8149,3.7478,3.7097,3.6592,3.5623,3.5387,3.5387,3.5387,3.5325,3.5201,3.4953,3.4766,3.4407,3.3542,0.0,0.0,0.0,3.2649,3.2832,3.293,3.3191,3.3386,3.3386,3.3386,3.3386,3.3386,3.3386,3.3386,3.3386,3.3386,3.326,3.2924,3.1556,3.0669,3.0337,2.7866,2.6627,2.6627,2.5577,2.5093,2.5093,2.5093,2.5093,2.5093,2.5093,2.5093,2.5093,2.5093,2.5093,2.5093,2.5093,2.5093,2.5093,2.5093,2.5093,2.5086,4.5309,4.5422,4.5598,4.615,4.625,4.6263,4.6301,4.6313,4.6313,4.6313,4.6313,4.6313,4.6313,4.6313,4.6313,4.6313,4.6313,4.6313,4.6313,4.6313,4.6313,4.6313,4.6313,4.6288,4.625,4.6213,4.6188,4.6188,4.6188,4.6188,4.6188,4.6225,4.625,4.625,4.6288,4.6313,4.6313,4.6313,4.6313,4.6313,4.6313,4.6313,4.6313,4.6313,4.6313,4.615,4.489,4.4448,4.4251,4.2938,4.2434,4.2359,4.2293,4.1563,4.0444,3.9237,3.7372,3.5951,3.7127,3.6572,3.5951,3.7037,3.642,3.551,3.5418,3.5387,3.5387,3.5387,3.5139,3.4922,3.4891,3.4392,3.3939,3.3788,0.0,0.0,3.3176,3.299,3.2939,3.3299,3.3377,3.3386,3.3386,3.3386,3.3386,3.3386,3.3386,3.3386,3.3386,3.3386,3.2797,3.1515,3.0095,2.8723,2.7411,2.5973,2.5255,2.5255,2.5161,2.5093,2.5093,2.5093,2.5093,2.5093,2.5093,2.5093,2.5093,2.5093,2.5093,2.5093,2.5093,2.5093,2.5093,2.5093,2.5093,2.5059,4.5949,4.5999,4.6062,4.6276,4.6313,4.6313,4.6313,4.6313,4.6313,4.6313,4.6313,4.6313,4.6313,4.6313,4.6313,4.6313,4.6313,4.6313,4.6313,4.6313,4.6313,4.6313,4.6313,4.6313,4.6313,4.6313,4.6313,4.6313,4.6313,4.6313,4.6313,4.6313,4.6313,4.6313,4.6313,4.6313,4.6313,4.6313,4.5823,4.5055,4.5055,4.454,4.3743,4.3743,4.3743,4.3681,4.3169,4.3001,4.2907,4.2371,4.164,4.0957,4.0957,3.9728,3.8067,3.7009,3.608,3.551,3.5982,3.5777,3.551,3.6013,3.5747,3.5387,3.5387,3.5387,3.5387,3.5387,3.5139,3.4828,3.4641,3.4204,3.3752,3.3264,0.0,3.3127,3.3018,3.3111,3.3242,3.3377,3.3386,3.3386,3.3386,3.3386,3.3386,3.3386,3.3386,3.3386,3.3386,3.2565,3.1451,3.0021,2.8625,2.7643,2.712,2.5779,2.5093,2.5093,2.5093,2.5093,2.5093,2.5093,2.5093,2.5093,2.5093,2.5093,2.5093,2.5093,2.5093,2.5093,2.5093,2.5093,2.5093,2.5093,2.495,2.4706,4.6313,4.6313,4.6313,4.6313,4.6313,4.6313,4.6313,4.6313,4.6313,4.6313,4.6313,4.6313,4.6313,4.6313,4.6313,4.6313,4.6313,4.6313,4.6313,4.6313,4.6313,4.6313,4.6313,4.6313,4.6313,4.6313,4.6313,4.6313,4.6313,4.6313,4.6313,4.6313,4.6313,4.6313,4.6313,4.6313,4.6283,4.5853,4.5147,4.4251,4.3836,4.3064,4.2213,4.2213,4.2213,4.2138,4.1704,4.1576,4.1524,4.1086,4.0322,3.9572,3.9572,3.8291,3.6618,3.5697,3.5387,3.5387,3.5387,3.5387,3.5387,3.5387,3.5387,3.5387,3.5387,3.5387,3.5356,3.5263,3.4984,3.4641,3.4298,3.3985,3.3572,3.3068,3.3232,3.3289,3.3037,3.3242,3.3386,3.3386,3.3386,3.3386,3.3386,3.3386,3.3386,3.3386,3.3386,3.3228,3.2756,3.1803,3.0434,2.8592,2.761,2.6886,2.6494,2.5551,2.5093,2.5093,2.5093,2.5093,2.5093,2.5093,2.5093,2.5093,2.5093,2.5093,2.5093,2.5093,2.5093,2.5093,2.5093,2.5025,2.4916,2.4916,2.4679,2.4333,4.6313,4.6313,4.6313,4.6313,4.6313,4.6313,4.6313,4.6313,4.6313,4.6313,4.6313,4.6313,4.6313,4.6313,4.6313,4.6313,4.6313,4.6313,4.6313,4.6313,4.6313,4.6313,4.6313,4.6313,4.6313,4.6313,4.6313,4.6313,4.6313,4.6313,4.6313,4.6313,4.6313,4.6313,4.6283,4.6283,4.621,4.4859,4.4281,4.4158,4.2749,4.2181,4.2181,4.2181,4.2181,4.199,4.0667,4.017,3.9975,3.8659,3.8181,3.8181,3.8181,3.7539,3.6618,3.5697,3.5387,3.5387,3.5387,3.5387,3.5387,3.5387,3.5387,3.5387,3.5387,3.5387,3.5294,3.4953,3.4641,3.4298,3.3953,3.3639,3.3386,3.3386,3.3386,3.3386,3.3386,3.3386,3.3386,3.3386,3.3386,3.3386,3.3386,3.3386,3.3386,3.3386,3.3386,3.2765,3.1378,3.1281,2.998,2.7186,2.7086,2.6468,2.5119,2.5093,2.5093,2.5093,2.5093,2.5093,2.5093,2.5093,2.5093,2.5093,2.5093,2.5093,2.5093,2.5093,2.5093,2.5093,2.5093,2.4849,2.4503,2.4503,2.4265,2.3925,4.6313,4.6313,4.6313,4.6313,4.6313,4.6313,4.6313,4.6313,4.6313,4.6313,4.6313,4.6313,4.6313,4.6313,4.6313,4.6313,4.6313,4.6313,4.6313,4.6313,4.6313,4.6313,4.6313,4.6313,4.6313,4.6313,4.6313,4.6313,4.6313,4.6313,4.6313,4.6313,4.6313,4.6253,4.5312,4.489,4.4798,4.3419,4.2276,4.1407,4.0957,4.0235,3.9386,3.9386,3.9386,3.9353,3.8935,3.8781,3.8725,3.8347,3.8181,3.8067,3.7425,3.7022,3.6618,3.5697,3.5387,3.5387,3.5387,3.5387,3.5387,3.5387,3.5232,3.5046,3.5046,3.4859,3.4673,3.4579,3.4267,3.4016,3.3922,3.3639,3.3386,3.3386,3.3386,3.3386,3.3386,3.3386,3.3386,3.3386,3.3386,3.3386,3.3386,3.3386,3.3386,3.3386,3.247,3.1739,3.1313,2.9426,2.7965,2.712,2.6208,2.5517,2.5093,2.5093,2.5093,2.5093,2.5093,2.5093,2.5093,2.5093,2.5093,2.5093,2.5093,2.5093,2.5093,2.5093,2.5093,2.5059,2.4774,2.4604,2.4469,2.4231,2.3925,2.3543,4.6313,4.6313,4.6313,4.6313,4.6313,4.6313,4.6313,4.6313,4.6313,4.6313,4.6313,4.6313,4.6313,4.6313,4.6313,4.6313,4.6313,4.6313,4.6313,4.6313,4.6313,4.6313,4.6313,4.6313,4.6313,4.6313,4.6313,4.6313,4.6313,4.6017,4.5507,4.5507,4.522,4.4645,4.3836,4.3482,4.3388,4.2002,4.0957,4.0138,3.9637,3.8913,3.8181,3.8181,3.8181,3.8181,3.8181,3.8181,3.8181,3.8181,3.8181,3.8026,3.7094,3.6804,3.6618,3.5697,3.5387,3.5356,3.5232,3.5201,3.517,3.5046,3.4953,3.4859,3.4735,3.4548,3.436,3.4235,3.4047,3.3859,3.3733,3.3544,3.3386,3.3386,3.3386,3.3386,3.3386,3.3386,3.3386,3.3386,3.3386,3.3386,3.3386,3.3386,3.3386,3.3386,3.21,3.1056,3.0507,2.832,2.6853,2.6334,2.5517,2.5093,2.5093,2.5093,2.5093,2.5093,2.5093,2.5093,2.5093,2.5093,2.5093,2.5093,2.5093,2.5093,2.5086,2.4916,2.4849,2.4815,2.4435,2.4197,2.4054,2.3857,2.3509,2.3201,4.6313,4.6313,4.6313,4.6313,4.6313,4.6313,4.6313,4.6313,4.6313,4.6313,4.6313,4.6313,4.6313,4.6313,4.6313,4.6313,4.6313,4.6313,4.6313,4.6313,4.6313,4.6313,4.618,4.612,4.612,4.612,4.6059,4.5926,4.5926,4.5312,4.4115,4.4115,4.3419,4.2201,4.2074,4.2022,4.1927,4.0581,4.0008,3.991,3.8692,3.8181,3.8181,3.8181,3.8181,3.8181,3.8181,3.8181,3.8181,3.8181,3.816,3.7974,3.7084,3.6773,3.6566,3.5645,3.5387,3.5294,3.4984,3.4891,3.4766,3.4454,3.4579,3.4735,3.4423,3.4329,3.4235,3.3922,3.3859,3.3765,3.3459,3.3386,3.3386,3.3386,3.3386,3.3386,3.3386,3.3386,3.3386,3.3386,3.3386,3.3386,3.3386,3.3292,3.3228,3.3228,3.1781,3.0378,2.9084,2.7676,2.6368,2.5153,2.5093,2.5093,2.5093,2.5093,2.5093,2.5093,2.5093,2.5093,2.5093,2.5093,2.5093,2.5093,2.5093,2.5093,2.5025,2.4638,2.4469,2.4435,2.4095,2.3713,2.3406,2.3372,2.3167,2.2893,4.6313,4.6313,4.6313,4.6313,4.6313,4.6313,4.6313,4.6313,4.6313,4.6313,4.6313,4.6313,4.6313,4.6313,4.6313,4.6313,4.6313,4.6313,4.6313,4.6313,4.6313,4.6313,4.5281,4.4737,4.4737,4.4737,4.4189,4.3107,4.3107,4.295,4.2655,4.2655,4.2497,4.2138,4.1107,4.0635,4.0549,3.9199,3.8626,3.8592,3.8314,3.8181,3.8181,3.8181,3.8181,3.8181,3.8181,3.8181,3.8181,3.8181,3.7943,3.7539,3.698,3.6556,3.6152,3.5552,3.5201,3.4984,3.4922,3.4704,3.4423,3.4079,3.4047,3.411,3.4016,3.3796,3.3607,3.3513,3.3513,3.3481,3.3418,3.3386,3.3386,3.3386,3.3386,3.3386,3.3386,3.3386,3.3386,3.3386,3.3386,3.3386,3.3386,3.2406,3.1771,3.1771,2.9426,2.7866,2.7576,2.6267,2.5382,2.5127,2.5093,2.5093,2.5093,2.5093,2.5093,2.5093,2.5093,2.5093,2.5093,2.5093,2.5093,2.5093,2.5093,2.4916,2.4604,2.4536,2.4367,2.4061,2.3679,2.3475,2.3372,2.3099,2.2969,2.2893,4.6313,4.6313,4.6313,4.6313,4.6313,4.6313,4.6313,4.6313,4.6313,4.6313,4.6313,4.6313,4.6313,4.6313,4.6313,4.6313,4.6313,4.6313,4.6313,4.5702,4.5342,4.5342,4.4034,4.3012,4.2351,4.2351,4.2319,4.2213,4.2213,4.1863,4.1235,4.1235,4.0893,4.0257,3.9572,3.9265,3.9199,3.8503,3.8181,3.8181,3.8181,3.8181,3.8181,3.8181,3.8181,3.8181,3.8181,3.8181,3.8181,3.8181,3.7881,3.7415,3.6949,3.6484,3.5986,3.5335,3.5046,3.4828,3.4517,3.4298,3.4079,3.3765,3.367,3.367,3.367,3.3544,3.3386,3.3386,3.3386,3.3386,3.3386,3.3386,3.3386,3.3386,3.3386,3.3386,3.3386,3.3386,3.3386,3.3386,3.3386,3.3386,3.3386,3.2142,3.1313,3.1313,2.8673,2.712,2.712,2.5846,2.5093,2.5093,2.5093,2.5093,2.5093,2.5093,2.5093,2.5093,2.5093,2.5093,2.5093,2.5093,2.4984,2.4815,2.4815,2.4604,2.4265,2.4054,2.3884,2.3679,2.3304,2.3167,2.3133,2.2962,2.2893,2.2893,4.6313,4.6313,4.6313,4.6313,4.6313,4.6313,4.6313,4.6313,4.6313,4.6313,4.6313,4.6313,4.6313,4.6313,4.6313,4.6313,4.609,4.5956,4.5956,4.4706,4.3929,4.3929,4.2592,4.1332,4.0235,3.9986,4.0387,4.1524,4.1524,4.0957,3.9855,3.9855,3.9254,3.8181,3.8181,3.8181,3.8181,3.8181,3.8181,3.8181,3.8181,3.8181,3.8181,3.8181,3.8181,3.8181,3.8181,3.8181,3.8181,3.8181,3.7829,3.7312,3.6918,3.6368,3.5757,3.5096,3.4828,3.461,3.4047,3.3859,3.3765,3.3481,3.3386,3.3386,3.3386,3.3386,3.3386,3.3386,3.3386,3.3386,3.3386,3.3386,3.3386,3.3386,3.3386,3.3386,3.3386,3.3386,3.3386,3.3386,3.3386,3.3292,3.306,3.1781,3.083,3.0595,2.8221,2.6753,2.6753,2.5712,2.5093,2.5093,2.5093,2.5093,2.5093,2.5093,2.5093,2.5093,2.5093,2.5093,2.5093,2.5018,2.4815,2.4503,2.4435,2.4231,2.3857,2.3543,2.3372,2.3304,2.2996,2.2893,2.2893,2.2893,2.2893,2.2893,4.6313,4.6313,4.6313,4.6313,4.6313,4.6313,4.6313,4.6313,4.6313,4.6313,4.6313,4.6313,4.6313,4.6313,4.6313,4.6313,4.5251,4.4571,4.4571,4.3263,4.2497,4.2497,4.1171,4.0387,4.0203,3.9067,3.857,3.8747,3.8747,3.8659,3.847,3.847,3.837,3.8181,3.8181,3.8181,3.8181,3.8181,3.8181,3.8181,3.8181,3.8181,3.8181,3.8181,3.8181,3.8181,3.8181,3.8181,3.8181,3.8181,3.7612,3.6887,3.6825,3.5993,3.5034,3.4942,3.4485,3.4016,3.3922,3.3702,3.3459,3.3418,3.3386,3.3386,3.3386,3.3386,3.3386,3.3386,3.3386,3.3386,3.3386,3.3386,3.3386,3.3386,3.3386,3.3386,3.3386,3.3386,3.3386,3.3386,3.3386,3.2924,3.1707,3.0313,2.8986,2.7767,2.6234,2.5382,2.5382,2.5187,2.5093,2.5093,2.5093,2.5093,2.5093,2.5093,2.5093,2.5093,2.5093,2.5093,2.5086,2.4747,2.4536,2.4469,2.4197,2.3857,2.3475,2.3406,2.3236,2.2962,2.2928,2.2893,2.2893,2.2893,2.2893,2.2893,4.6313,4.6313,4.6313,4.6313,4.6313,4.6313,4.6313,4.6313,4.6313,4.6313,4.6313,4.6313,4.6313,4.5629,4.5178,4.5178,4.3929,4.3138,4.3138,4.1831,4.1011,4.0806,3.9692,3.8892,3.8484,3.8083,3.776,3.7603,3.8014,3.8181,3.8181,3.8181,3.8181,3.8181,3.8181,3.8181,3.8181,3.8181,3.8181,3.8181,3.8181,3.8181,3.8181,3.8181,3.8181,3.8181,3.8181,3.8181,3.8181,3.8181,3.757,3.6772,3.6579,3.5783,3.4828,3.4454,3.4141,3.3859,3.367,3.3513,3.3386,3.3386,3.3386,3.3386,3.3386,3.3386,3.3386,3.3386,3.3386,3.3386,3.3386,3.3386,3.3386,3.3386,3.3386,3.3386,3.3386,3.3386,3.3386,3.3386,3.2702,3.1973,3.1345,2.9304,2.7775,2.7153,2.588,2.5093,2.5093,2.5093,2.5093,2.5093,2.5093,2.5093,2.5093,2.5093,2.4984,2.4774,2.4774,2.4774,2.4774,2.457,2.4292,2.3884,2.3713,2.3475,2.3133,2.3133,2.303,2.2893,2.2893,2.2893,2.2893,2.2893,2.2893,2.2893]},{"header":{"parameterUnit":"m.s-1","parameterCategory":1,"la1":30.6,"la2":28.766,"lo1":-90.7593,"lo2":-88.6598,"dy":0.0162,"dx":0.0183,"nx":116,"ny":114,"refTime":"2023-11-07T06:00:00:Z","depth":0,"parameterNumber":3,"parameterNumberName":"V-component_of_WINDS"},"data":[0.0,0.0,0.0,0.0,0.0,0.0,0.0,0.0,0.0,0.0,0.0,0.0,0.0,0.0,0.0,0.0,0.0,0.0,0.0,0.0,0.0,0.0,0.0,0.0,0.0,0.0,0.0,0.0,0.0,0.0,0.0,0.0,0.0,0.0,0.0,0.0,0.0,0.0,0.0,0.0,0.0,0.0,0.0,0.0,0.0,0.0,0.0,0.0,0.0,0.0,0.0,0.0,0.0,0.0,0.0,0.0,0.0,0.0,0.0,0.0,0.0,0.0,0.0,0.0,0.0,0.0,0.0,0.0,0.0,0.0,0.0,0.0,0.0,0.0,0.0,0.0,0.0,0.0,0.0,0.0,0.0,0.0,0.0,0.0,0.0,0.0,0.0,0.0,0.0,0.0,0.0,0.0,0.0,0.0,0.0,0.0,0.0,0.0,0.0,0.0,0.0,0.0,0.0,0.0,0.0,0.0,0.0,0.0,0.0,0.0,0.0,0.0,0.0,0.0,0.0,0.0,0.0,0.0,0.0,0.0,0.0,0.0,0.0,0.0,0.0,0.0,0.0,0.0,0.0,0.0,0.0,0.0,0.0,0.0,0.0,0.0,0.0,0.0,0.0,0.0,0.0,0.0,0.0,0.0,0.0,0.0,0.0,0.0,0.0,0.0,0.0,0.0,0.0,0.0,0.0,0.0,0.0,0.0,0.0,0.0,0.0,0.0,0.0,0.0,0.0,0.0,0.0,0.0,0.0,0.0,0.0,0.0,0.0,0.0,0.0,0.0,0.0,0.0,0.0,0.0,0.0,0.0,0.0,0.0,0.0,0.0,0.0,0.0,0.0,0.0,0.0,0.0,0.0,0.0,0.0,0.0,0.0,0.0,0.0,0.0,0.0,0.0,0.0,0.0,0.0,0.0,0.0,0.0,0.0,0.0,0.0,0.0,0.0,0.0,0.0,0.0,0.0,0.0,0.0,0.0,0.0,0.0,0.0,0.0,0.0,0.0,0.0,0.0,0.0,0.0,0.0,0.0,0.0,0.0,0.0,0.0,0.0,0.0,0.0,0.0,0.0,0.0,0.0,0.0,0.0,0.0,0.0,0.0,0.0,0.0,0.0,0.0,0.0,0.0,0.0,0.0,0.0,0.0,0.0,0.0,0.0,0.0,0.0,0.0,0.0,0.0,0.0,0.0,0.0,0.0,0.0,0.0,0.0,0.0,0.0,0.0,0.0,0.0,0.0,0.0,0.0,0.0,0.0,0.0,0.0,0.0,0.0,0.0,0.0,0.0,0.0,0.0,0.0,0.0,0.0,0.0,0.0,0.0,0.0,0.0,0.0,0.0,0.0,0.0,0.0,0.0,0.0,0.0,0.0,0.0,0.0,0.0,0.0,0.0,0.0,0.0,0.0,0.0,0.0,0.0,0.0,0.0,0.0,0.0,0.0,0.0,0.0,0.0,0.0,0.0,0.0,0.0,0.0,0.0,0.0,0.0,0.0,0.0,0.0,0.0,0.0,0.0,0.0,0.0,0.0,0.0,0.0,0.0,0.0,0.0,0.0,0.0,0.0,0.0,0.0,0.0,0.0,0.0,0.0,0.0,0.0,0.0,0.0,0.0,0.0,0.0,0.0,0.0,0.0,0.0,0.0,0.0,0.0,0.0,0.0,0.0,0.0,0.0,0.0,0.0,0.0,0.0,0.0,0.0,0.0,0.0,0.0,0.0,0.0,0.0,0.0,0.0,0.0,0.0,0.0,0.0,0.0,0.0,0.0,0.0,0.0,0.0,0.0,0.0,0.0,0.0,0.0,0.0,0.0,0.0,0.0,0.0,0.0,0.0,0.0,0.0,0.0,0.0,0.0,0.0,0.0,0.0,0.0,0.0,0.0,0.0,0.0,0.0,0.0,0.0,0.0,0.0,0.0,0.0,0.0,0.0,0.0,0.0,0.0,0.0,0.0,0.0,0.0,0.0,0.0,0.0,0.0,0.0,0.0,0.0,0.0,0.0,0.0,0.0,0.0,0.0,0.0,0.0,0.0,0.0,0.0,0.0,0.0,0.0,0.0,0.0,0.0,0.0,0.0,0.0,0.0,0.0,0.0,0.0,0.0,0.0,0.0,0.0,0.0,0.0,0.0,0.0,0.0,0.0,0.0,0.0,0.0,0.0,0.0,0.0,0.0,0.0,0.0,0.0,0.0,0.0,0.0,0.0,0.0,0.0,0.0,0.0,0.0,0.0,0.0,0.0,0.0,0.0,0.0,0.0,0.0,0.0,0.0,0.0,0.0,0.0,0.0,0.0,0.0,0.0,0.0,0.0,0.0,0.0,0.0,0.0,0.0,0.0,0.0,0.0,0.0,0.0,0.0,0.0,0.0,0.0,0.0,0.0,0.0,0.0,0.0,0.0,0.0,0.0,0.0,0.0,0.0,0.0,0.0,0.0,0.0,0.0,0.0,0.0,0.0,0.0,0.0,0.0,0.0,0.0,0.0,0.0,0.0,0.0,0.0,0.0,0.0,0.0,0.0,0.0,0.0,0.0,0.0,0.0,0.0,0.0,0.0,0.0,0.0,0.0,0.0,0.0,0.0,0.0,0.0,0.0,0.0,0.0,0.0,0.0,0.0,0.0,0.0,0.0,0.0,0.0,0.0,0.0,0.0,0.0,0.0,0.0,0.0,0.0,0.0,0.0,0.0,0.0,0.0,0.0,0.0,0.0,0.0,0.0,0.0,0.0,0.0,0.0,0.0,0.0,0.0,0.0,0.0,0.0,0.0,0.0,0.0,0.0,0.0,0.0,0.0,0.0,0.0,0.0,0.0,0.0,0.0,0.0,0.0,0.0,0.0,0.0,0.0,0.0,0.0,0.0,0.0,0.0,0.0,0.0,0.0,0.0,0.0,0.0,0.0,0.0,0.0,0.0,0.0,0.0,0.0,0.0,0.0,0.0,0.0,0.0,0.0,0.0,0.0,0.0,0.0,0.0,0.0,0.0,0.0,0.0,0.0,0.0,0.0,0.0,0.0,0.0,0.0,0.0,0.0,0.0,0.0,0.0,0.0,0.0,0.0,0.0,0.0,0.0,0.0,0.0,0.0,0.0,0.0,0.0,0.0,0.0,0.0,0.0,0.0,0.0,0.0,0.0,0.0,0.0,0.0,0.0,0.0,0.0,0.0,0.0,0.0,0.0,0.0,0.0,0.0,0.0,0.0,0.0,0.0,0.0,0.0,0.0,0.0,0.0,0.0,0.0,0.0,0.0,0.0,0.0,0.0,0.0,0.0,0.0,0.0,0.0,0.0,0.0,0.0,0.0,0.0,0.0,0.0,0.0,0.0,0.0,0.0,0.0,0.0,0.0,0.0,0.0,0.0,0.0,0.0,0.0,0.0,0.0,0.0,0.0,0.0,0.0,0.0,0.0,0.0,0.0,0.0,0.0,0.0,0.0,0.0,0.0,0.0,0.0,0.0,0.0,0.0,0.0,0.0,0.0,0.0,0.0,0.0,0.0,0.0,0.0,0.0,0.0,0.0,0.0,0.0,0.0,0.0,0.0,0.0,0.0,0.0,0.0,0.0,0.0,0.0,0.0,0.0,0.0,0.0,0.0,0.0,0.0,0.0,0.0,0.0,0.0,0.0,0.0,0.0,0.0,0.0,0.0,0.0,0.0,0.0,0.0,0.0,0.0,0.0,0.0,0.0,0.0,0.0,0.0,0.0,0.0,0.0,0.0,0.0,0.0,0.0,0.0,0.0,0.0,0.0,0.0,0.0,0.0,0.0,0.0,0.0,0.0,0.0,0.0,0.0,0.0,0.0,0.0,0.0,0.0,0.0,0.0,0.0,0.0,0.0,0.0,0.0,0.0,0.0,0.0,0.0,0.0,0.0,0.0,0.0,0.0,0.0,0.0,0.0,0.0,0.0,0.0,0.0,0.0,0.0,0.0,0.0,0.0,0.0,0.0,0.0,0.0,0.0,0.0,0.0,0.0,0.0,0.0,0.0,0.0,0.0,0.0,0.0,0.0,0.0,0.0,0.0,0.0,0.0,0.0,0.0,0.0,0.0,0.0,0.0,0.0,0.0,0.0,0.0,0.0,0.0,0.0,0.0,0.0,0.0,0.0,0.0,0.0,0.0,0.0,0.0,0.0,0.0,0.0,0.0,0.0,0.0,0.0,0.0,0.0,0.0,0.0,0.0,0.0,0.0,0.0,0.0,0.0,0.0,0.0,0.0,0.0,0.0,0.0,0.0,0.0,0.0,0.0,0.0,0.0,0.0,0.0,0.0,0.0,0.0,0.0,0.0,0.0,0.0,0.0,0.0,0.0,0.0,0.0,0.0,0.0,0.0,0.0,0.0,0.0,0.0,0.0,0.0,0.0,0.0,0.0,0.0,0.0,0.0,0.0,0.0,0.0,0.0,0.0,0.0,0.0,0.0,0.0,0.0,0.0,0.0,0.0,0.0,0.0,0.0,0.0,0.0,0.0,0.0,0.0,0.0,0.0,0.0,0.0,0.0,0.0,0.0,0.0,0.0,0.0,0.0,0.0,0.0,0.0,0.0,0.0,0.0,0.0,0.0,0.0,0.0,0.0,0.0,0.0,0.0,0.0,0.0,0.0,0.0,0.0,0.0,0.0,0.0,0.0,0.0,0.0,0.0,0.0,0.0,0.0,0.0,0.0,0.0,0.0,0.0,0.0,0.0,0.0,0.0,0.0,0.0,0.0,0.0,0.0,0.0,0.0,0.0,0.0,0.0,0.0,0.0,0.0,0.0,0.0,0.0,0.0,0.0,0.0,0.0,0.0,0.0,0.0,0.0,0.0,0.0,0.0,0.0,0.0,0.0,0.0,0.0,0.0,0.0,0.0,0.0,0.0,0.0,0.0,0.0,0.0,0.0,0.0,0.0,0.0,0.0,0.0,0.0,0.0,0.0,0.0,0.0,0.0,0.0,0.0,0.0,0.0,0.0,0.0,0.0,0.0,0.0,0.0,0.0,0.0,0.0,0.0,0.0,0.0,0.0,0.0,0.0,0.0,0.0,0.0,0.0,0.0,0.0,0.0,0.0,0.0,0.0,0.0,0.0,0.0,0.0,0.0,0.0,0.0,0.0,0.0,0.0,0.0,0.0,0.0,0.0,0.0,0.0,0.0,0.0,0.0,0.0,0.0,0.0,0.0,0.0,0.0,0.0,0.0,0.0,0.0,0.0,0.0,0.0,0.0,0.0,0.0,0.0,0.0,0.0,0.0,0.0,0.0,0.0,0.0,0.0,0.0,0.0,0.0,0.0,0.0,0.0,0.0,0.0,0.0,0.0,0.0,0.0,0.0,0.0,0.0,0.0,0.0,0.0,0.0,0.0,0.0,0.0,0.0,0.0,0.0,0.0,0.0,0.0,0.0,0.0,0.0,0.0,0.0,0.0,0.0,0.0,0.0,0.0,0.0,0.0,0.0,0.0,0.0,0.0,0.0,0.0,0.0,0.0,0.0,0.0,0.0,0.0,0.0,0.0,0.0,0.0,0.0,0.0,0.0,0.0,0.0,0.0,0.0,0.0,0.0,0.0,0.0,0.0,0.0,0.0,0.0,0.0,0.0,0.0,0.0,0.0,0.0,0.0,0.0,0.0,0.0,0.0,0.0,0.0,0.0,0.0,0.0,0.0,0.0,0.0,0.0,0.0,0.0,0.0,0.0,0.0,0.0,0.0,0.0,0.0,0.0,0.0,0.0,0.0,0.0,0.0,0.0,0.0,0.0,0.0,0.0,0.0,0.0,0.0,0.0,0.0,0.0,0.0,0.0,0.0,0.0,0.0,0.0,0.0,0.0,0.0,0.0,0.0,0.0,0.0,0.0,0.0,0.0,0.0,0.0,0.0,0.0,0.0,0.0,0.0,0.0,0.0,0.0,0.0,0.0,0.0,0.0,0.0,0.0,0.0,0.0,0.0,0.0,0.0,0.0,0.0,0.0,0.0,0.0,0.0,0.0,0.0,0.0,0.0,0.0,0.0,0.0,0.0,0.0,0.0,0.0,0.0,0.0,0.0,0.0,0.0,0.0,0.0,0.0,0.0,0.0,0.0,0.0,0.0,0.0,0.0,0.0,0.0,0.0,0.0,0.0,0.0,0.0,3.2068,0.0,0.0,0.0,0.0,0.0,0.0,0.0,0.0,0.0,0.0,0.0,0.0,0.0,0.0,0.0,0.0,0.0,0.0,0.0,0.0,0.0,0.0,0.0,0.0,0.0,0.0,0.0,0.0,0.0,0.0,0.0,0.0,0.0,0.0,0.0,0.0,0.0,0.0,0.0,2.5295,2.6609,2.7423,2.6591,2.6242,2.6304,0.0,0.0,0.0,0.0,0.0,0.0,0.0,0.0,0.0,0.0,0.0,0.0,0.0,0.0,0.0,0.0,0.0,0.0,0.0,0.0,0.0,0.0,0.0,0.0,0.0,0.0,0.0,0.0,0.0,0.0,0.0,0.0,0.0,0.0,0.0,0.0,0.0,0.0,0.0,0.0,0.0,0.0,0.0,0.0,0.0,0.0,0.0,0.0,0.0,0.0,0.0,0.0,0.0,0.0,0.0,0.0,0.0,0.0,0.0,0.0,0.0,0.0,0.0,0.0,0.0,0.0,0.0,0.0,0.0,0.0,0.0,3.2289,0.0,0.0,0.0,0.0,0.0,0.0,0.0,0.0,0.0,0.0,0.0,0.0,0.0,0.0,0.0,0.0,0.0,0.0,0.0,0.0,0.0,0.0,0.0,0.0,0.0,0.0,0.0,0.0,0.0,0.0,0.0,0.0,0.0,0.0,0.0,0.0,0.0,2.4988,2.6476,2.8082,2.9736,2.94,2.8697,2.769,2.7526,0.0,0.0,0.0,0.0,0.0,0.0,0.0,0.0,0.0,0.0,0.0,0.0,0.0,0.0,0.0,0.0,0.0,0.0,0.0,0.0,0.0,0.0,0.0,0.0,0.0,0.0,0.0,0.0,0.0,0.0,0.0,0.0,0.0,0.0,0.0,0.0,0.0,0.0,0.0,0.0,0.0,0.0,0.0,0.0,0.0,0.0,0.0,0.0,0.0,0.0,0.0,0.0,0.0,0.0,0.0,0.0,0.0,0.0,0.0,0.0,0.0,0.0,0.0,0.0,3.2491,3.2511,3.2678,3.2738,3.2764,3.3034,3.3346,3.3548,0.0,0.0,0.0,0.0,0.0,0.0,0.0,0.0,0.0,0.0,0.0,0.0,0.0,0.0,0.0,0.0,0.0,0.0,0.0,0.0,0.0,0.0,0.0,2.1807,2.1807,2.1807,0.0,0.0,0.0,0.0,0.0,0.0,0.0,0.0,2.629,2.7211,2.6926,2.874,3.0149,3.1131,3.107,3.0979,3.0765,3.0008,2.9898,3.0262,0.0,0.0,0.0,0.0,0.0,0.0,0.0,0.0,0.0,0.0,0.0,0.0,0.0,0.0,0.0,0.0,0.0,0.0,0.0,0.0,0.0,0.0,0.0,0.0,0.0,0.0,0.0,0.0,0.0,0.0,0.0,0.0,0.0,0.0,0.0,0.0,0.0,0.0,0.0,0.0,0.0,3.1406,3.199,0.0,0.0,0.0,0.0,0.0,0.0,0.0,0.0,0.0,0.0,0.0,0.0,0.0,0.0,3.3125,3.3138,3.3454,3.4092,3.4092,3.4092,3.41,3.4113,3.4134,3.4134,3.4191,0.0,3.3587,3.3488,0.0,0.0,0.0,0.0,0.0,0.0,0.0,0.0,0.0,0.0,0.0,0.0,0.0,0.0,0.0,0.0,0.0,0.0,0.0,0.0,0.0,0.0,2.2917,2.2917,2.3605,0.0,0.0,0.0,0.0,0.0,0.0,2.5123,2.5599,2.7612,2.9097,3.0055,3.0896,3.1646,3.2361,3.2361,3.2361,3.234,3.1969,3.1518,3.1047,3.1047,0.0,0.0,0.0,0.0,0.0,0.0,0.0,0.0,0.0,0.0,0.0,0.0,0.0,0.0,0.0,0.0,0.0,0.0,0.0,0.0,0.0,0.0,0.0,0.0,0.0,0.0,0.0,0.0,0.0,0.0,0.0,0.0,0.0,0.0,0.0,0.0,0.0,0.0,0.0,3.2008,3.2232,3.2918,3.2549,3.2206,0.0,0.0,0.0,0.0,0.0,0.0,0.0,0.0,0.0,3.3222,3.3317,3.3693,3.4423,3.4415,3.4752,3.5365,3.5365,3.5365,3.5365,3.5365,3.5365,3.5365,3.5365,3.5221,3.4959,3.4306,3.4045,3.4018,0.0,0.0,0.0,0.0,0.0,3.3247,0.0,0.0,0.0,0.0,0.0,0.0,0.0,0.0,0.0,0.0,0.0,0.0,2.2307,2.3504,2.4314,2.4314,2.5218,2.5512,2.489,0.0,0.0,0.0,0.0,2.5876,2.6989,2.8867,3.0622,3.2194,3.2353,3.2654,3.3102,3.3102,3.3102,3.3102,3.3102,3.255,3.1599,3.1599,3.1298,3.0789,0.0,0.0,0.0,0.0,0.0,0.0,0.0,0.0,0.0,0.0,0.0,0.0,0.0,0.0,0.0,0.0,0.0,0.0,0.0,0.0,0.0,0.0,0.0,0.0,0.0,0.0,0.0,0.0,0.0,0.0,0.0,0.0,0.0,0.0,0.0,0.0,0.0,3.307,3.3035,3.3796,3.3354,3.2902,0.0,0.0,0.0,0.0,0.0,0.0,3.3407,3.3979,3.4403,3.4609,3.4609,3.4915,3.5495,3.5495,3.5704,3.6109,3.6253,3.6332,3.6345,3.6488,3.6567,3.6567,3.6567,3.6475,3.6253,3.5247,3.4829,3.4829,3.4829,3.4829,3.4829,3.4829,3.458,3.4293,0.0,0.0,0.0,0.0,0.0,0.0,0.0,0.0,0.0,0.0,0.0,2.3711,2.3711,2.4902,2.5708,2.5708,2.5751,2.5781,2.5743,2.5375,2.5532,2.635,2.5987,2.6593,2.8355,3.0308,3.1583,3.2194,3.2767,3.3077,3.3102,3.3102,3.3102,3.3102,3.3102,3.2742,3.2156,3.2156,3.1851,3.1331,3.0821,0.0,0.0,0.0,0.0,0.0,0.0,0.0,0.0,0.0,0.0,0.0,0.0,0.0,0.0,0.0,0.0,0.0,0.0,0.0,0.0,0.0,0.0,0.0,0.0,0.0,0.0,0.0,0.0,0.0,0.0,0.0,0.0,0.0,0.0,0.0,0.0,0.0,0.0,3.427,3.4155,0.0,0.0,0.0,0.0,3.3602,3.3661,3.4024,3.477,3.4844,3.521,3.5983,3.5996,3.6009,3.6057,3.6057,3.607,3.6109,3.6684,3.6959,3.6972,3.7547,3.7808,3.7808,3.7808,3.7482,3.692,3.6279,3.6018,3.6018,3.6018,3.6018,3.6018,3.6018,3.6005,3.5979,0.0,0.0,0.0,0.0,0.0,0.0,0.0,0.0,0.0,2.1883,2.3432,2.4382,2.3858,2.5777,2.6861,2.6297,2.7873,2.8136,2.6367,2.7245,2.7696,2.736,2.7476,2.8441,3.0329,3.138,3.2202,3.2788,3.2989,3.3102,3.3102,3.3102,3.3102,3.3102,3.3102,3.2989,3.2788,3.2788,3.2441,3.1901,3.1725,3.1215,0.0,0.0,0.0,0.0,0.0,0.0,0.0,0.0,0.0,0.0,0.0,0.0,0.0,0.0,0.0,0.0,0.0,0.0,0.0,0.0,0.0,0.0,0.0,0.0,0.0,0.0,0.0,0.0,0.0,0.0,0.0,0.0,0.0,0.0,0.0,0.0,0.0,3.4176,3.4139,0.0,0.0,3.4229,3.447,3.447,3.4943,3.5371,3.5666,3.5679,3.5983,3.6671,3.6684,3.7037,3.7782,3.7782,3.7978,3.8357,3.8579,3.8684,3.8684,3.8906,3.8998,3.8998,3.8998,3.888,3.8671,3.8449,3.7469,3.6109,3.6109,3.6109,3.6109,3.6109,3.6475,3.7,0.0,0.0,0.0,0.0,0.0,0.0,0.0,0.0,0.0,2.2889,2.4484,2.5519,2.5199,2.7143,2.8322,2.7921,2.9232,2.946,2.7992,2.845,2.8701,2.8483,2.8956,2.9852,3.1191,3.188,3.2503,3.3102,3.3102,3.3102,3.3102,3.3102,3.3102,3.3102,3.3102,3.3102,3.3102,3.3102,3.2876,3.2491,3.229,3.1675,3.0859,0.0,0.0,0.0,0.0,0.0,0.0,0.0,0.0,0.0,0.0,0.0,0.0,0.0,0.0,0.0,0.0,0.0,0.0,0.0,0.0,0.0,0.0,0.0,0.0,0.0,0.0,0.0,0.0,0.0,0.0,0.0,0.0,0.0,0.0,0.0,3.4139,3.4202,3.4383,3.4437,3.4254,3.49,3.531,3.531,3.5996,3.6502,3.6698,3.6881,3.726,3.7861,3.7887,3.824,3.9011,3.917,3.9457,3.9862,4.0278,4.0474,4.0474,4.0671,4.0762,4.0762,4.1129,4.1181,4.1009,4.1009,3.9866,3.8108,3.7887,3.7785,3.7829,3.8171,3.8697,3.9225,0.0,0.0,0.0,0.0,0.0,0.0,0.0,0.0,0.0,2.4855,2.6159,2.7162,2.7705,2.8998,3.0011,3.049,2.9719,2.9577,3.0473,2.889,2.8489,2.9764,3.0337,3.0728,3.0936,3.1794,3.2516,3.3102,3.3102,3.3102,3.3102,3.3102,3.3102,3.3102,3.3102,3.3102,3.3102,3.3102,3.3102,3.3052,3.2466,3.1913,3.1361,0.0,0.0,0.0,0.0,0.0,0.0,0.0,0.0,0.0,0.0,0.0,0.0,0.0,0.0,0.0,0.0,0.0,0.0,0.0,0.0,0.0,0.0,0.0,0.0,0.0,0.0,0.0,0.0,0.0,0.0,0.0,0.0,0.0,3.4397,3.4256,3.4207,3.4403,3.4959,3.5325,3.5351,3.5848,3.6162,3.6188,3.6737,3.7338,3.7926,3.8462,3.9037,3.9614,3.9677,3.9703,3.9716,4.0215,4.0476,4.0489,4.1676,4.2212,4.2238,4.2762,4.3023,4.3114,4.4102,4.4294,4.3879,4.384,4.3195,4.216,4.1402,4.1098,4.1223,4.2225,4.262,4.2628,0.0,0.0,0.0,0.0,0.0,0.0,0.0,0.0,2.4728,2.5478,2.7191,2.7971,2.6964,2.8966,2.9922,2.8825,3.0328,3.0734,2.931,2.9954,3.0404,3.0367,3.1265,3.1789,3.1832,3.251,3.2939,3.3102,3.3102,3.3102,3.3102,3.3102,3.3102,3.3102,3.3102,3.3102,3.3102,3.3102,3.3102,3.309,3.2927,3.2491,3.1955,0.0,0.0,0.0,0.0,0.0,0.0,0.0,0.0,0.0,0.0,0.0,0.0,0.0,0.0,0.0,0.0,0.0,0.0,0.0,0.0,0.0,0.0,0.0,0.0,0.0,0.0,0.0,0.0,0.0,0.0,0.0,0.0,3.4397,3.4397,3.4734,3.4987,3.5051,3.5534,3.6057,3.6488,3.7063,3.7573,3.7965,3.8553,3.8972,3.9128,3.9627,4.0226,4.0803,4.1246,4.1664,4.2056,4.22,4.2278,4.2292,4.2631,4.2788,4.2788,4.2918,4.3424,4.4127,4.3643,4.4275,4.556,4.4724,4.4667,4.4915,4.2578,4.1441,4.1223,4.2225,4.2991,4.3632,0.0,0.0,0.0,0.0,0.0,0.0,0.0,2.5508,2.6101,2.6988,2.8148,2.874,2.8266,2.9257,2.9919,2.9765,3.0317,3.0435,2.9869,3.061,3.1135,3.1253,3.1867,3.2328,3.2566,3.2927,3.3102,3.3102,3.3102,3.3102,3.3102,3.3102,3.3102,3.3102,3.3102,3.3102,3.3102,3.3102,3.3102,3.3102,3.3102,3.2729,3.2194,3.2194,3.1863,3.1406,3.1406,3.1406,3.1406,3.1406,0.0,0.0,0.0,0.0,0.0,0.0,0.0,0.0,0.0,0.0,0.0,0.0,0.0,0.0,0.0,0.0,0.0,0.0,0.0,0.0,0.0,0.0,0.0,0.0,3.4776,3.4855,3.5077,3.5221,3.5378,3.5613,3.6358,3.6998,3.7351,3.8135,3.8749,3.9063,3.9847,4.0306,4.0306,4.1051,4.1638,4.1991,4.2356,4.2683,4.2997,4.3258,4.3599,4.4054,4.4293,4.466,4.5098,4.5098,4.5443,0.0,4.585,4.6503,4.7636,4.6961,4.6929,0.0,0.0,0.0,0.0,0.0,4.5733,4.624,0.0,0.0,0.0,0.0,0.0,0.0,0.0,2.6998,2.7479,2.8837,2.9007,2.937,3.0356,2.9805,3.0076,3.1905,3.0128,2.9619,3.1284,3.1022,3.1203,3.2156,3.2277,3.2554,3.309,3.3102,3.3102,3.3102,3.3102,3.3102,3.3102,3.3102,3.3102,3.3102,3.3102,3.3102,3.3102,3.3102,3.3102,3.3102,3.3102,3.2788,3.2303,3.2303,3.2001,3.1595,3.1615,3.1595,3.1595,3.1636,0.0,0.0,0.0,0.0,0.0,0.0,0.0,0.0,0.0,0.0,0.0,0.0,0.0,0.0,0.0,0.0,0.0,0.0,0.0,0.0,0.0,0.0,0.0,0.0,3.5351,3.56,3.6227,3.5887,3.577,3.6253,3.7364,3.8122,3.8187,3.9168,3.9834,3.9899,4.0893,4.1532,4.1669,0.0,0.0,0.0,0.0,4.3428,4.3558,4.4085,4.4848,4.5792,4.6324,4.7074,4.8005,4.8005,4.808,4.8231,4.9057,4.9562,4.9771,4.9649,4.9373,4.8905,4.8117,4.7879,4.8088,4.8968,4.9292,0.0,0.0,0.0,0.0,0.0,0.0,0.0,0.0,2.7627,2.8109,2.9444,2.9628,2.9614,2.9561,3.04,3.1001,3.1135,3.1353,3.1476,3.1391,3.1712,3.1968,3.2181,3.2667,3.2989,3.3102,3.3102,3.3102,3.3102,3.3102,3.3102,3.3102,3.3102,3.3102,3.3102,3.3102,3.3102,3.3102,3.3102,3.3102,3.3102,3.3102,3.3027,3.2939,3.2939,3.2864,3.2784,3.2942,3.2912,3.2827,3.3153,3.3145,3.3055,3.3369,0.0,0.0,0.0,0.0,0.0,0.0,0.0,0.0,0.0,0.0,0.0,0.0,0.0,0.0,0.0,0.0,0.0,0.0,0.0,0.0,3.5273,3.5665,3.6319,3.7403,3.7469,3.7442,3.7547,3.8579,3.9455,3.9862,4.0566,4.1167,4.1663,4.2304,4.3043,4.3904,4.3793,0.0,4.6262,4.5944,4.6151,4.7008,4.7158,4.7316,4.7533,0.0,0.0,4.8005,4.8005,4.8457,4.9254,4.8596,4.9303,5.0822,4.9965,5.0036,5.0534,4.8565,4.8311,4.9028,4.9224,4.9292,4.9292,0.0,0.0,0.0,0.0,0.0,0.0,0.0,2.8802,2.9036,2.9715,2.9792,2.9836,2.9941,3.013,3.0499,3.1114,3.1539,3.1687,3.1432,3.1901,3.234,3.2641,3.2939,3.3102,3.3102,3.3102,3.3102,3.3102,3.3102,3.3102,3.3102,3.3102,3.3102,3.3102,3.3102,3.3102,3.3102,3.3102,3.3102,3.3102,3.3102,3.3102,3.3102,3.3102,3.3102,3.3124,3.3219,3.3197,3.3133,3.3334,3.3398,3.3441,3.3641,3.3725,3.3802,0.0,0.0,0.0,0.0,0.0,0.0,0.0,0.0,0.0,0.0,0.0,0.0,0.0,0.0,3.4842,0.0,0.0,3.59,3.6502,3.6828,3.7416,3.8593,3.8985,3.9063,3.8789,3.9769,4.0566,4.0816,4.1625,4.2291,4.2579,4.3127,4.3912,4.5005,4.5122,4.59,4.7491,4.7318,4.7459,4.8005,4.8005,4.8282,4.8795,4.8795,4.9067,4.9596,4.9596,4.9878,5.0364,4.9829,5.0206,5.1167,5.0618,5.0713,5.1084,4.9954,4.9796,5.0242,5.0242,5.0242,5.0242,0.0,0.0,0.0,0.0,0.0,0.0,0.0,0.0,0.0,2.9772,2.9643,2.9817,3.0518,2.9877,2.9882,3.1137,3.1436,3.1499,3.1419,3.2014,3.2591,3.3077,3.3102,3.3102,3.3102,3.3102,3.3102,3.3102,3.3102,3.3102,3.3102,3.3102,3.3102,3.3102,3.3102,3.3102,3.3102,3.3102,3.3102,3.3102,3.3102,3.3124,3.3154,3.3154,3.3154,3.3154,3.3197,3.3219,3.324,3.3326,3.3505,3.3725,3.3797,3.3958,3.4139,3.4335,3.4293,0.0,0.0,0.0,0.0,0.0,0.0,0.0,0.0,0.0,3.4567,3.4567,3.5038,3.5456,3.5456,3.6005,3.6776,3.7743,3.8096,3.8593,3.9625,4.0215,4.0474,4.0148,4.0919,4.1533,4.1612,4.2579,4.3258,4.3467,4.4046,4.4954,4.623,4.6569,4.7306,4.8582,4.8432,4.8407,4.8631,4.8631,4.9042,4.9917,4.9917,5.0364,5.1191,5.1191,5.1191,5.1191,5.1191,5.1191,5.1191,5.1191,5.1191,5.1191,5.1191,5.1191,5.1191,5.1191,5.1191,5.1191,0.0,0.0,0.0,0.0,0.0,0.0,0.0,0.0,0.0,2.9714,2.9131,2.9137,3.0458,3.0508,3.0513,3.0676,3.1554,3.1913,3.1424,3.2411,3.3027,3.3102,3.3102,3.3102,3.3102,3.3102,3.3102,3.3102,3.3102,3.3102,3.3102,3.3102,3.3102,3.3102,3.3102,3.3102,3.3102,3.3102,3.3102,3.3102,3.3102,3.3219,3.3377,3.3377,3.3377,3.3398,3.3577,3.3641,3.3704,3.4105,3.4021,3.3776,3.4189,3.4209,3.4139,3.4335,0.0,3.4377,3.4397,3.4397,3.4397,3.4397,3.4397,3.4397,0.0,0.0,3.5195,3.5195,3.5626,3.6018,3.6018,3.6946,3.7743,3.7887,3.8762,3.9625,4.0239,4.0816,4.1376,4.1846,4.2016,4.2291,4.2749,4.3402,4.4177,4.514,4.5797,4.7003,4.903,4.8303,4.8756,5.0784,4.9917,4.9892,5.0831,5.0831,5.0893,5.1026,5.1026,5.1097,5.1191,5.1191,5.1191,5.1191,5.1191,5.1191,5.1191,5.1191,5.1191,5.1191,5.1191,5.1191,5.1191,5.1191,5.1191,5.1191,0.0,0.0,0.0,0.0,0.0,0.0,0.0,0.0,0.0,0.0,2.9475,2.9484,3.0066,3.0131,3.0131,3.0131,3.1122,3.1637,3.1399,3.2474,3.3102,3.3102,3.3102,3.3102,3.3102,3.3102,3.3102,3.3102,3.3102,3.3102,3.3102,3.3102,3.3102,3.3102,3.3102,3.3102,3.3102,3.3102,3.3102,3.3124,3.324,3.3313,3.342,3.3535,3.3662,3.3802,3.3725,3.3691,0.0,3.3937,3.3979,3.3971,3.416,3.4264,3.4293,3.4377,3.4397,0.0,3.4397,3.4397,3.4397,0.0,3.4659,3.492,3.492,3.5365,3.577,3.577,3.6227,3.6737,3.709,3.7821,3.8593,0.0,3.9745,4.0396,4.1311,4.1651,4.2389,4.3953,4.4123,4.4204,4.4419,4.4993,4.5799,4.6867,4.7179,4.7993,4.9513,4.918,4.9635,5.1144,5.076,5.0751,5.1191,5.1191,5.1191,5.1191,5.1191,5.1191,5.1191,5.1191,5.1191,5.1191,5.1191,5.1191,5.1191,5.1191,5.1191,5.1191,5.1191,5.1191,5.1191,5.1191,5.1191,5.1191,0.0,0.0,0.0,0.0,0.0,0.0,0.0,0.0,0.0,0.0,0.0,0.0,0.0,2.9792,2.9792,2.9792,3.0791,3.1406,3.1406,3.2474,3.3102,3.3102,3.3102,3.3102,3.3102,3.3102,3.3102,3.3102,3.3102,3.3102,3.3102,3.3102,3.3102,3.3102,3.3102,3.3102,3.3102,3.3102,3.3133,3.3197,3.3334,3.3484,3.3611,3.3747,3.3958,3.416,3.3894,3.3852,3.3882,3.3882,3.4021,3.4181,3.4181,3.4272,3.4397,3.4397,3.4397,3.4358,3.4214,3.441,0.0,3.4646,3.509,3.5521,3.5521,3.5953,3.6358,3.6358,3.6946,3.7599,3.8044,3.871,3.9431,4.0254,4.0684,4.1305,4.2486,4.2908,4.3807,4.5727,4.6076,4.6313,4.6604,4.6749,4.728,4.8357,4.8432,4.8919,4.9989,5.0037,5.0388,5.1182,5.1191,5.1191,5.1191,5.1191,5.1191,5.1191,5.1191,5.1295,5.1475,5.1678,5.1753,5.1753,5.1753,5.1753,5.1753,5.1753,5.1753,5.1738,5.1535,5.1498,5.1445,5.1265,5.1191,5.1191,0.0,0.0,0.0,0.0,0.0,0.0,0.0,0.0,0.0,0.0,0.0,0.0,0.0,2.9792,2.9792,2.9792,3.0791,3.1406,3.1406,3.2474,3.3102,3.3102,3.3102,3.3102,3.3102,3.3102,3.3102,3.3102,3.3102,3.3102,3.3102,3.3102,3.3102,3.3102,3.3102,3.3102,3.3102,3.3102,3.3219,3.3398,3.3398,3.3675,3.4076,3.4097,3.4209,3.4356,3.416,3.4209,3.4377,3.4377,3.4377,3.4397,3.4397,3.4397,0.0,3.4397,3.4397,3.428,3.3757,0.0,3.5273,3.5273,3.5678,3.6083,3.6083,3.6541,3.6972,3.6972,3.7874,3.8634,3.8684,3.9575,4.0345,4.0385,4.1376,4.2515,4.3591,4.4705,4.5821,4.6928,4.7561,4.8328,0.0,4.8557,4.8396,4.9464,4.9537,5.0013,5.1097,5.1144,5.1167,5.1191,5.1191,5.1191,5.1191,5.1191,5.1191,5.1191,5.1191,5.1558,5.2187,5.2854,5.3139,5.3139,5.3139,5.3139,5.3139,5.3139,5.3139,5.3079,5.2411,5.2172,5.2097,5.143,5.1191,5.1191,0.0,0.0,0.0,0.0,0.0,0.0,0.0,0.0,0.0,0.0,0.0,0.0,0.0,0.0,0.0,0.0,3.0791,3.1406,3.1406,3.2474,3.3102,3.3102,3.3102,3.3102,3.3102,3.3102,3.3102,3.3102,3.3102,3.3102,3.3102,3.3102,3.3102,3.3102,3.3102,3.3176,3.3292,3.3292,3.342,3.362,3.3802,3.3949,3.4118,3.4264,3.4335,3.4397,0.0,3.4335,3.4397,3.4397,3.4397,3.4397,3.4397,3.4397,3.4476,3.4881,3.445,3.4071,3.4999,0.0,3.5391,3.5744,3.6266,3.6698,3.6698,3.7168,3.7704,3.8057,3.8436,3.8922,3.9703,4.0136,4.0671,4.1467,4.1937,4.2844,4.466,4.526,4.6305,4.8487,4.8952,0.0,0.0,0.0,0.0,5.057,5.0665,5.0822,5.1167,5.1191,5.1191,5.1191,5.1191,5.1191,5.1191,5.1648,5.1872,5.1872,5.2306,5.2636,5.286,5.3109,5.3198,5.3198,5.3198,5.3198,5.3198,5.3198,5.3198,5.3183,5.2959,5.2869,5.2854,5.2606,5.2516,5.2396,0.0,0.0,0.0,0.0,0.0,0.0,0.0,0.0,0.0,0.0,0.0,0.0,0.0,0.0,0.0,0.0,0.0,3.1474,3.1675,3.2575,3.3102,3.3102,3.3102,3.3102,3.3102,3.3102,3.3102,3.3102,3.3102,3.3102,3.3102,3.3176,3.3219,3.3219,3.3283,3.3398,3.3513,3.3513,3.3641,3.3852,3.4034,3.4139,3.4222,3.4356,3.4397,0.0,3.4397,3.4397,3.4397,3.4397,3.4397,3.4397,3.4397,3.4397,3.4437,3.4633,3.445,3.4397,3.526,3.5704,3.5992,3.6345,3.6881,3.7325,3.7325,3.7782,3.824,3.8383,3.8893,3.9457,4.0006,4.0437,4.105,4.2029,4.2369,4.3342,4.5737,4.627,4.7318,4.9873,5.0172,5.0436,0.0,0.0,0.0,5.1144,5.1191,5.1191,5.1191,5.1191,5.1191,5.1191,5.1191,5.131,5.1535,5.1992,5.2321,5.2561,5.3234,5.3548,5.3563,5.3812,5.3917,5.3917,5.3917,5.3917,5.3917,5.3917,5.3917,5.3902,5.3638,5.3548,5.3518,5.3303,5.3198,5.3079,0.0,0.0,0.0,0.0,0.0,0.0,0.0,0.0,0.0,0.0,0.0,0.0,0.0,0.0,0.0,0.0,0.0,0.0,3.2156,3.2754,3.3102,3.3102,3.3102,3.3102,3.3102,3.3102,3.3102,3.3102,3.3102,3.3102,3.3102,3.3313,3.3398,3.342,3.362,3.3713,3.3713,3.3713,3.3873,3.4118,3.4118,3.4243,3.4397,3.4397,3.4397,3.4397,3.4397,3.4397,3.4397,3.4397,3.4397,3.4397,3.4397,3.4384,3.428,3.3849,3.445,3.5155,3.4698,3.5757,3.7011,3.7037,3.7482,3.7913,3.7939,3.8318,3.8553,3.8122,3.9261,4.0215,0.0,0.0,4.1582,4.221,4.2786,4.4113,4.6836,4.7714,4.8869,0.0,0.0,0.0,0.0,0.0,0.0,5.1191,0.0,5.1191,5.1191,5.1191,5.1191,5.1191,5.1221,5.155,5.2187,5.2276,5.2636,5.3318,5.3952,5.4266,5.4281,5.491,5.5194,5.5194,5.5194,5.5194,5.5194,5.5194,5.5194,5.5134,5.4506,5.4266,5.4177,5.3558,5.3303,5.3303,0.0,0.0,0.0,0.0,0.0,0.0,0.0,0.0,0.0,0.0,0.0,0.0,0.0,0.0,0.0,0.0,0.0,0.0,3.2156,3.2754,3.3102,3.3102,3.3102,3.3102,3.3102,3.3102,3.3102,3.3102,3.3102,3.3102,3.3102,3.3313,3.3398,3.342,3.362,3.381,3.3992,3.3992,3.4105,3.4314,3.4314,3.4356,3.4397,3.4397,3.4397,3.4397,3.4397,3.4397,3.4397,3.4397,3.4397,3.4397,3.4397,3.4123,3.4018,3.5142,3.5064,3.4972,3.6567,3.6998,3.7116,3.756,3.7795,3.8004,3.841,3.8292,3.8423,3.9523,3.9771,4.003,0.0,0.0,0.0,4.3814,4.4736,0.0,4.862,4.9104,0.0,5.105,0.0,5.1191,5.1191,5.1191,0.0,0.0,5.1191,5.1191,5.1191,5.1191,5.1191,5.1191,5.1669,5.2037,5.2202,5.3189,5.4027,5.4685,5.485,5.494,5.494,5.5119,5.5194,5.5194,5.5194,5.5194,5.5194,5.5194,5.5194,5.5179,5.4999,5.494,5.4925,5.4745,5.4685,5.4685,0.0,0.0,0.0,0.0,0.0,0.0,0.0,0.0,0.0,0.0,0.0,0.0,0.0,0.0,0.0,0.0,0.0,0.0,0.0,3.2914,3.3102,3.3102,3.3102,3.3102,3.3102,3.3102,3.3102,3.3102,3.3197,3.324,3.324,3.3547,3.3717,3.3717,3.3915,3.4084,3.4243,3.4243,3.4293,0.0,0.0,3.4397,3.4397,3.4397,3.4397,3.4397,3.4397,3.4397,3.4397,3.4397,0.0,3.4397,3.4397,3.4371,3.4528,3.5469,0.0,3.5822,3.7155,3.7456,3.7482,3.7821,3.8083,3.8279,3.8344,3.8514,3.8776,3.922,3.964,0.0,4.0488,0.0,0.0,0.0,0.0,0.0,4.9266,4.9601,5.0004,0.0,5.1191,0.0,5.1191,5.1191,5.1191,0.0,5.1191,5.1191,5.1191,5.1498,5.1648,5.1648,5.2291,5.277,5.3069,5.4117,5.482,5.5194,5.5194,5.5194,5.5194,5.5194,5.5194,5.5194,0.0,5.5194,5.5194,5.5194,5.5194,5.5194,5.5194,5.5194,5.5194,5.5194,5.5194,5.5194,0.0,0.0,0.0,0.0,0.0,0.0,0.0,0.0,0.0,0.0,0.0,0.0,0.0,0.0,0.0,0.0,0.0,0.0,0.0,0.0,3.3102,3.3102,3.3102,3.3102,3.3102,3.3102,3.3102,3.3102,3.3283,3.3377,3.342,3.3844,3.4076,3.4118,3.4314,3.4397,3.4397,3.4397,3.4397,3.4397,3.4397,3.4397,3.4397,0.0,0.0,3.4397,3.4397,3.4397,3.4397,3.4397,3.4397,3.4397,3.4397,3.4816,3.5312,3.5391,3.6162,3.7024,3.7103,3.7508,3.79,3.79,3.8305,3.8593,3.8122,3.8776,3.9233,3.8318,0.0,4.0163,3.9795,4.1403,4.3245,4.4602,0.0,4.7149,4.9485,4.982,5.0172,5.1097,5.1191,5.1191,5.1191,5.1191,5.1236,5.1325,5.1325,5.1325,5.1325,5.1977,5.2366,5.2456,5.3025,5.3638,5.4341,5.491,5.5194,5.5194,5.5194,5.5194,5.5194,5.5194,5.5194,5.5194,0.0,0.0,5.5194,5.5194,5.5194,5.5194,5.5194,5.5194,5.5194,5.5194,5.5194,5.5194,0.0,0.0,0.0,0.0,0.0,0.0,0.0,0.0,0.0,0.0,0.0,0.0,0.0,0.0,0.0,0.0,0.0,0.0,0.0,0.0,0.0,3.3102,3.3102,3.3102,3.3102,3.3102,3.3102,3.3102,3.3133,3.324,3.342,3.3641,3.3894,3.4118,3.4314,3.4397,3.4397,3.4397,3.4397,3.4397,3.4397,3.4397,3.4397,3.4397,0.0,0.0,3.4397,3.4397,3.4397,3.4397,3.4397,3.4397,3.4397,3.4816,3.5391,3.5835,3.6449,3.7116,3.7612,3.7821,3.79,3.79,3.8305,3.8684,3.8593,3.8723,0.0,0.0,3.9547,3.986,4.0213,4.1645,4.3488,4.5675,4.6852,4.8315,5.0582,5.0917,5.0988,0.0,0.0,0.0,0.0,0.0,0.0,0.0,0.0,5.2037,5.2037,5.265,5.3279,5.3847,5.3982,5.4356,5.5014,5.5134,5.5194,5.5194,5.5194,5.5194,5.5194,5.5194,5.5194,5.5194,0.0,0.0,5.5194,5.5194,5.5194,5.5194,5.5194,5.5194,5.5194,5.5194,5.5194,5.5194,0.0,0.0,0.0,0.0,0.0,0.0,0.0,0.0,0.0,0.0,2.9881,2.9343,0.0,0.0,0.0,0.0,0.0,0.0,0.0,0.0,0.0,0.0,0.0,0.0,3.3102,3.3102,3.3102,3.3102,0.0,3.3462,3.3556,3.3903,3.4126,3.4264,3.4356,3.4397,3.4397,3.4397,3.4397,3.4397,3.4397,3.4397,0.0,0.0,0.0,0.0,0.0,3.4397,3.4397,3.4397,3.4397,3.4397,3.4397,3.5012,3.5704,3.5691,3.6541,3.7469,3.7442,3.7665,3.79,3.79,3.8305,3.8645,3.8357,0.0,0.0,0.0,3.8945,3.9311,3.9886,4.17,0.0,4.5488,4.7351,4.9066,5.0478,5.0981,0.0,5.1191,0.0,0.0,0.0,0.0,0.0,0.0,0.0,5.3084,5.2725,5.3354,5.4027,5.47,5.4715,5.4865,5.5194,5.5194,5.5194,5.5194,5.5194,5.5194,5.5194,5.5194,5.5194,5.5194,5.5194,0.0,5.5194,5.5194,5.5194,5.5194,5.5194,5.5194,5.5194,5.5194,5.5194,5.5194,0.0,0.0,0.0,0.0,0.0,0.0,0.0,2.888,2.9635,3.0973,3.0443,3.0322,3.1319,3.2001,0.0,0.0,0.0,0.0,0.0,0.0,0.0,0.0,0.0,0.0,0.0,0.0,0.0,3.3102,3.3462,0.0,0.0,0.0,0.0,0.0,3.4397,3.4397,3.4397,3.4397,3.4397,0.0,0.0,3.4397,0.0,0.0,0.0,0.0,0.0,3.4397,3.4397,3.4397,3.4397,3.4397,3.4397,3.5103,3.5874,3.5561,3.6541,3.7639,3.7299,3.7547,3.79,3.79,3.8305,3.8566,3.8031,3.8318,0.0,3.8018,3.8331,3.8951,3.9767,4.1643,4.3649,0.0,4.7511,4.9274,5.0068,5.0787,5.1191,0.0,5.1191,0.0,0.0,0.0,0.0,0.0,0.0,0.0,5.3662,5.4132,5.4655,5.5179,5.5194,5.5194,5.5194,5.5194,5.5194,5.5194,5.5194,5.5194,5.5194,5.5194,5.5194,5.5194,5.5194,0.0,0.0,5.5194,5.5194,5.5194,5.5194,5.5194,5.5194,5.5194,5.533,5.5516,0.0,0.0,0.0,0.0,0.0,0.0,0.0,2.9497,3.0537,3.0334,3.0952,3.144,3.158,3.2448,0.0,0.0,0.0,0.0,0.0,0.0,0.0,0.0,0.0,0.0,0.0,0.0,0.0,3.3102,3.3313,0.0,0.0,0.0,0.0,0.0,0.0,3.4397,3.4397,3.4397,0.0,0.0,0.0,0.0,0.0,0.0,0.0,0.0,0.0,3.4397,3.4397,3.4397,0.0,3.4397,3.4397,3.4842,3.5456,3.59,0.0,0.0,3.7691,3.7861,3.79,3.79,3.8305,3.8566,3.8031,0.0,3.8553,3.8018,3.8331,3.9149,4.0688,4.155,0.0,0.0,0.0,4.8485,4.9976,5.0787,5.1191,5.1191,0.0,0.0,0.0,0.0,0.0,0.0,0.0,0.0,5.5014,5.5059,5.5134,5.5194,5.5194,5.5194,5.5194,5.5194,5.5194,5.5194,5.5194,5.5194,5.5194,5.5194,5.5194,5.5194,0.0,0.0,0.0,5.5194,5.5194,5.5194,5.5194,5.5194,5.5194,5.5194,5.5735,5.6469,0.0,0.0,0.0,0.0,0.0,0.0,0.0,2.9961,3.0578,3.0978,3.0879,3.1192,3.2373,3.2853,3.3102,0.0,0.0,0.0,0.0,0.0,0.0,0.0,0.0,0.0,0.0,0.0,0.0,3.3102,3.342,0.0,0.0,0.0,0.0,0.0,0.0,3.4397,3.4397,3.4397,0.0,0.0,0.0,0.0,0.0,0.0,0.0,0.0,0.0,0.0,3.4397,3.4397,3.4397,0.0,3.4397,3.4554,3.4803,0.0,3.5992,3.6972,3.6854,3.7351,3.79,3.79,3.8305,3.8566,3.8031,0.0,3.8553,3.8018,3.8489,3.9422,4.0838,4.2189,4.3767,4.5854,4.7621,4.892,4.9568,5.0556,5.1191,5.1191,5.1191,0.0,0.0,0.0,0.0,0.0,0.0,0.0,5.5194,5.5194,5.5194,5.5194,5.5194,5.5194,5.5194,5.5194,5.5194,5.5194,5.5194,5.5194,5.5194,5.5194,5.5194,5.5194,0.0,0.0,0.0,5.5194,5.5194,5.527,5.5819,5.6051,5.6124,5.6735,5.7181,5.7496,0.0,0.0,0.0,0.0,0.0,0.0,2.9761,3.0011,3.0328,3.0688,3.0678,3.1147,3.2503,3.2918,3.3102,3.3102,0.0,0.0,0.0,0.0,0.0,0.0,0.0,0.0,0.0,0.0,0.0,3.3102,3.3441,3.3641,0.0,0.0,3.4335,3.4397,0.0,0.0,0.0,0.0,0.0,0.0,0.0,0.0,0.0,0.0,0.0,0.0,0.0,0.0,0.0,0.0,0.0,3.4188,3.4345,3.4293,3.4228,3.4567,3.5534,3.6488,3.6397,3.6998,3.7746,3.8187,3.8369,3.8427,0.0,0.0,3.8357,3.7978,3.8594,3.9688,4.1242,4.283,4.4421,4.5991,4.7971,4.9292,4.9292,5.0391,5.1191,0.0,0.0,0.0,0.0,0.0,0.0,0.0,0.0,0.0,0.0,5.5194,5.5194,5.5194,5.5194,5.5194,5.5194,5.5194,5.5194,5.5194,5.5194,5.5194,5.5194,5.5194,5.5194,5.5194,0.0,0.0,0.0,5.5516,5.5626,5.571,5.6662,5.7039,5.7134,5.7846,5.8284,5.8535,0.0,0.0,0.0,0.0,0.0,0.0,0.0,2.9555,2.9852,2.8852,3.0407,3.1603,3.1603,3.2503,3.3102,3.3102,0.0,0.0,0.0,0.0,0.0,0.0,0.0,0.0,0.0,0.0,0.0,3.3102,3.3292,3.3492,3.3725,3.3992,3.4222,3.4397,0.0,0.0,0.0,0.0,0.0,0.0,0.0,0.0,0.0,0.0,0.0,0.0,0.0,0.0,0.0,0.0,0.0,0.0,0.0,3.4031,3.3822,3.4959,3.5299,3.5561,3.6684,3.6998,3.7353,3.8831,3.854,3.8139,3.9002,3.8517,3.7913,3.79,3.8594,3.9875,4.2158,4.332,4.4652,4.6919,4.8416,4.9292,4.9292,5.0391,5.1191,0.0,0.0,0.0,0.0,0.0,0.0,0.0,0.0,0.0,0.0,5.5194,5.5194,5.5194,5.5194,5.5194,5.5194,5.5194,5.5194,5.5194,5.5194,5.5194,5.5194,5.5194,5.5194,0.0,0.0,0.0,0.0,5.6207,5.659,5.6686,5.7683,5.8085,5.8101,5.8101,5.8732,5.9581,0.0,0.0,0.0,0.0,0.0,0.0,0.0,2.9555,3.0102,2.9761,3.0835,3.1857,3.2547,3.2918,3.3102,3.3102,0.0,0.0,0.0,0.0,0.0,0.0,0.0,0.0,0.0,0.0,0.0,0.0,0.0,3.3641,3.3713,3.4126,3.4335,3.4397,3.4397,0.0,0.0,0.0,0.0,0.0,0.0,0.0,0.0,0.0,0.0,0.0,0.0,0.0,0.0,0.0,0.0,0.0,0.0,0.0,0.0,3.4463,3.4972,3.5456,3.6188,3.6684,3.7209,3.8104,3.8379,3.8414,3.8328,3.8369,3.8517,3.8728,3.9519,4.0839,4.3077,4.4242,4.5393,4.7042,4.8438,4.9292,0.0,0.0,0.0,5.1191,0.0,0.0,0.0,0.0,0.0,0.0,0.0,0.0,0.0,5.5194,5.5194,5.5194,5.5194,5.5194,5.5194,5.5194,5.5194,5.5194,5.5194,5.5194,5.5194,5.5194,0.0,0.0,0.0,0.0,0.0,5.6207,5.659,5.6783,5.846,5.9129,5.9196,5.9903,6.0361,6.0633,0.0,0.0,0.0,0.0,0.0,0.0,0.0,2.9555,3.0192,3.0192,3.1347,3.2394,3.3025,3.3102,3.3102,3.3102,0.0,0.0,0.0,0.0,0.0,0.0,0.0,0.0,0.0,0.0,0.0,0.0,0.0,0.0,0.0,0.0,3.4335,3.4397,3.4397,0.0,0.0,0.0,0.0,0.0,0.0,0.0,3.4397,0.0,0.0,0.0,0.0,0.0,0.0,0.0,0.0,0.0,0.0,0.0,0.0,0.0,3.4502,3.5129,3.59,3.6371,3.6944,3.8105,3.8398,0.0,3.8845,3.865,3.8648,3.9543,4.0181,4.1269,4.3494,4.468,4.5738,4.7085,4.8438,0.0,0.0,0.0,0.0,5.1191,0.0,0.0,0.0,0.0,0.0,0.0,0.0,0.0,0.0,0.0,5.5194,5.5194,5.5194,5.5194,5.5194,5.5194,5.5194,5.5194,5.5194,5.5194,5.5194,5.5194,0.0,0.0,0.0,0.0,0.0,5.7173,5.7722,5.7885,5.9537,6.0173,6.0238,6.0877,6.1102,6.1102,0.0,0.0,0.0,0.0,0.0,0.0,0.0,0.0,0.0,0.0,3.1889,3.3102,3.3102,3.3102,3.3102,0.0,0.0,0.0,0.0,0.0,0.0,0.0,0.0,0.0,0.0,0.0,0.0,3.3398,3.362,3.3852,3.4097,0.0,0.0,3.4397,3.4397,0.0,0.0,0.0,0.0,0.0,0.0,0.0,0.0,0.0,0.0,0.0,0.0,0.0,0.0,0.0,0.0,0.0,0.0,0.0,0.0,0.0,0.0,0.0,0.0,3.607,3.6577,3.8562,3.8455,3.8353,4.0035,3.9109,0.0,4.0216,4.0631,4.1347,4.3595,4.4752,4.5783,4.71,4.8438,0.0,0.0,5.0391,0.0,0.0,0.0,0.0,0.0,0.0,0.0,0.0,0.0,0.0,0.0,0.0,5.5194,5.5194,5.5194,5.5194,5.5194,5.5194,5.5194,5.5194,5.5194,5.5194,5.5194,5.5194,0.0,0.0,0.0,0.0,0.0,5.877,5.9603,5.9691,6.0713,6.1102,6.1102,6.1102,6.1102,6.1102,0.0,0.0,0.0,0.0,0.0,0.0,0.0,0.0,0.0,0.0,0.0,3.3102,3.3102,3.3102,0.0,0.0,0.0,0.0,0.0,0.0,0.0,0.0,0.0,0.0,0.0,0.0,0.0,3.3398,3.3823,3.4034,3.4097,3.4264,0.0,0.0,0.0,0.0,0.0,0.0,0.0,0.0,0.0,0.0,0.0,0.0,0.0,0.0,3.4397,3.4397,0.0,0.0,0.0,0.0,0.0,0.0,0.0,0.0,3.3979,3.4554,3.5286,0.0,3.6323,3.7289,3.7706,3.8015,0.0,3.8194,3.8408,4.0216,4.1012,4.2095,4.4533,4.5561,4.633,4.7174,0.0,0.0,4.9292,0.0,0.0,0.0,0.0,0.0,0.0,0.0,0.0,0.0,0.0,0.0,0.0,0.0,5.5194,5.5194,5.5194,5.5194,5.5194,5.5194,5.5194,5.5194,5.5194,5.5194,5.5194,5.5194,0.0,0.0,0.0,0.0,5.6759,5.877,5.9603,5.9691,6.0713,6.1102,6.1102,6.1102,6.1102,6.1102,0.0,0.0,0.0,0.0,0.0,0.0,0.0,0.0,0.0,0.0,0.0,0.0,0.0,0.0,0.0,0.0,0.0,0.0,0.0,0.0,0.0,0.0,0.0,0.0,0.0,0.0,0.0,0.0,0.0,3.4097,0.0,0.0,0.0,0.0,0.0,0.0,0.0,0.0,0.0,0.0,3.4397,0.0,0.0,0.0,0.0,0.0,3.4397,3.4397,0.0,3.411,3.343,3.2712,0.0,0.0,0.0,0.0,3.3757,3.4463,3.4789,3.5482,3.624,3.6854,3.7456,3.8116,3.8953,3.8796,3.914,4.1365,4.2035,4.2874,4.4926,4.5858,4.6614,0.0,4.8633,0.0,0.0,0.0,0.0,0.0,0.0,0.0,0.0,0.0,0.0,0.0,0.0,0.0,0.0,5.5194,5.5194,5.5194,5.5194,5.5194,5.5194,5.5194,5.5194,5.5194,5.5194,5.5194,5.5194,5.5194,0.0,0.0,0.0,0.0,5.8093,5.9647,6.0281,6.0323,6.0898,6.1102,6.1102,6.1102,6.1102,6.1102,0.0,0.0,0.0,0.0,0.0,0.0,0.0,0.0,0.0,0.0,0.0,0.0,0.0,0.0,0.0,0.0,0.0,0.0,0.0,0.0,0.0,0.0,0.0,0.0,3.3102,3.3292,0.0,0.0,0.0,0.0,0.0,0.0,3.4397,0.0,0.0,0.0,0.0,0.0,0.0,0.0,3.4397,0.0,0.0,0.0,0.0,0.0,0.0,0.0,0.0,3.377,3.3215,3.2594,3.198,0.0,0.0,0.0,0.0,0.0,3.4397,3.534,3.6389,3.6781,3.739,3.8353,4.0,3.9768,3.9978,4.2695,4.3199,4.3621,4.5174,4.6076,0.0,0.0,0.0,0.0,0.0,0.0,0.0,0.0,0.0,0.0,0.0,0.0,0.0,0.0,0.0,0.0,0.0,5.5194,0.0,5.5194,5.5194,5.5194,5.5194,5.5194,5.5194,5.5194,5.5194,5.5194,5.5204,5.5355,5.5844,0.0,0.0,0.0,5.9669,6.0692,6.1102,6.1102,6.1102,6.1102,6.1102,6.1102,6.1102,6.1102,0.0,0.0,0.0,0.0,0.0,0.0,0.0,0.0,0.0,0.0,0.0,0.0,0.0,0.0,0.0,0.0,0.0,0.0,0.0,0.0,0.0,0.0,0.0,3.3102,3.3102,3.3292,3.3471,3.3662,3.3937,0.0,3.4356,3.4397,3.4397,3.4397,0.0,0.0,0.0,0.0,0.0,0.0,0.0,0.0,0.0,0.0,0.0,0.0,0.0,0.0,0.0,3.377,3.3215,3.2594,3.198,0.0,0.0,0.0,0.0,0.0,3.4397,3.5801,3.7133,3.6411,3.7077,3.8171,3.9179,3.9285,3.9942,4.2526,4.3431,4.4264,4.5853,4.716,4.8057,0.0,0.0,0.0,0.0,0.0,0.0,0.0,0.0,0.0,0.0,0.0,0.0,0.0,0.0,0.0,0.0,0.0,5.5194,5.5194,5.5194,5.5194,5.5194,5.5194,5.5194,5.5194,5.5194,5.5194,5.5244,5.6026,5.6445,0.0,0.0,5.9455,5.9669,6.0692,6.1102,6.1102,6.1102,6.1102,6.1102,6.1102,6.1102,6.1144,0.0,0.0,0.0,0.0,0.0,0.0,0.0,0.0,0.0,0.0,0.0,0.0,0.0,0.0,0.0,0.0,0.0,0.0,0.0,0.0,0.0,0.0,3.3197,3.3261,3.3261,3.3356,3.3462,3.3535,3.3768,3.3937,3.4042,3.4293,3.4397,3.4397,0.0,0.0,0.0,0.0,0.0,0.0,0.0,0.0,0.0,0.0,0.0,0.0,0.0,0.0,0.0,0.0,3.2941,3.2542,3.1653,0.0,0.0,0.0,0.0,0.0,3.4397,3.5561,3.6764,3.6828,3.8116,3.959,4.0518,4.0985,4.1718,4.3371,4.4512,0.0,0.0,0.0,4.8521,4.9202,0.0,0.0,0.0,0.0,0.0,0.0,0.0,0.0,0.0,0.0,0.0,0.0,0.0,0.0,0.0,0.0,5.5194,0.0,5.5194,5.5194,5.5194,5.5194,5.5194,5.5194,5.5194,5.5466,5.5952,5.6411,5.7197,5.8277,0.0,5.9903,6.0447,6.0919,6.1102,6.1102,6.1102,6.1102,6.1102,6.1102,6.1186,6.1297,0.0,0.0,0.0,0.0,0.0,0.0,0.0,0.0,0.0,0.0,0.0,0.0,0.0,0.0,0.0,0.0,0.0,0.0,0.0,0.0,3.3102,3.3102,3.3261,3.3334,3.3334,3.3377,3.3398,3.3398,3.3598,3.3755,3.386,3.423,3.4397,3.4397,0.0,0.0,0.0,0.0,0.0,0.0,0.0,0.0,0.0,0.0,0.0,0.0,0.0,0.0,0.0,0.0,0.0,0.0,0.0,0.0,0.0,3.2868,3.3613,3.4424,3.4567,3.5509,3.6631,3.7495,3.9005,4.061,0.0,0.0,0.0,0.0,0.0,0.0,0.0,4.8192,0.0,0.0,0.0,0.0,0.0,0.0,0.0,0.0,0.0,0.0,0.0,0.0,0.0,0.0,0.0,0.0,0.0,0.0,5.5194,5.5194,5.5194,5.5194,5.5194,5.5194,5.5194,5.5194,5.5194,5.5576,5.6305,5.6743,5.7792,5.9262,5.9734,6.0383,6.1102,6.1102,6.1102,6.1102,6.1102,6.1102,6.1119,6.1165,6.1314,6.1506,0.0,0.0,0.0,0.0,0.0,0.0,0.0,0.0,0.0,0.0,0.0,0.0,0.0,0.0,0.0,0.0,0.0,0.0,0.0,0.0,3.3102,3.3102,3.3124,3.3124,3.3124,3.3292,3.3398,3.3398,3.3598,3.3924,3.4356,3.4377,3.4397,3.4397,0.0,0.0,0.0,0.0,0.0,0.0,0.0,0.0,0.0,0.0,0.0,0.0,0.0,0.0,0.0,0.0,0.0,0.0,0.0,0.0,3.2803,3.3365,3.394,3.4515,3.5077,3.629,3.7547,3.8173,3.8814,3.9942,4.2379,4.2968,0.0,4.5728,0.0,0.0,0.0,4.9217,5.0308,0.0,0.0,0.0,0.0,0.0,0.0,0.0,0.0,0.0,0.0,0.0,0.0,0.0,0.0,0.0,0.0,0.0,0.0,5.5194,5.5194,5.5194,5.5194,5.5194,5.5194,5.5194,5.5194,5.5244,5.5355,5.7158,5.8078,5.8307,6.0178,6.104,6.1102,6.1102,6.1102,6.1102,6.1102,6.1102,6.1123,6.1297,6.1523,6.1709,0.0,0.0,0.0,0.0,0.0,0.0,0.0,0.0,0.0,0.0,0.0,0.0,0.0,0.0,0.0,0.0,0.0,0.0,0.0,0.0,3.3102,3.3102,3.3219,3.3304,3.3304,3.3471,3.3598,3.3598,3.3649,3.3797,3.3979,3.4139,0.0,0.0,0.0,0.0,0.0,0.0,0.0,0.0,0.0,0.0,0.0,0.0,0.0,0.0,0.0,0.0,0.0,0.0,3.2345,3.2104,3.1863,3.2208,3.2836,3.3417,3.3979,3.4528,3.5142,3.6372,3.7646,3.8249,3.9999,4.1817,0.0,4.3738,4.4795,4.6043,4.6958,0.0,0.0,0.0,0.0,0.0,0.0,0.0,0.0,0.0,0.0,0.0,0.0,0.0,0.0,0.0,0.0,0.0,0.0,0.0,0.0,0.0,0.0,5.5194,5.5194,5.5194,5.5194,5.5194,5.5194,5.5194,5.5194,5.5516,5.6124,5.7473,5.8444,5.9107,6.0489,6.1102,6.1102,6.1102,6.1102,6.1102,6.1102,6.1186,6.1314,6.1379,6.1608,6.1914,0.0,0.0,0.0,0.0,0.0,0.0,0.0,0.0,0.0,0.0,0.0,0.0,0.0,0.0,0.0,0.0,0.0,0.0,0.0,3.3102,3.3102,3.3102,3.324,3.3313,3.3313,3.3492,3.362,3.362,3.367,3.3691,3.3713,3.4042,0.0,0.0,0.0,0.0,0.0,0.0,0.0,3.4181,3.4021,3.4147,0.0,0.0,0.0,0.0,0.0,0.0,0.0,0.0,3.2182,3.1836,3.2026,3.2385,3.2842,3.3626,3.4468,3.5251,3.5846,3.7072,3.8342,3.8953,4.1071,4.3055,4.3244,4.4491,4.5813,4.648,4.7683,0.0,0.0,0.0,0.0,0.0,0.0,0.0,0.0,0.0,0.0,0.0,0.0,0.0,0.0,0.0,0.0,0.0,0.0,0.0,0.0,0.0,0.0,0.0,5.5194,5.5194,5.5194,5.5194,5.5194,5.5204,5.5516,5.5992,5.6638,5.7637,5.8664,5.9647,6.0654,6.1102,6.1102,6.1102,6.1102,6.1102,6.1102,6.1231,6.1404,6.1465,6.1713,6.2017,0.0,0.0,0.0,0.0,0.0,0.0,0.0,0.0,0.0,0.0,0.0,0.0,0.0,0.0,0.0,0.0,0.0,0.0,0.0,3.3102,3.3102,3.3102,3.3102,3.3102,3.3124,3.3292,3.3398,3.3398,3.3598,3.3691,3.3713,3.4168,0.0,0.0,0.0,0.0,0.0,0.0,3.3979,3.4356,3.3882,3.3966,0.0,0.0,0.0,0.0,0.0,0.0,0.0,0.0,3.2287,3.1902,3.2515,3.2685,3.2921,3.4071,3.5493,3.681,3.7347,3.8567,3.9852,4.0449,4.1824,0.0,4.3768,4.5155,4.6495,4.7174,4.8379,4.9501,5.0099,0.0,0.0,0.0,0.0,0.0,0.0,0.0,0.0,0.0,0.0,0.0,0.0,0.0,0.0,0.0,0.0,0.0,0.0,0.0,0.0,0.0,5.5194,5.5194,5.5194,5.5194,5.5204,5.5204,5.6158,5.659,5.6638,5.7637,5.8664,5.9647,6.0654,6.1102,6.1102,6.1102,6.1102,6.1102,6.1102,6.1231,6.1424,6.1628,6.1834,6.2037,0.0,0.0,0.0,0.0,0.0,0.0,0.0,0.0,0.0,0.0,0.0,0.0,0.0,0.0,0.0,0.0,0.0,0.0,0.0,3.2438,3.2351,3.3068,3.324,3.3377,3.3513,3.3577,3.3535,3.3398,3.3598,3.3641,3.3492,3.362,0.0,3.4097,0.0,0.0,3.3903,3.3755,3.3704,3.3704,3.3704,3.3776,3.3903,0.0,0.0,0.0,0.0,0.0,0.0,0.0,0.0,0.0,3.2515,3.2986,3.347,3.4188,3.5026,3.5831,3.6373,3.808,3.9795,4.0225,0.0,0.0,0.0,4.5488,0.0,0.0,4.903,4.9994,5.0166,0.0,0.0,0.0,0.0,0.0,0.0,0.0,0.0,0.0,0.0,0.0,0.0,0.0,0.0,0.0,0.0,0.0,0.0,0.0,0.0,0.0,5.5194,5.5194,5.5194,5.5194,5.5526,5.6183,5.6484,5.659,5.6662,5.8369,5.9323,5.9647,6.0654,6.1102,6.1102,6.1102,6.1102,6.1102,6.1102,6.1314,6.1608,6.1669,6.1947,6.2285,0.0,0.0,0.0,0.0,0.0,0.0,0.0,0.0,0.0,0.0,2.9589,0.0,0.0,0.0,0.0,0.0,0.0,0.0,0.0,0.0,3.246,3.3068,3.3219,3.3334,3.3462,3.362,3.3556,3.3283,3.3471,3.3471,3.3283,0.0,3.362,3.3823,0.0,3.3641,0.0,3.3535,3.3471,3.3513,3.3471,3.3556,3.3691,0.0,0.0,0.0,0.0,0.0,0.0,0.0,0.0,0.0,3.2515,3.3104,3.3826,3.4993,3.5993,3.6927,3.7842,3.9584,4.1237,4.171,4.3583,4.5478,4.61,0.0,0.0,0.0,0.0,5.027,0.0,0.0,0.0,0.0,0.0,0.0,0.0,0.0,0.0,0.0,0.0,0.0,0.0,0.0,0.0,0.0,0.0,0.0,0.0,0.0,0.0,0.0,5.4655,5.4805,5.4805,5.5455,5.6051,5.6614,5.7394,5.7792,5.7839,5.9056,5.9816,6.0238,6.0835,6.1102,6.1102,6.1102,6.1102,6.1102,6.119,6.142,6.1709,6.1793,6.2067,6.24,0.0,0.0,0.0,0.0,0.0,0.0,0.0,0.0,0.0,0.0,2.9441,3.0034,0.0,0.0,0.0,0.0,0.0,0.0,0.0,0.0,3.3004,3.3124,3.3133,3.3154,3.3133,3.3492,3.3492,3.3102,3.3313,3.3313,0.0,0.0,3.3556,3.3398,0.0,3.3471,3.3662,3.3261,3.3313,3.362,3.3283,3.3334,3.3641,3.3505,0.0,0.0,0.0,0.0,0.0,0.0,0.0,0.0,3.2594,3.3182,3.4059,3.5999,3.7621,3.9073,4.0472,4.2003,4.3369,4.409,4.4883,0.0,4.7885,4.8364,4.8558,4.9157,0.0,0.0,0.0,0.0,0.0,0.0,0.0,0.0,0.0,0.0,0.0,0.0,0.0,0.0,0.0,0.0,0.0,0.0,0.0,0.0,0.0,0.0,0.0,0.0,5.3788,5.4196,5.434,5.5786,5.6649,0.0,5.8725,5.9647,5.9751,5.9751,6.0238,6.1102,6.1102,6.1102,6.1102,6.1102,6.1102,6.1123,6.1318,6.1526,6.1729,6.1917,6.2169,6.24,0.0,0.0,0.0,0.0,0.0,0.0,0.0,0.0,0.0,0.0,0.0,0.0,0.0,0.0,0.0,0.0,0.0,0.0,0.0,0.0,3.2339,3.3292,3.3492,3.3492,3.3334,3.3577,3.3492,3.3102,3.3462,3.3462,0.0,0.0,0.0,3.3398,0.0,3.3283,3.3462,3.3197,3.3154,3.324,3.3313,3.3304,3.3283,3.3759,3.3275,0.0,0.0,0.0,0.0,0.0,0.0,0.0,3.3208,3.3783,3.44,3.5331,3.6642,3.797,3.8778,4.0595,4.2556,4.3687,4.5446,4.7115,4.8094,4.8708,4.9127,4.9262,5.0197,0.0,0.0,0.0,0.0,0.0,0.0,0.0,0.0,0.0,0.0,0.0,0.0,0.0,0.0,0.0,0.0,0.0,0.0,0.0,0.0,0.0,0.0,5.3183,5.3348,5.4038,5.5367,5.572,5.6926,0.0,5.9389,6.0006,6.0776,6.0776,6.0898,6.1102,6.1102,6.1102,6.1102,6.1102,6.1102,6.1123,6.1318,6.1526,6.1729,6.1917,6.2169,6.24,0.0,0.0,0.0,0.0,0.0,0.0,0.0,0.0,0.0,0.0,0.0,0.0,0.0,0.0,0.0,0.0,0.0,0.0,0.0,0.0,0.0,3.3377,3.3492,3.3556,3.3535,3.3556,3.3462,3.324,3.3462,0.0,0.0,0.0,0.0,3.3261,0.0,3.3154,3.3261,3.3133,3.3102,3.3124,3.3219,3.3197,3.3108,3.3275,3.2754,3.1956,3.1981,0.0,0.0,0.0,0.0,0.0,0.0,0.0,3.4672,3.5958,3.6899,3.7877,3.9655,4.1281,4.2892,4.4616,4.6174,4.7563,4.8558,4.9037,4.9456,5.0062,0.0,0.0,0.0,0.0,0.0,0.0,0.0,0.0,0.0,0.0,0.0,0.0,0.0,0.0,0.0,0.0,0.0,0.0,0.0,0.0,0.0,5.1738,5.1887,5.2232,5.2546,5.3349,5.4691,5.5449,5.6931,5.9085,5.957,6.0245,6.1102,6.1102,6.1102,6.1102,6.1102,6.1102,6.1102,6.1102,6.1102,6.1123,6.142,6.1608,6.1729,6.207,6.2285,6.24,0.0,0.0,0.0,0.0,0.0,0.0,0.0,0.0,0.0,0.0,0.0,0.0,0.0,0.0,0.0,0.0,0.0,0.0,0.0,0.0,0.0,0.0,3.342,3.3492,3.3598,3.3492,3.342,3.3356,0.0,0.0,0.0,0.0,0.0,3.3102,0.0,3.3102,3.3102,3.3102,3.3102,3.3102,3.3102,3.3061,3.2965,3.2647,0.0,3.1747,3.1482,3.1519,3.1688,3.1811,0.0,0.0,0.0,0.0,3.4918,3.6734,3.7543,3.8448,4.1044,4.2548,4.3864,4.5817,4.6794,4.7653,4.8992,4.9292,4.9651,5.0936,0.0,0.0,0.0,0.0,0.0,0.0,0.0,0.0,0.0,0.0,0.0,0.0,0.0,0.0,0.0,0.0,0.0,0.0,0.0,0.0,5.1191,5.1191,5.1191,5.1191,5.1903,5.2791,5.3856,5.5336,5.6909,5.8591,5.9544,6.039,6.1102,6.1102,6.1102,6.1102,6.1102,6.1102,6.1102,6.1144,6.1144,6.119,6.1588,6.175,6.181,6.2243,6.24,6.24,0.0,0.0,0.0,0.0,0.0,0.0,0.0,0.0,0.0,0.0,2.7309,0.0,0.0,0.0,0.0,0.0,0.0,0.0,3.0643,0.0,0.0,3.3111,3.3471,3.3513,3.3197,3.3492,3.3492,3.3133,0.0,0.0,0.0,0.0,0.0,3.3102,0.0,0.0,3.3102,3.3102,3.3102,3.3102,3.3102,3.2886,3.2571,0.0,0.0,0.0,0.0,3.2257,3.2394,3.3081,3.3436,0.0,0.0,0.0,3.5321,3.6065,3.7778,3.9599,4.0534,4.2853,4.5189,4.6085,4.6794,4.7653,0.0,0.0,4.9651,0.0,0.0,0.0,0.0,0.0,0.0,0.0,0.0,0.0,0.0,0.0,0.0,0.0,0.0,0.0,0.0,0.0,0.0,0.0,0.0,0.0,5.1191,5.1191,5.1191,5.1191,5.2094,5.3298,5.4866,5.5852,5.719,5.887,5.9633,6.039,6.1102,6.1102,6.1102,6.1102,6.1102,6.1102,6.1102,6.1276,6.1359,6.14,6.1797,6.1957,6.1997,6.2285,6.24,6.24,0.0,0.0,0.0,0.0,0.0,0.0,0.0,0.0,0.0,0.0,0.0,2.7309,0.0,0.0,0.0,2.8701,2.9624,3.0226,3.0328,3.1877,3.2686,3.2481,3.315,3.3492,3.3441,3.3398,3.3334,0.0,0.0,0.0,0.0,3.3102,3.3102,0.0,0.0,0.0,0.0,3.3102,3.3102,3.3065,3.2857,3.2655,0.0,0.0,0.0,0.0,0.0,0.0,0.0,3.3435,3.3796,3.4149,3.4724,0.0,0.0,0.0,3.774,3.9476,4.1825,4.3845,4.5544,4.6606,4.7078,4.7653,4.8992,4.9292,4.9651,5.0936,0.0,0.0,0.0,0.0,0.0,0.0,0.0,0.0,0.0,0.0,0.0,0.0,0.0,0.0,0.0,0.0,0.0,0.0,0.0,5.1191,5.1191,5.1191,5.1191,5.1191,5.2101,5.3213,5.4472,5.5352,5.6621,5.8303,5.9446,6.0175,6.0506,6.092,6.1102,6.1102,6.1102,6.1102,6.1102,6.1318,6.1404,6.1445,6.1837,6.1997,6.2037,6.2305,6.24,6.24,0.0,0.0,0.0,0.0,0.0,0.0,0.0,0.0,0.0,0.0,0.0,0.0,0.0,0.0,0.0,0.0,2.9624,3.0147,3.0023,3.1623,3.2435,3.2111,3.2948,3.3462,3.3556,3.3292,3.3219,0.0,0.0,0.0,3.3102,3.3102,3.3102,0.0,3.3102,3.3102,0.0,0.0,0.0,0.0,0.0,0.0,0.0,0.0,0.0,0.0,0.0,0.0,0.0,0.0,0.0,0.0,0.0,3.5495,0.0,0.0,0.0,4.0053,4.3363,4.4765,4.5618,4.698,4.7309,4.7653,4.8992,0.0,4.9651,0.0,0.0,0.0,0.0,0.0,0.0,0.0,0.0,0.0,0.0,0.0,0.0,0.0,0.0,0.0,0.0,0.0,0.0,0.0,0.0,5.1191,5.1191,5.1191,5.1308,5.1549,5.2471,5.3393,5.4317,5.521,5.6384,5.7806,5.8916,5.9545,5.9744,6.049,6.0821,6.0837,6.1036,6.1102,6.1123,6.1379,6.1465,6.1526,6.1934,6.2113,6.2133,6.2341,6.24,6.24,0.0,0.0,0.0,0.0,0.0,0.0,0.0,0.0,0.0,0.0,0.0,0.0,0.0,2.8991,2.9738,2.8794,2.9624,3.0023,2.9577,3.0068,3.0981,3.2322,3.3025,0.0,3.3133,3.3292,0.0,0.0,0.0,0.0,3.3102,3.3102,3.3102,3.3102,3.3102,3.3102,3.3102,0.0,0.0,0.0,0.0,0.0,0.0,0.0,0.0,0.0,0.0,0.0,0.0,0.0,0.0,0.0,0.0,0.0,0.0,0.0,0.0,0.0,4.4605,4.5269,4.5618,4.698,4.7309,4.7653,4.8992,0.0,0.0,0.0,0.0,0.0,0.0,0.0,0.0,0.0,0.0,0.0,0.0,0.0,0.0,0.0,0.0,0.0,0.0,0.0,0.0,0.0,0.0,5.1191,5.1191,5.1191,5.1603,5.2493,5.3437,5.4359,5.5215,5.6162,5.7005,5.779,5.7873,5.827,5.8982,5.9728,6.0059,6.0109,6.0804,6.1102,6.1123,6.1523,6.1669,6.1729,6.2203,6.2381,6.2381,6.2381,6.24,6.24,0.0,0.0,0.0,0.0,0.0,0.0,0.0,0.0,0.0,0.0,0.0,0.0,0.0,2.8445,2.9084,2.8724,3.017,3.0767,3.0,3.1258,3.2011,3.1891,3.2732,3.3176,3.3102,3.3176,0.0,0.0,0.0,3.3102,3.3102,3.3102,3.3102,3.3102,3.3102,3.2889,3.2516,3.2516,0.0,0.0,0.0,0.0,0.0,0.0,0.0,0.0,0.0,0.0,0.0,0.0,0.0,0.0,0.0,0.0,0.0,0.0,0.0,4.2473,4.4703,4.5289,4.5618,4.698,4.7309,4.7534,4.8453,4.8977,4.9546,0.0,0.0,0.0,0.0,0.0,0.0,0.0,0.0,0.0,0.0,0.0,0.0,0.0,0.0,0.0,0.0,0.0,0.0,0.0,0.0,0.0,5.1191,5.1191,5.1627,5.2583,5.3502,5.4694,5.6182,5.6528,5.6832,5.7113,5.7558,5.7939,5.822,5.8966,5.9297,5.9347,6.0075,6.0672,6.1123,6.1543,6.1689,6.1766,6.2223,6.24,6.24,6.24,6.24,6.24,0.0,0.0,0.0,0.0,0.0,0.0,0.0,0.0,0.0,0.0,0.0,0.0,0.0,0.0,2.9681,2.9681,3.0565,3.0924,3.0464,3.1779,3.2385,3.1891,3.2667,3.3102,3.3102,0.0,0.0,0.0,0.0,0.0,0.0,3.3102,3.2989,3.2801,3.2801,3.2579,0.0,0.0,0.0,3.1452,0.0,0.0,3.2223,0.0,0.0,0.0,0.0,0.0,0.0,0.0,0.0,0.0,0.0,0.0,0.0,0.0,0.0,0.0,4.4497,4.5125,4.5559,4.6696,4.7123,4.7474,4.8154,4.8813,4.9471,0.0,0.0,0.0,0.0,0.0,0.0,0.0,0.0,0.0,0.0,0.0,0.0,0.0,0.0,0.0,0.0,0.0,0.0,0.0,0.0,0.0,5.1191,5.1503,5.2222,5.3465,5.4422,5.547,5.668,5.6699,5.6699,5.6716,5.7213,5.7425,5.7461,5.8187,5.8535,5.8588,5.9394,6.012,6.0775,6.1443,6.1689,6.1766,6.2223,6.24,6.24,6.24,6.24,6.24,0.0,0.0,0.0,0.0,0.0,0.0,0.0,0.0,0.0,0.0,0.0,0.0,0.0,0.0,0.0,3.1603,3.079,3.0486,3.0946,3.1403,3.1891,3.24,3.2865,3.3102,3.3102,0.0,0.0,0.0,0.0,0.0,0.0,0.0,3.2776,3.2194,3.2169,3.219,3.219,0.0,3.1876,3.1477,0.0,3.2623,3.2353,0.0,0.0,0.0,3.6872,3.7587,0.0,0.0,0.0,0.0,0.0,0.0,0.0,0.0,0.0,0.0,0.0,0.0,0.0,4.6136,4.6794,4.7474,4.8117,4.8783,4.9441,0.0,0.0,0.0,0.0,0.0,0.0,0.0,0.0,0.0,0.0,0.0,0.0,0.0,0.0,0.0,0.0,0.0,0.0,0.0,0.0,5.1238,5.1238,5.2147,5.3486,5.5235,5.6202,5.6699,5.6699,5.6699,5.6699,5.6699,5.6699,5.6699,5.6732,5.7445,5.7776,5.7846,5.8773,5.9465,6.0033,6.1193,6.1692,6.175,6.2223,6.24,6.24,6.24,6.24,6.24,0.0,0.0,0.0,0.0,0.0,0.0,0.0,0.0,0.0,0.0,0.0,0.0,0.0,0.0,0.0,3.1603,3.2033,3.2351,3.2481,3.2602,3.2754,3.2909,3.3038,3.3102,3.3102,0.0,0.0,0.0,0.0,0.0,0.0,0.0,0.0,0.0,3.1788,3.1625,3.1625,3.1625,0.0,0.0,3.2977,3.383,0.0,0.0,0.0,0.0,0.0,3.9657,0.0,0.0,4.1241,4.1468,0.0,0.0,0.0,0.0,0.0,0.0,4.4117,0.0,0.0,0.0,0.0,0.0,4.7534,4.8087,4.8768,0.0,0.0,0.0,0.0,0.0,0.0,0.0,0.0,0.0,0.0,0.0,0.0,0.0,0.0,0.0,0.0,0.0,0.0,0.0,5.1819,5.2215,5.2215,5.3687,5.4766,5.5276,5.6202,5.6699,5.6699,5.6699,5.6699,5.6699,5.6699,5.6699,5.6716,5.7069,5.721,5.7279,5.8205,5.8714,5.8959,6.0485,6.1427,6.1954,6.2265,6.24,6.24,6.24,6.24,6.2479,0.0,0.0,0.0,0.0,0.0,0.0,0.0,0.0,0.0,0.0,0.0,0.0,0.0,0.0,0.0,3.2242,3.2754,3.3102,3.3102,3.3102,3.3102,3.3102,3.3102,3.3102,0.0,0.0,0.0,0.0,0.0,0.0,0.0,0.0,0.0,0.0,0.0,0.0,0.0,0.0,0.0,0.0,3.3675,0.0,0.0,3.7667,3.8863,0.0,0.0,0.0,4.1652,4.295,4.3387,0.0,0.0,0.0,0.0,0.0,0.0,0.0,0.0,0.0,0.0,0.0,0.0,0.0,4.7309,4.7818,4.8423,0.0,0.0,0.0,0.0,0.0,0.0,0.0,0.0,0.0,0.0,0.0,0.0,0.0,0.0,0.0,0.0,0.0,0.0,5.1191,5.2056,5.2925,5.3703,5.4741,5.5474,5.5872,5.6394,5.6699,5.6699,5.6699,5.6699,5.6699,5.6699,5.6699,5.6716,5.6911,5.7006,5.7042,5.7758,5.8243,5.8612,5.9679,6.0678,6.1562,6.1846,6.2127,6.24,6.24,6.2598,6.291,0.0,0.0,0.0,0.0,0.0,0.0,0.0,0.0,0.0,0.0,0.0,0.0,0.0,0.0,0.0,0.0,3.3102,3.3102,3.3102,3.3102,0.0,0.0,0.0,0.0,0.0,0.0,0.0,0.0,0.0,0.0,0.0,0.0,0.0,0.0,0.0,0.0,0.0,0.0,0.0,3.3663,3.4839,3.6108,0.0,0.0,4.0447,0.0,4.3363,4.4063,4.417,4.5025,4.5289,0.0,0.0,0.0,0.0,0.0,4.3514,0.0,0.0,0.0,0.0,0.0,0.0,0.0,4.7309,4.7758,4.8214,4.8267,4.8768,0.0,0.0,0.0,0.0,0.0,0.0,0.0,0.0,0.0,0.0,0.0,0.0,0.0,5.1191,5.1191,5.1238,5.1354,5.2313,5.366,5.5357,5.5454,5.5848,5.6661,5.6699,5.6699,5.6699,5.6699,5.6699,5.6699,5.6719,5.6738,5.6738,5.6968,5.7063,5.7082,5.7476,5.8012,5.8618,5.8787,5.9646,6.0841,6.117,6.1704,6.2299,6.2464,6.2947,6.3532,0.0,0.0,0.0,0.0,0.0,0.0,0.0,0.0,0.0,0.0,0.0,0.0,0.0,0.0,0.0,0.0,0.0,3.3102,3.3102,0.0,0.0,0.0,0.0,0.0,0.0,0.0,0.0,0.0,0.0,0.0,0.0,0.0,0.0,0.0,0.0,0.0,0.0,0.0,0.0,3.6559,3.7502,0.0,4.0604,4.2351,4.3592,4.446,4.4894,4.5025,4.5046,0.0,4.5289,4.5244,0.0,0.0,0.0,0.0,0.0,0.0,0.0,0.0,0.0,0.0,0.0,0.0,4.7309,4.7399,4.7653,4.8199,4.8409,0.0,0.0,0.0,0.0,0.0,0.0,0.0,0.0,0.0,0.0,0.0,0.0,0.0,5.1191,5.1191,5.1511,5.2283,5.3838,5.5271,5.6355,5.643,5.6508,5.668,5.6699,5.6699,5.6699,5.6699,5.6699,5.6699,5.6853,5.693,5.6949,5.7327,5.7476,5.7495,5.7735,5.7911,5.8046,5.8101,5.8962,6.0328,6.1025,6.14,6.1663,6.284,6.3383,6.3661,0.0,0.0,0.0,0.0,0.0,0.0,0.0,0.0,0.0,0.0,0.0,0.0,0.0,0.0,0.0,0.0,0.0,0.0,0.0,0.0,0.0,0.0,0.0,0.0,0.0,0.0,0.0,0.0,0.0,0.0,0.0,0.0,0.0,0.0,0.0,0.0,0.0,0.0,3.7254,3.8467,3.8841,0.0,4.2123,4.377,4.4976,4.5843,4.6187,4.6307,4.6247,4.5918,4.6022,0.0,0.0,4.5529,4.5738,0.0,4.5289,4.5289,0.0,0.0,0.0,4.63,0.0,0.0,0.0,4.7309,4.7399,4.7728,4.7803,4.7893,0.0,0.0,0.0,0.0,0.0,0.0,0.0,0.0,0.0,0.0,0.0,0.0,5.1191,5.1191,5.1773,5.319,5.4131,5.5251,5.6622,5.6699,5.6699,5.6699,5.6699,5.6699,5.6699,5.6699,5.6699,5.6699,5.6911,5.7006,5.7006,5.742,5.7606,5.7606,5.7808,5.79,5.79,5.79,5.8357,5.9082,5.986,6.0851,6.1928,6.2678,6.3639,6.4686,3.3102,0.0,0.0,0.0,0.0,0.0,0.0,0.0,0.0,0.0,0.0,0.0,0.0,0.0,0.0,0.0,0.0,0.0,0.0,0.0,0.0,0.0,0.0,3.3232,0.0,0.0,0.0,0.0,0.0,0.0,0.0,0.0,0.0,0.0,0.0,0.0,0.0,0.0,0.0,4.0089,0.0,4.1173,4.2817,4.4449,4.5544,4.6304,4.705,4.7309,4.7249,4.6809,0.0,4.7294,4.6217,4.6262,0.0,0.0,0.0,0.0,0.0,0.0,0.0,0.0,0.0,4.7309,0.0,0.0,0.0,4.7309,4.7309,0.0,0.0,0.0,0.0,0.0,0.0,0.0,0.0,0.0,0.0,0.0,0.0,0.0,0.0,5.1303,5.217,5.3869,5.4147,5.498,5.6622,5.6699,5.6699,5.6699,5.6699,5.6699,5.6699,5.6699,5.6719,5.6757,5.6968,5.7082,5.712,5.7495,5.7662,5.7662,5.7827,5.79,5.79,5.79,5.79,5.7966,5.8709,6.0209,6.1997,6.2452,6.3811,6.5514,3.3102,3.3102,0.0,0.0,0.0,0.0,0.0,0.0,0.0,0.0,0.0,0.0,0.0,0.0,0.0,0.0,0.0,0.0,3.3641,0.0,0.0,0.0,0.0,0.0,3.2704,0.0,0.0,0.0,0.0,0.0,0.0,0.0,0.0,0.0,3.7408,0.0,0.0,0.0,4.0564,0.0,4.2639,4.2884,0.0,4.4935,4.5767,4.5982,4.6945,4.7309,4.7384,0.0,4.8117,4.8147,0.0,4.8019,0.0,0.0,0.0,0.0,0.0,0.0,0.0,0.0,4.7249,0.0,0.0,0.0,4.7309,4.7309,0.0,0.0,0.0,0.0,0.0,0.0,0.0,0.0,0.0,0.0,0.0,0.0,0.0,0.0,0.0,5.1607,5.2858,5.3912,5.472,5.5612,5.6641,5.6699,5.6699,5.6699,5.6699,5.6699,5.6699,5.6699,5.6776,5.6968,5.7176,5.7364,5.7532,5.7753,5.788,5.7863,5.7881,5.79,5.79,5.79,5.79,5.7966,5.8709,5.956,6.06,6.2629,6.3896,6.4832,3.3102,3.3102,0.0,0.0,0.0,0.0,0.0,0.0,0.0,0.0,0.0,0.0,0.0,0.0,0.0,0.0,0.0,3.4734,0.0,0.0,0.0,0.0,0.0,0.0,0.0,0.0,0.0,0.0,3.4305,0.0,0.0,0.0,0.0,0.0,3.8872,0.0,4.0137,0.0,0.0,0.0,0.0,0.0,0.0,4.5703,4.6919,4.737,4.8164,4.8468,4.8498,0.0,4.8873,0.0,0.0,0.0,0.0,0.0,0.0,0.0,0.0,0.0,0.0,0.0,0.0,0.0,0.0,0.0,4.7309,0.0,0.0,0.0,0.0,0.0,0.0,0.0,4.7174,0.0,0.0,0.0,0.0,0.0,0.0,0.0,0.0,0.0,0.0,0.0,5.4045,5.4592,5.5991,5.6465,5.6699,5.6699,5.6699,5.6774,5.6872,5.6872,5.6968,5.7176,5.7383,5.7514,5.7606,5.7808,5.79,5.79,5.79,5.8119,5.8493,5.8493,5.8737,5.9148,5.9459,6.0044,6.0901,6.2253,6.3749,6.5223,3.3102,0.0,0.0,0.0,0.0,0.0,0.0,0.0,0.0,0.0,0.0,0.0,3.4559,3.5232,0.0,0.0,0.0,3.5661,0.0,0.0,3.5727,0.0,0.0,0.0,0.0,0.0,0.0,0.0,0.0,0.0,0.0,0.0,0.0,0.0,0.0,4.0501,4.1485,0.0,0.0,4.2491,4.3497,4.42,4.4875,4.673,4.7911,4.8648,4.9127,4.9292,4.9322,4.9501,4.9561,0.0,4.9561,0.0,0.0,0.0,0.0,0.0,4.7848,0.0,0.0,0.0,0.0,0.0,0.0,0.0,0.0,0.0,0.0,0.0,0.0,0.0,0.0,0.0,0.0,0.0,0.0,0.0,0.0,0.0,0.0,0.0,0.0,0.0,0.0,5.3435,5.328,5.3802,5.5508,5.6117,5.6481,5.6699,5.6699,5.6796,5.7006,5.7006,5.712,5.7383,5.7532,5.7625,5.768,5.7827,5.79,5.79,5.79,5.8281,5.8892,5.8892,5.933,6.0032,6.0188,6.0635,6.1227,6.1938,6.3366,6.4975,3.3102,3.3102,0.0,0.0,0.0,0.0,0.0,0.0,0.0,0.0,0.0,0.0,0.0,0.0,0.0,0.0,0.0,3.6088,3.6088,0.0,3.6088,0.0,0.0,0.0,0.0,0.0,0.0,0.0,0.0,0.0,0.0,0.0,0.0,0.0,0.0,3.9934,4.1172,4.2081,4.3716,4.5711,4.6407,4.7634,4.9014,0.0,4.8391,4.9262,4.9299,0.0,0.0,4.9964,5.0166,0.0,0.0,0.0,0.0,0.0,0.0,0.0,0.0,0.0,0.0,0.0,0.0,0.0,0.0,0.0,4.7309,0.0,0.0,0.0,0.0,0.0,0.0,0.0,0.0,0.0,0.0,0.0,0.0,0.0,0.0,0.0,0.0,0.0,0.0,5.1902,5.2741,5.389,5.5511,5.5617,5.5949,5.6683,5.6699,5.6796,5.7006,5.7006,5.7195,5.7588,5.7588,5.7698,5.7881,5.79,5.79,5.79,5.79,5.8281,5.8892,5.8892,5.933,6.0062,6.0714,6.0971,6.1111,6.1893,6.2666,6.3396,0.0,0.0,0.0,0.0,0.0,0.0,0.0,3.4394,0.0,0.0,0.0,0.0,0.0,0.0,3.8001,0.0,0.0,3.8423,3.8423,3.8423,0.0,0.0,0.0,3.8193,0.0,0.0,0.0,0.0,0.0,0.0,3.7366,3.7459,0.0,0.0,0.0,4.0685,0.0,0.0,0.0,0.0,0.0,4.8235,4.9314,0.0,0.0,4.9934,5.0406,5.0556,0.0,5.0787,5.0862,5.0862,5.0862,5.0563,5.0151,4.9949,4.9598,0.0,0.0,0.0,4.8962,4.8962,0.0,0.0,0.0,0.0,0.0,0.0,0.0,0.0,0.0,0.0,0.0,0.0,0.0,0.0,0.0,0.0,0.0,0.0,0.0,0.0,0.0,0.0,0.0,5.1939,5.2375,5.3218,5.4802,5.5336,5.6008,5.6875,5.6891,5.7063,5.7402,5.7402,5.7532,5.779,5.779,5.7827,5.79,5.79,5.79,5.79,5.79,5.8546,5.9644,5.9644,6.0297,6.1343,6.1561,6.1664,6.1682,6.1971,6.2562,6.3323,3.5053,0.0,0.0,0.0,0.0,0.0,0.0,0.0,0.0,0.0,3.6553,0.0,3.7614,0.0,3.9109,0.0,3.9503,3.9612,3.9612,3.9612,0.0,3.9612,3.9612,0.0,0.0,0.0,0.0,0.0,0.0,3.7634,3.7634,3.7634,3.7634,0.0,0.0,4.0577,4.264,0.0,4.4754,0.0,0.0,4.8896,0.0,0.0,5.0196,5.0285,0.0,5.1191,5.1191,5.1191,5.1191,5.1191,5.1191,5.0907,5.0563,5.0563,5.0287,4.998,4.998,4.9793,0.0,0.0,4.9142,0.0,4.8663,0.0,0.0,0.0,0.0,0.0,0.0,0.0,0.0,0.0,0.0,0.0,0.0,4.4601,0.0,0.0,0.0,0.0,0.0,0.0,4.9544,5.1641,5.2101,5.2917,0.0,0.0,5.5821,5.6954,5.7082,5.7271,5.7588,5.7606,5.7698,5.79,5.79,5.79,5.79,5.79,5.79,5.79,5.79,5.8702,5.9998,5.9998,6.0792,6.201,6.201,6.201,6.201,6.201,6.2317,6.2893,0.0,0.0,0.0,0.0,3.5206,0.0,0.0,0.0,3.6433,0.0,3.7619,3.8469,3.8508,3.9168,3.964,3.969,3.969,0.0,3.969,3.969,0.0,0.0,3.969,3.9677,3.9627,0.0,0.0,0.0,0.0,0.0,3.79,3.79,3.7913,0.0,3.7939,0.0,4.2668,4.3328,4.5425,4.8423,4.9112,4.9718,5.0196,5.0226,0.0,5.0285,5.0966,5.1191,5.1191,5.1191,5.1191,5.1191,5.1191,5.1191,5.1191,5.1191,5.1191,5.1191,5.1191,5.0742,5.024,5.024,0.0,0.0,0.0,0.0,4.9112,0.0,0.0,0.0,0.0,0.0,0.0,0.0,0.0,0.0,0.0,0.0,0.0,0.0,0.0,0.0,0.0,4.831,4.9429,5.093,5.1891,5.2986,0.0,0.0,5.5455,5.6906,5.7197,5.742,5.7606,5.7606,5.7698,5.79,5.79,5.79,5.79,5.79,5.79,5.79,5.79,5.8702,5.9998,5.9998,6.0792,6.201,6.201,6.201,6.201,6.201,6.201,6.2118,3.6547,3.68,3.7032,0.0,3.6648,3.6335,0.0,0.0,0.0,0.0,3.8943,3.9438,3.9842,4.0073,4.0396,4.0816,4.0855,0.0,0.0,0.0,0.0,4.0855,4.0855,4.0646,4.0189,3.964,0.0,3.871,0.0,0.0,3.79,3.79,3.8122,3.8501,0.0,0.0,4.32,4.3392,4.5611,4.9142,5.0257,5.0503,0.0,0.0,5.0637,5.0285,5.0966,5.1191,5.1191,5.1191,5.1191,5.1191,5.1191,5.1191,5.1191,5.1191,5.1191,5.1191,5.1191,5.1071,5.0936,5.0936,5.0443,4.9964,0.0,0.0,0.0,0.0,0.0,0.0,0.0,0.0,0.0,0.0,0.0,0.0,0.0,0.0,0.0,0.0,0.0,0.0,0.0,4.8013,4.9203,5.02,5.1596,5.2789,0.0,0.0,0.0,5.636,5.7135,5.7625,5.7808,5.7808,5.7845,5.79,5.79,5.79,5.79,5.79,5.79,5.79,5.79,5.8702,5.9998,5.9998,6.0792,6.201,6.201,6.201,6.201,6.201,6.201,6.2028,3.7214,0.0,0.0,3.8206,0.0,0.0,3.7831,0.0,0.0,3.968,4.0089,0.0,4.1115,4.1402,4.1665,4.2004,4.203,0.0,0.0,0.0,0.0,4.203,4.203,4.197,4.1861,4.1276,0.0,4.0093,0.0,0.0,3.8645,3.8645,3.8815,3.9079,0.0,4.0693,4.3513,4.524,4.7246,4.9381,5.0353,0.0,0.0,5.0622,5.0712,5.0697,5.1056,5.1191,5.1191,5.1191,5.1191,5.1191,5.1191,5.1191,5.1191,5.1191,5.1191,5.1191,5.1191,5.1191,5.1191,5.1191,5.0922,5.0652,5.0652,5.0353,5.0047,0.0,0.0,0.0,0.0,0.0,0.0,0.0,0.0,0.0,0.0,0.0,0.0,0.0,0.0,0.0,0.0,4.8095,4.9705,5.0522,5.1711,0.0,0.0,0.0,0.0,5.6295,5.6933,5.7299,5.7408,5.7747,5.79,5.79,5.79,5.79,5.79,5.79,5.79,5.7918,5.8209,5.8977,6.0014,6.0331,6.1045,6.201,6.201,6.201,6.201,6.201,6.201,6.201,0.0,0.0,0.0,0.0,0.0,0.0,0.0,3.9494,0.0,4.0566,0.0,4.1729,4.2251,4.2722,4.2997,4.2997,0.0,4.2997,4.2997,4.314,4.3218,4.3218,4.336,4.3621,4.4034,4.3432,0.0,0.0,0.0,0.0,3.9612,3.9612,3.9651,3.9716,0.0,0.0,0.0,4.7737,4.9337,4.9471,5.0084,5.0338,5.0338,5.0338,5.0697,5.1191,5.1191,5.1191,5.1191,5.1191,5.1191,5.1191,5.1191,5.1191,5.1191,5.1191,5.1191,5.1191,5.1191,5.1191,5.1191,5.1191,5.1191,5.1191,5.1191,5.1191,5.1026,5.0458,5.0255,0.0,0.0,0.0,0.0,0.0,0.0,0.0,0.0,0.0,0.0,0.0,0.0,0.0,0.0,0.0,5.0188,5.1096,5.1845,0.0,0.0,0.0,0.0,5.6156,5.659,0.0,5.6799,0.0,5.79,5.79,5.79,5.79,5.79,5.79,5.7954,5.8064,5.8651,5.9363,6.019,6.0759,6.1401,6.201,6.201,6.201,6.201,6.201,6.201,6.201,0.0,0.0,0.0,0.0,0.0,4.0336,4.0776,4.092,4.1219,4.1807,4.2356,0.0,4.2866,4.2932,4.2997,4.2997,4.2997,0.0,0.0,0.0,0.0,4.4317,4.5206,4.5755,4.5839,4.526,4.4216,0.0,0.0,0.0,0.0,0.0,3.9847,4.0303,0.0,0.0,4.6338,4.8423,0.0,5.0099,5.0757,5.1026,5.1026,5.1026,5.1101,5.1191,5.1191,5.1191,5.1191,5.1191,5.1191,5.1191,5.1191,5.1191,5.1191,5.1191,5.1191,5.1191,5.1191,5.1191,5.1191,5.1191,5.1191,5.1191,5.1191,5.1191,5.1161,5.1041,5.0592,4.9979,4.9262,0.0,0.0,0.0,0.0,0.0,0.0,0.0,0.0,0.0,0.0,0.0,0.0,0.0,0.0,0.0,0.0,0.0,0.0,0.0,0.0,0.0,5.605,0.0,0.0,0.0,5.79,5.79,5.79,5.79,5.79,5.79,5.8209,5.8737,5.884,5.9625,6.0834,6.0939,6.1401,6.201,6.201,6.201,6.201,6.201,6.201,6.201,0.0,0.0,0.0,0.0,0.0,0.0,0.0,4.2265,0.0,4.3036,4.3324,4.3572,4.3846,4.3885,4.4111,4.4716,4.423,4.4375,4.5531,4.5557,4.5774,4.633,4.6895,0.0,4.7506,4.7215,4.6087,4.4134,0.0,0.0,0.0,0.0,0.0,4.2467,0.0,4.5322,0.0,0.0,0.0,5.0255,5.0922,5.1191,5.1191,5.1191,5.1191,5.1191,5.1191,5.1191,5.1191,5.1191,5.1191,5.1191,5.1191,5.1191,5.1191,5.1191,5.1191,5.1191,5.1191,5.1191,5.1191,5.1191,5.1191,5.1191,5.1191,5.1191,5.1191,5.1191,5.0936,5.0428,4.9471,4.7938,0.0,0.0,0.0,0.0,0.0,0.0,0.0,0.0,0.0,0.0,0.0,0.0,0.0,0.0,0.0,0.0,0.0,0.0,0.0,0.0,0.0,0.0,0.0,0.0,0.0,5.7323,5.773,5.8082,5.8423,5.8423,5.8789,5.9479,5.9853,6.0373,6.1031,6.1387,6.1706,6.201,6.201,6.201,6.201,6.201,6.201,6.201,0.0,4.0579,0.0,0.0,4.1571,0.0,4.2662,4.3389,4.3899,4.3899,4.4004,4.4225,4.4643,4.4695,4.5167,4.6295,4.5582,4.59,4.7864,4.7434,4.7459,4.8307,4.8557,4.8823,4.9143,4.9152,4.8133,0.0,0.0,0.0,0.0,0.0,0.0,0.0,0.0,0.0,0.0,0.0,5.027,5.0473,5.0981,5.1191,5.1191,5.1191,5.1191,5.1191,5.1191,5.1191,5.1191,5.1191,5.1191,5.1191,5.1191,5.1191,5.1191,5.1191,5.1191,5.1191,5.1191,5.1191,5.1191,5.1191,5.1191,5.1191,5.1191,5.1191,5.1191,5.1191,5.1086,5.0737,4.9937,4.868,0.0,0.0,0.0,0.0,0.0,0.0,0.0,0.0,0.0,0.0,0.0,0.0,0.0,0.0,0.0,0.0,0.0,0.0,0.0,0.0,0.0,5.553,5.5699,0.0,5.7442,0.0,5.7774,5.8388,5.8909,5.9062,5.9528,6.0235,6.0774,6.1075,6.1253,6.178,6.201,6.201,6.201,6.201,6.201,6.201,6.201,6.201,0.0,0.0,0.0,0.0,0.0,0.0,0.0,4.4108,4.3899,4.3899,4.433,4.4643,4.4695,4.4695,4.5167,4.6295,4.6295,4.6751,4.7915,4.8834,4.9342,4.944,5.0388,5.0911,5.096,5.0945,5.0112,0.0,0.0,0.0,0.0,0.0,0.0,0.0,0.0,0.0,0.0,5.0113,5.0563,5.1101,5.1161,5.1191,5.1191,5.1191,5.1191,5.1191,5.1191,5.1191,5.1191,5.1191,5.1191,5.1191,5.1191,5.1191,5.1191,5.1191,5.1191,5.1191,5.1191,5.1191,5.1191,5.1191,5.1191,5.1191,5.1191,5.1191,5.1191,5.1191,5.0727,5.0524,5.1257,5.0239,4.9324,0.0,0.0,0.0,0.0,0.0,0.0,0.0,0.0,0.0,0.0,0.0,0.0,0.0,0.0,0.0,0.0,0.0,0.0,5.4668,0.0,5.5023,5.5699,5.6511,0.0,5.7815,5.8477,5.884,5.8926,5.9577,6.0266,6.0909,6.0968,6.134,6.1909,6.1964,6.201,6.201,6.201,6.201,6.201,6.201,6.201,6.201,0.0,0.0,0.0,0.0,0.0,0.0,0.0,4.5279,4.563,4.6279,4.5989,4.5728,4.5728,4.6308,4.7112,4.822,4.774,4.808,4.9805,4.9708,4.9892,5.0522,5.0964,5.1191,5.1191,5.1191,5.0401,0.0,0.0,0.0,0.0,0.0,0.0,0.0,0.0,4.9604,5.0226,5.0637,5.0951,5.1191,5.1191,5.1191,5.1191,5.1191,5.1191,5.1191,5.1191,5.1191,5.1191,5.1191,5.1191,5.1191,5.1191,5.1191,5.1191,5.1191,5.1191,5.1191,5.1191,5.1191,5.1191,5.1191,5.1191,5.1191,5.1191,5.1191,5.1191,5.1191,5.1438,5.1628,5.1601,5.1582,5.1497,0.0,0.0,0.0,0.0,0.0,0.0,0.0,0.0,0.0,0.0,0.0,0.0,0.0,0.0,0.0,0.0,0.0,0.0,5.5225,0.0,5.5597,5.6341,5.6664,5.6951,5.7257,5.8375,5.9129,5.9577,6.0282,6.0971,6.159,6.159,6.1752,6.201,6.201,6.201,6.201,6.201,6.201,6.201,6.201,6.201,6.201,4.3468,0.0,4.4612,0.0,4.4977,4.6077,4.6406,4.6702,4.7254,4.8332,4.7816,4.7217,4.6907,4.7548,4.8432,4.9513,4.8894,4.9239,5.1097,5.0499,5.0412,5.1167,5.1191,0.0,5.1191,5.1191,5.0647,4.9521,4.9307,0.0,0.0,0.0,0.0,0.0,5.0219,5.048,5.0533,5.0996,5.1191,5.1191,5.1191,5.1191,5.1191,5.1191,5.1191,5.1191,5.1191,5.1191,5.1191,5.1191,5.1191,5.1191,5.1191,5.1191,5.1191,5.1191,5.1191,5.1191,5.1191,5.1191,5.1191,5.1191,5.1191,5.1191,5.1191,5.1191,5.1191,5.1191,5.1957,5.2541,5.2349,5.2902,5.3272,5.2909,0.0,0.0,0.0,0.0,0.0,0.0,0.0,5.2203,5.2691,0.0,0.0,0.0,0.0,0.0,0.0,0.0,0.0,0.0,0.0,0.0,0.0,5.6478,5.6787,5.7425,5.8633,5.9594,6.0331,6.0986,6.1547,6.201,6.201,6.201,6.201,6.201,6.201,6.201,6.201,6.201,6.201,6.201,6.201,6.201,4.478,4.5115,4.5478,4.5478,4.6366,4.7461,4.8595,4.8321,4.8371,4.944,4.9576,4.9155,4.8105,4.8005,4.8432,4.9513,4.9601,5.0037,5.112,5.1191,5.1191,0.0,0.0,5.1191,5.1191,5.1191,5.1191,5.1152,0.0,0.0,5.0181,0.0,5.0181,5.0211,5.0892,5.1191,5.1191,5.1191,5.1191,5.1191,5.1191,5.1191,5.1191,5.1191,5.1191,5.1191,5.1191,5.1191,5.1191,5.1191,5.1191,5.1191,5.1191,5.1191,5.1191,5.1191,5.1191,5.1191,5.1191,5.1191,5.1191,5.1191,5.1191,5.1191,5.1191,5.1191,5.1191,5.1191,5.1957,5.288,5.3805,5.4139,5.4296,5.4356,0.0,0.0,0.0,0.0,0.0,0.0,5.213,5.2453,5.412,0.0,0.0,0.0,0.0,0.0,0.0,0.0,0.0,5.4583,5.3907,0.0,5.5699,5.5716,5.6779,5.8875,5.9626,6.0328,6.1016,6.1678,6.1996,6.201,6.201,6.201,6.201,6.201,6.201,6.201,6.201,6.201,6.201,6.201,6.201,6.201,4.6885,4.7687,4.8049,4.7345,4.8098,4.8941,4.9296,4.9212,4.9489,5.0546,5.0689,5.057,5.023,5.0182,5.0326,0.0,5.0689,5.0846,0.0,5.1191,5.1191,5.1191,5.1191,5.1191,5.1191,5.1191,5.1191,5.1191,0.0,0.0,0.0,5.0892,5.0892,5.0892,5.1101,5.1191,5.1191,5.1191,5.1191,5.1191,5.1191,5.1191,5.1191,5.1191,5.1191,5.1191,5.1191,5.1191,5.1191,5.1191,5.1191,5.1191,5.1191,5.1191,5.1191,5.1191,5.1191,5.1191,5.1191,5.1191,5.1191,5.1191,5.1191,5.1191,5.1191,5.1191,5.1386,5.201,5.2903,5.3826,5.472,5.5453,5.578,5.5303,0.0,0.0,0.0,0.0,0.0,0.0,0.0,5.4125,0.0,5.4661,0.0,0.0,0.0,0.0,0.0,0.0,0.0,0.0,5.5869,0.0,5.7188,5.6714,5.7042,5.8244,5.8926,5.9851,6.1013,6.1692,6.201,6.201,6.201,6.201,6.201,6.201,6.201,6.201,6.201,6.201,6.201,6.201,6.201,6.201,4.801,4.8844,4.9391,4.872,4.9489,5.0196,5.0196,5.0196,5.0451,5.112,5.1191,5.1191,5.1191,5.1191,0.0,5.1191,5.1191,5.1191,5.1191,5.1191,5.1191,5.1191,5.1191,5.1191,5.1191,0.0,0.0,5.1191,5.1191,5.1191,5.1191,5.1191,5.1191,5.1191,5.1191,5.1191,5.1191,5.1191,5.1191,5.1221,5.146,5.1588,5.1618,5.1858,5.1947,5.1947,5.1947,5.1947,5.1947,5.1947,5.1798,5.1588,5.1588,5.1385,5.1191,5.1191,5.1191,5.1191,5.1191,5.1191,5.1191,5.1191,5.1191,5.1191,5.1191,5.1479,5.1888,5.2471,5.3611,5.4658,5.5194,5.6083,5.6547,5.61,0.0,5.5549,0.0,0.0,0.0,0.0,0.0,0.0,0.0,5.5964,0.0,0.0,0.0,0.0,0.0,0.0,0.0,5.6358,5.6393,0.0,5.7476,5.7036,5.7441,5.8702,5.9609,6.0511,6.1387,6.1808,6.201,6.201,6.201,6.201,6.201,6.201,6.201,6.201,6.201,6.201,6.201,6.201,6.201,6.201,4.8432,4.9032,0.0,0.0,5.0546,0.0,5.1191,5.1236,5.1265,5.1265,5.131,5.1325,5.1325,5.1325,5.1325,5.1325,0.0,0.0,0.0,5.1191,5.1191,5.1191,5.1191,5.1191,5.1191,5.1191,5.1191,5.1191,5.1191,5.1191,5.1191,5.1191,5.1191,5.1191,5.1191,5.1221,5.1265,5.1265,5.1295,5.1385,5.2022,5.2276,5.2336,5.2974,5.3198,5.3198,5.3198,5.3198,5.3198,5.3198,5.2794,5.2261,5.2217,5.1783,5.1251,5.1206,5.1191,5.1191,5.1191,5.1191,5.1191,5.1191,5.1191,5.1191,5.1191,5.1934,5.2628,5.2695,5.4089,5.5316,5.5393,5.6103,5.6699,5.6699,5.6288,5.5952,5.5902,0.0,0.0,0.0,0.0,0.0,0.0,5.6776,5.6867,0.0,0.0,0.0,0.0,0.0,5.5851,5.5851,5.5851,5.6172,5.6867,5.6884,5.7895,5.9934,6.1286,6.1923,6.1923,6.1964,6.201,6.201,6.201,6.201,6.201,6.201,6.201,6.201,6.201,6.201,6.201,6.201,6.201,6.201,0.0,0.0,5.0822,5.0822,5.1026,5.1191,5.1191,5.1624,5.1962,5.1962,5.2411,5.2734,5.2734,5.2734,5.2734,5.2734,5.1798,5.1191,5.1191,5.1191,5.1191,5.1191,5.1191,5.1191,5.1191,5.1191,5.1191,5.1191,5.1191,5.1191,5.1191,5.1191,5.1191,5.1191,5.1191,5.1475,5.1962,5.1962,5.2261,5.2725,5.2914,5.2974,5.2989,5.3139,5.3198,5.3198,5.3198,5.3198,5.3198,5.3198,5.3094,5.286,5.2351,5.2097,5.1872,5.134,5.1191,5.1191,5.1191,5.1191,5.1191,5.1191,5.1191,5.1191,5.1191,5.1934,5.2791,5.3524,5.4532,5.5515,5.6238,5.6547,5.6699,5.6699,5.672,5.6537,5.5969,5.6104,0.0,0.0,5.6402,5.6815,5.7506,5.761,5.7408,0.0,0.0,0.0,0.0,5.6867,5.7374,5.7374,5.7374,5.7459,5.7628,5.7628,5.8146,5.918,6.0577,6.1242,6.1253,6.1766,6.201,6.201,6.201,6.201,6.201,6.201,6.201,6.201,6.201,6.201,6.201,6.201,6.201,6.201,5.1191,5.1191,5.1295,5.1618,5.1678,5.1768,5.2067,5.2411,5.265,5.265,5.2974,5.3198,5.3198,5.3198,5.3198,5.3198,5.2531,5.2112,5.2112,5.2112,5.2112,5.2112,5.2112,5.1977,5.1678,5.1678,5.1505,5.1191,5.1191,5.1191,5.1206,5.1505,5.1678,5.1678,5.1977,5.2321,5.265,5.265,5.2884,5.3228,5.3518,5.3653,5.3683,5.4007,5.4102,5.4102,5.4102,5.4102,5.4102,5.4102,5.3917,5.3533,5.286,5.2441,5.2067,5.1385,5.1191,5.1191,5.1191,5.1191,5.1308,5.1742,5.1842,5.1957,5.2381,5.3174,5.3982,5.449,5.5312,5.6103,5.6603,5.6699,5.6719,5.6815,5.6704,5.654,5.6213,5.6438,0.0,5.6637,5.7032,5.7459,5.7866,5.79,5.7729,5.7323,0.0,0.0,5.6731,5.7154,5.7391,5.7391,5.773,5.79,5.79,5.8545,5.9045,5.9413,6.0807,6.1462,6.1458,6.1836,6.201,6.201,6.201,6.201,6.201,6.201,6.201,6.201,6.201,6.201,6.201,6.201,6.201,6.201,5.1325,5.134,5.155,5.2232,5.2351,5.2531,5.3124,5.3303,5.3363,5.3363,5.3453,5.3513,5.3513,5.3513,5.3513,5.3513,5.3513,5.3423,5.3213,5.3198,5.3198,5.3198,5.3198,5.292,5.2351,5.2351,5.2067,5.149,5.149,5.149,5.1505,5.2082,5.2351,5.2381,5.2959,5.3258,5.3363,5.3363,5.3423,5.3558,5.4117,5.4356,5.4416,5.4985,5.5194,5.5194,5.5194,5.5194,5.5194,5.5194,5.482,5.4236,5.3548,5.2875,5.224,5.1708,5.1485,5.1409,5.1409,5.1511,5.1773,5.2426,5.2718,5.3013,5.3821,5.4678,5.5296,5.5296,5.6063,5.6699,5.6699,5.6719,5.6743,5.678,5.6473,5.6258,5.627,0.0,5.6799,5.6799,5.7442,5.79,5.79,5.79,5.79,5.79,5.7306,5.7188,0.0,5.7239,5.6917,5.6799,5.7509,5.7954,5.8046,5.9447,6.0141,6.0174,6.1419,6.201,6.201,6.201,6.201,6.201,6.201,6.201,6.201,6.201,6.201,6.201,6.201,6.201,6.201,6.201,6.201,6.201,5.1932,5.2052,5.2261,5.2944,5.3049,5.3079,5.3183,5.3668,5.4042,5.4042,5.4536,5.488,5.488,5.488,5.488,5.488,5.488,5.4426,5.3273,5.3198,5.3198,5.3198,5.3198,5.3154,5.3064,5.3049,5.298,5.2899,5.2899,5.2899,5.2899,5.3004,5.3049,5.3064,5.3154,5.3503,5.4042,5.4042,5.4371,5.4905,5.4999,5.5044,5.5044,5.5149,5.5194,5.5194,5.5194,5.5194,5.5194,5.5194,5.5119,5.4925,5.4266,5.3578,5.3083,5.3184,5.2841,5.2381,5.2381,5.2969,5.3393,5.2747,5.3212,5.3805,5.3971,5.4678,5.5296,5.5296,5.6063,5.6699,5.6699,5.6834,5.6692,5.5942,5.6174,5.6201,5.542,0.0,5.6799,5.6799,5.7442,5.79,5.79,5.79,5.79,5.79,5.7798,5.7509,5.7002,5.7442,5.7442,5.6816,5.7509,5.8173,5.8737,6.0139,6.0834,6.0849,6.1636,6.201,6.201,6.201,6.201,6.201,6.201,6.201,6.201,6.201,6.201,6.201,6.201,6.201,6.201,6.201,6.201,6.201,5.2665,5.2725,5.2935,5.3608,5.3728,5.3847,5.4231,5.4536,5.4745,5.4745,5.4999,5.5194,5.5194,5.5194,5.5194,5.5194,5.5194,5.4925,5.4336,5.4291,5.4291,5.4291,5.4291,5.4102,5.3743,5.3369,5.3198,5.3198,5.3198,5.3198,5.3213,5.3563,5.3728,5.3743,5.4102,5.4446,5.4745,5.4745,5.491,5.5194,5.5194,5.5194,5.5194,5.5194,5.5194,5.5194,5.5194,5.5194,5.5194,5.5194,5.5526,5.5846,5.5202,5.4869,5.4676,5.4471,5.3896,5.3349,5.3349,5.3654,5.3998,5.4046,5.4385,5.484,5.5328,5.5769,5.6047,5.6047,5.6411,5.6738,5.6834,5.693,5.6811,5.6187,5.6328,0.0,0.0,5.6219,5.6799,5.6799,5.7442,5.79,5.79,5.79,5.79,5.79,5.79,5.7764,5.7408,5.773,5.7747,5.7391,5.8075,5.8581,5.8892,6.0295,6.1001,6.1016,6.1678,6.201,6.201,6.201,6.201,6.201,6.201,6.201,6.201,6.201,6.201,6.201,6.201,6.201,6.201,6.201,6.201,6.201,5.3408,5.3414,5.3623,5.4326,5.4446,5.461,5.5119,5.5194,5.5194,5.5194,5.5194,5.5194,5.5194,5.5194,5.5194,5.5194,5.5194,5.5194,5.5194,5.5194,5.5194,5.5194,5.5194,5.4955,5.4446,5.3922,5.3677,5.3677,5.3677,5.3677,5.3692,5.4192,5.4446,5.4461,5.497,5.5194,5.5194,5.5194,5.5194,5.5194,5.5194,5.5194,5.5194,5.5194,5.5194,5.5244,5.5441,5.5541,5.5551,5.5809,5.6338,5.6866,5.6402,5.6136,5.5964,5.572,5.515,5.4569,5.4359,5.4464,5.4736,5.5174,5.5454,5.5812,5.6528,5.6699,5.6699,5.6699,5.6738,5.6815,5.6968,5.7082,5.698,5.6519,0.0,0.0,0.0,5.6408,5.6867,5.7036,5.7561,5.79,5.79,5.79,5.79,5.79,5.79,5.79,5.79,5.79,5.7972,5.8119,5.8806,5.923,5.9379,6.062,6.1239,6.1239,6.1748,6.201,6.201,6.201,6.201,6.201,6.201,6.201,6.201,6.201,6.201,6.201,6.201,6.201,6.201,6.201,6.201,6.1992,5.3997,5.4132,5.4341,5.4999,5.5119,5.5134,5.5179,5.5194,5.5194,5.5194,5.5194,5.5194,5.5194,5.5194,5.5194,5.5194,5.5194,5.5194,5.5194,5.5194,5.5194,5.5194,5.5194,5.5164,5.5119,5.5074,5.5044,5.5044,5.5044,5.5044,5.5044,5.5089,5.5119,5.5119,5.5164,5.5194,5.5194,5.5194,5.5194,5.5194,5.5194,5.5194,5.5194,5.5194,5.5194,5.5305,5.6183,5.6508,5.6638,5.7566,5.7939,5.7969,5.7945,5.7076,5.6246,5.7023,5.6866,5.6297,5.5434,5.5848,5.6297,5.5495,5.5948,5.6622,5.668,5.6699,5.6699,5.6699,5.6853,5.6987,5.7006,5.7308,5.726,5.6372,0.0,0.0,5.6463,5.664,5.7053,5.7747,5.7883,5.79,5.79,5.79,5.79,5.79,5.79,5.79,5.79,5.79,5.8191,5.8806,5.9546,6.0219,6.0849,6.1561,6.1923,6.1923,6.1982,6.201,6.201,6.201,6.201,6.201,6.201,6.201,6.201,6.201,6.201,6.201,6.201,6.201,6.201,6.201,6.201,6.2023,5.476,5.482,5.4895,5.5149,5.5194,5.5194,5.5194,5.5194,5.5194,5.5194,5.5194,5.5194,5.5194,5.5194,5.5194,5.5194,5.5194,5.5194,5.5194,5.5194,5.5194,5.5194,5.5194,5.5194,5.5194,5.5194,5.5194,5.5194,5.5194,5.5194,5.5194,5.5194,5.5194,5.5194,5.5194,5.5194,5.5194,5.5194,5.5526,5.6075,5.6075,5.6436,5.7007,5.7007,5.7007,5.7054,5.7418,5.752,5.759,5.7985,5.8512,5.904,5.904,5.8486,5.7718,5.7126,5.684,5.6622,5.6277,5.643,5.6622,5.6257,5.645,5.6699,5.6699,5.6699,5.6699,5.6699,5.6853,5.7044,5.7158,5.742,5.737,5.6683,0.0,5.7305,5.6759,5.7134,5.7577,5.7883,5.79,5.79,5.79,5.79,5.79,5.79,5.79,5.79,5.79,5.8298,5.8841,5.9561,6.0266,6.0744,6.1001,6.1664,6.201,6.201,6.201,6.201,6.201,6.201,6.201,6.201,6.201,6.201,6.201,6.201,6.201,6.201,6.201,6.201,6.201,6.201,6.2046,6.2123,5.5194,5.5194,5.5194,5.5194,5.5194,5.5194,5.5194,5.5194,5.5194,5.5194,5.5194,5.5194,5.5194,5.5194,5.5194,5.5194,5.5194,5.5194,5.5194,5.5194,5.5194,5.5194,5.5194,5.5194,5.5194,5.5194,5.5194,5.5194,5.5194,5.5194,5.5194,5.5194,5.5194,5.5194,5.5194,5.5194,5.5219,5.5501,5.6001,5.6638,5.6935,5.7473,5.8101,5.8101,5.8101,5.8131,5.8467,5.8558,5.8619,5.895,5.9499,6.0071,6.0071,5.953,5.8601,5.7127,5.6699,5.6699,5.6699,5.6699,5.6699,5.6699,5.6699,5.6699,5.6699,5.6699,5.6719,5.6776,5.6949,5.7158,5.7364,5.7551,5.7566,5.7204,5.756,5.773,5.7222,5.7577,5.79,5.79,5.79,5.79,5.79,5.79,5.79,5.79,5.79,5.7991,5.8192,5.8651,5.9329,6.0282,6.0759,6.1104,6.1297,6.178,6.201,6.201,6.201,6.201,6.201,6.201,6.201,6.201,6.201,6.201,6.201,6.201,6.201,6.201,6.201,6.2037,6.206,6.206,6.2154,6.227,5.5194,5.5194,5.5194,5.5194,5.5194,5.5194,5.5194,5.5194,5.5194,5.5194,5.5194,5.5194,5.5194,5.5194,5.5194,5.5194,5.5194,5.5194,5.5194,5.5194,5.5194,5.5194,5.5194,5.5194,5.5194,5.5194,5.5194,5.5194,5.5194,5.5194,5.5194,5.5194,5.5194,5.5194,5.5219,5.5219,5.5255,5.6207,5.6614,5.671,5.7707,5.8124,5.8124,5.8124,5.8124,5.8261,5.924,5.9625,5.9756,6.0755,6.1102,6.1102,6.1102,6.0075,5.8601,5.7127,5.6699,5.6699,5.6699,5.6699,5.6699,5.6699,5.6699,5.6699,5.6699,5.6699,5.6757,5.6968,5.7158,5.7364,5.7569,5.7753,5.79,5.79,5.79,5.79,5.79,5.79,5.79,5.79,5.79,5.79,5.79,5.79,5.79,5.79,5.79,5.8209,5.8858,5.8909,5.956,6.0971,6.1016,6.1329,6.1978,6.201,6.201,6.201,6.201,6.201,6.201,6.201,6.201,6.201,6.201,6.201,6.201,6.201,6.201,6.201,6.201,6.2087,6.2203,6.2203,6.2296,6.2428,5.5194,5.5194,5.5194,5.5194,5.5194,5.5194,5.5194,5.5194,5.5194,5.5194,5.5194,5.5194,5.5194,5.5194,5.5194,5.5194,5.5194,5.5194,5.5194,5.5194,5.5194,5.5194,5.5194,5.5194,5.5194,5.5194,5.5194,5.5194,5.5194,5.5194,5.5194,5.5194,5.5194,5.5244,5.5893,5.6183,5.6256,5.7229,5.8054,5.8725,5.904,5.9581,6.0216,6.0216,6.0216,6.0238,6.0532,6.0654,6.0713,6.0998,6.1102,6.092,5.9893,5.9247,5.8601,5.7127,5.6699,5.6699,5.6699,5.6699,5.6699,5.6699,5.6796,5.6911,5.6911,5.7025,5.7139,5.7195,5.7383,5.7532,5.7588,5.7753,5.79,5.79,5.79,5.79,5.79,5.79,5.79,5.79,5.79,5.79,5.79,5.79,5.79,5.79,5.8352,5.8685,5.8892,5.9835,6.0575,6.1001,6.1462,6.1794,6.201,6.201,6.201,6.201,6.201,6.201,6.201,6.201,6.201,6.201,6.201,6.201,6.201,6.201,6.201,6.2023,6.2096,6.2163,6.2217,6.231,6.2428,6.2552,5.5194,5.5194,5.5194,5.5194,5.5194,5.5194,5.5194,5.5194,5.5194,5.5194,5.5194,5.5194,5.5194,5.5194,5.5194,5.5194,5.5194,5.5194,5.5194,5.5194,5.5194,5.5194,5.5194,5.5194,5.5194,5.5194,5.5194,5.5194,5.5194,5.5391,5.576,5.576,5.5967,5.6378,5.6935,5.7181,5.7252,5.8277,5.904,5.9647,6.0028,6.0569,6.1102,6.1102,6.1102,6.1102,6.1102,6.1102,6.1102,6.1102,6.1102,6.0854,5.9363,5.8899,5.8601,5.7127,5.6699,5.6719,5.6796,5.6815,5.6834,5.6911,5.6968,5.7025,5.7101,5.7214,5.7327,5.7402,5.7514,5.7625,5.7698,5.7808,5.79,5.79,5.79,5.79,5.79,5.79,5.79,5.79,5.79,5.79,5.79,5.79,5.79,5.79,5.8511,5.9028,5.9313,6.0388,6.1119,6.1387,6.1794,6.201,6.201,6.201,6.201,6.201,6.201,6.201,6.201,6.201,6.201,6.201,6.201,6.201,6.1992,6.206,6.2087,6.21,6.223,6.2323,6.2357,6.2454,6.2565,6.2679,5.5194,5.5194,5.5194,5.5194,5.5194,5.5194,5.5194,5.5194,5.5194,5.5194,5.5194,5.5194,5.5194,5.5194,5.5194,5.5194,5.5194,5.5194,5.5194,5.5194,5.5194,5.5194,5.528,5.533,5.533,5.533,5.5381,5.5466,5.5466,5.5893,5.6719,5.6719,5.7229,5.8085,5.8177,5.8238,5.8307,5.9323,5.9734,5.98,6.0734,6.1102,6.1102,6.1102,6.1102,6.1102,6.1102,6.1102,6.1102,6.1102,6.1069,6.0771,5.9347,5.885,5.8518,5.7113,5.6699,5.6757,5.6949,5.7006,5.7082,5.7271,5.7195,5.7101,5.7289,5.7346,5.7402,5.7588,5.7625,5.768,5.788,5.79,5.79,5.79,5.79,5.79,5.79,5.79,5.79,5.79,5.79,5.79,5.79,5.7954,5.7991,5.7991,5.8685,5.938,6.0046,6.0729,6.1372,6.1964,6.201,6.201,6.201,6.201,6.201,6.201,6.201,6.201,6.201,6.201,6.201,6.201,6.201,6.201,6.2037,6.215,6.2217,6.223,6.2362,6.2488,6.2603,6.2616,6.2692,6.2793,5.5194,5.5194,5.5194,5.5194,5.5194,5.5194,5.5194,5.5194,5.5194,5.5194,5.5194,5.5194,5.5194,5.5194,5.5194,5.5194,5.5194,5.5194,5.5194,5.5194,5.5194,5.5194,5.5918,5.6305,5.6305,5.6305,5.6686,5.7465,5.7465,5.7582,5.7777,5.7777,5.7893,5.8131,5.8912,5.9262,5.9345,6.0361,6.0776,6.0797,6.1019,6.1102,6.1102,6.1102,6.1102,6.1102,6.1102,6.1102,6.1102,6.1102,6.0721,6.0075,5.9181,5.8502,5.7856,5.6964,5.6815,5.6949,5.6987,5.712,5.7289,5.7495,5.7514,5.7476,5.7532,5.7662,5.7772,5.7827,5.7827,5.7845,5.7881,5.79,5.79,5.79,5.79,5.79,5.79,5.79,5.79,5.79,5.79,5.79,5.79,5.8387,5.8668,5.8668,5.9835,6.062,6.0774,6.1415,6.185,6.1996,6.201,6.201,6.201,6.201,6.201,6.201,6.201,6.201,6.201,6.201,6.201,6.201,6.201,6.206,6.2163,6.219,6.2257,6.2376,6.25,6.2578,6.2616,6.2717,6.2786,6.2793,5.5194,5.5194,5.5194,5.5194,5.5194,5.5194,5.5194,5.5194,5.5194,5.5194,5.5194,5.5194,5.5194,5.5194,5.5194,5.5194,5.5194,5.5194,5.5194,5.5626,5.5869,5.5869,5.6807,5.7535,5.8024,5.8024,5.8047,5.8101,5.8101,5.8353,5.8822,5.8822,5.9084,5.9543,6.0071,6.0318,6.0361,6.0877,6.1102,6.1102,6.1102,6.1102,6.1102,6.1102,6.1102,6.1102,6.1102,6.1102,6.1102,6.1102,6.0622,5.9877,5.9131,5.8386,5.766,5.7031,5.6911,5.7044,5.7233,5.7364,5.7495,5.768,5.7735,5.7735,5.7735,5.7808,5.79,5.79,5.79,5.79,5.79,5.79,5.79,5.79,5.79,5.79,5.79,5.79,5.79,5.79,5.79,5.79,5.79,5.8511,5.8892,5.8892,6.02,6.1001,6.1001,6.1636,6.201,6.201,6.201,6.201,6.201,6.201,6.201,6.201,6.201,6.201,6.201,6.201,6.2033,6.21,6.21,6.2163,6.2296,6.2357,6.2423,6.25,6.2641,6.2692,6.2705,6.2768,6.2793,6.2793,5.5194,5.5194,5.5194,5.5194,5.5194,5.5194,5.5194,5.5194,5.5194,5.5194,5.5194,5.5194,5.5194,5.5194,5.5194,5.5194,5.5355,5.5441,5.5441,5.6329,5.6863,5.6863,5.7823,5.8754,5.9581,5.9772,5.9455,5.8619,5.8619,5.904,5.986,5.986,6.0302,6.1102,6.1102,6.1102,6.1102,6.1102,6.1102,6.1102,6.1102,6.1102,6.1102,6.1102,6.1102,6.1102,6.1102,6.1102,6.1102,6.1102,6.0539,5.9711,5.9082,5.8343,5.7573,5.7132,5.7044,5.7176,5.7514,5.7625,5.768,5.7845,5.79,5.79,5.79,5.79,5.79,5.79,5.79,5.79,5.79,5.79,5.79,5.79,5.79,5.79,5.79,5.79,5.79,5.79,5.79,5.7954,5.8064,5.8685,5.9146,5.9246,6.0434,6.1163,6.1163,6.1692,6.201,6.201,6.201,6.201,6.201,6.201,6.201,6.201,6.201,6.201,6.201,6.2019,6.21,6.2203,6.223,6.231,6.2454,6.2552,6.2616,6.2641,6.2755,6.2793,6.2793,6.2793,6.2793,6.2793,5.5194,5.5194,5.5194,5.5194,5.5194,5.5194,5.5194,5.5194,5.5194,5.5194,5.5194,5.5194,5.5194,5.5194,5.5194,5.5194,5.5943,5.6411,5.6411,5.7347,5.7893,5.7893,5.8867,5.9455,5.9603,6.0447,6.0835,6.0675,6.0675,6.0755,6.0898,6.0898,6.0961,6.1102,6.1102,6.1102,6.1102,6.1102,6.1102,6.1102,6.1102,6.1102,6.1102,6.1102,6.1102,6.1102,6.1102,6.1102,6.1102,6.1102,6.0191,5.9032,5.8933,5.8093,5.7101,5.702,5.7252,5.7532,5.7588,5.7717,5.788,5.7881,5.79,5.79,5.79,5.79,5.79,5.79,5.79,5.79,5.79,5.79,5.79,5.79,5.79,5.79,5.79,5.79,5.79,5.79,5.79,5.8119,5.8703,5.9413,6.0093,6.0666,6.143,6.185,6.185,6.195,6.201,6.201,6.201,6.201,6.201,6.201,6.201,6.201,6.201,6.201,6.1992,6.2128,6.219,6.2217,6.2323,6.2454,6.2578,6.2603,6.2667,6.2768,6.278,6.2793,6.2793,6.2793,6.2793,6.2793,5.5194,5.5194,5.5194,5.5194,5.5194,5.5194,5.5194,5.5194,5.5194,5.5194,5.5194,5.5194,5.5194,5.566,5.5977,5.5977,5.6863,5.7441,5.7441,5.8376,5.8979,5.9097,5.9968,6.0536,6.0773,6.1094,6.1318,6.1437,6.1206,6.1102,6.1102,6.1102,6.1102,6.1102,6.1102,6.1102,6.1102,6.1102,6.1102,6.1102,6.1102,6.1102,6.1102,6.1102,6.1102,6.1102,6.1102,6.1102,6.1102,6.1102,6.0125,5.892,5.904,5.8108,5.7044,5.7271,5.7458,5.7625,5.7735,5.7827,5.79,5.79,5.79,5.79,5.79,5.79,5.79,5.79,5.79,5.79,5.79,5.79,5.79,5.79,5.79,5.79,5.79,5.79,5.79,5.79,5.8244,5.8581,5.8875,5.9917,6.0684,6.0986,6.1622,6.201,6.201,6.201,6.201,6.201,6.201,6.201,6.201,6.201,6.2033,6.2096,6.2096,6.2096,6.2096,6.2177,6.2265,6.2423,6.2488,6.2578,6.2705,6.2705,6.2743,6.2793,6.2793,6.2793,6.2793,6.2793,6.2793,6.2793]}]]